[[{"header":{"parameterUnit":"m.s-1","parameterCategory":1,"la1":30.6,"la2":28.766,"lo1":-90.7593,"lo2":-88.6598,"dy":0.0162,"dx":0.0183,"nx":116,"ny":114,"refTime":"2023-09-19T00:00:00:Z","depth":0,"parameterNumber":2,"parameterNumberName":"U-component_of_WINDS"},"data":[0.0,0.0,0.0,0.0,0.0,0.0,0.0,0.0,0.0,0.0,0.0,0.0,0.0,0.0,0.0,0.0,0.0,0.0,0.0,0.0,0.0,0.0,0.0,0.0,0.0,0.0,0.0,0.0,0.0,0.0,0.0,0.0,0.0,0.0,0.0,0.0,0.0,0.0,0.0,0.0,0.0,0.0,0.0,0.0,0.0,0.0,0.0,0.0,0.0,0.0,0.0,0.0,0.0,0.0,0.0,0.0,0.0,0.0,0.0,0.0,0.0,0.0,0.0,0.0,0.0,0.0,0.0,0.0,0.0,0.0,0.0,0.0,0.0,0.0,0.0,0.0,0.0,0.0,0.0,0.0,0.0,0.0,0.0,0.0,0.0,0.0,0.0,0.0,0.0,0.0,0.0,0.0,0.0,0.0,0.0,0.0,0.0,0.0,0.0,0.0,0.0,0.0,0.0,0.0,0.0,0.0,0.0,0.0,0.0,0.0,0.0,0.0,0.0,0.0,0.0,0.0,0.0,0.0,0.0,0.0,0.0,0.0,0.0,0.0,0.0,0.0,0.0,0.0,0.0,0.0,0.0,0.0,0.0,0.0,0.0,0.0,0.0,0.0,0.0,0.0,0.0,0.0,0.0,0.0,0.0,0.0,0.0,0.0,0.0,0.0,0.0,0.0,0.0,0.0,0.0,0.0,0.0,0.0,0.0,0.0,0.0,0.0,0.0,0.0,0.0,0.0,0.0,0.0,0.0,0.0,0.0,0.0,0.0,0.0,0.0,0.0,0.0,0.0,0.0,0.0,0.0,0.0,0.0,0.0,0.0,0.0,0.0,0.0,0.0,0.0,0.0,0.0,0.0,0.0,0.0,0.0,0.0,0.0,0.0,0.0,0.0,0.0,0.0,0.0,0.0,0.0,0.0,0.0,0.0,0.0,0.0,0.0,0.0,0.0,0.0,0.0,0.0,0.0,0.0,0.0,0.0,0.0,0.0,0.0,0.0,0.0,0.0,0.0,0.0,0.0,0.0,0.0,0.0,0.0,0.0,0.0,0.0,0.0,0.0,0.0,0.0,0.0,0.0,0.0,0.0,0.0,0.0,0.0,0.0,0.0,0.0,0.0,0.0,0.0,0.0,0.0,0.0,0.0,0.0,0.0,0.0,0.0,0.0,0.0,0.0,0.0,0.0,0.0,0.0,0.0,0.0,0.0,0.0,0.0,0.0,0.0,0.0,0.0,0.0,0.0,0.0,0.0,0.0,0.0,0.0,0.0,0.0,0.0,0.0,0.0,0.0,0.0,0.0,0.0,0.0,0.0,0.0,0.0,0.0,0.0,0.0,0.0,0.0,0.0,0.0,0.0,0.0,0.0,0.0,0.0,0.0,0.0,0.0,0.0,0.0,0.0,0.0,0.0,0.0,0.0,0.0,0.0,0.0,0.0,0.0,0.0,0.0,0.0,0.0,0.0,0.0,0.0,0.0,0.0,0.0,0.0,0.0,0.0,0.0,0.0,0.0,0.0,0.0,0.0,0.0,0.0,0.0,0.0,0.0,0.0,0.0,0.0,0.0,0.0,0.0,0.0,0.0,0.0,0.0,0.0,0.0,0.0,0.0,0.0,0.0,0.0,0.0,0.0,0.0,0.0,0.0,0.0,0.0,0.0,0.0,0.0,0.0,0.0,0.0,0.0,0.0,0.0,0.0,0.0,0.0,0.0,0.0,0.0,0.0,0.0,0.0,0.0,0.0,0.0,0.0,0.0,0.0,0.0,0.0,0.0,0.0,0.0,0.0,0.0,0.0,0.0,0.0,0.0,0.0,0.0,0.0,0.0,0.0,0.0,0.0,0.0,0.0,0.0,0.0,0.0,0.0,0.0,0.0,0.0,0.0,0.0,0.0,0.0,0.0,0.0,0.0,0.0,0.0,0.0,0.0,0.0,0.0,0.0,0.0,0.0,0.0,0.0,0.0,0.0,0.0,0.0,0.0,0.0,0.0,0.0,0.0,0.0,0.0,0.0,0.0,0.0,0.0,0.0,0.0,0.0,0.0,0.0,0.0,0.0,0.0,0.0,0.0,0.0,0.0,0.0,0.0,0.0,0.0,0.0,0.0,0.0,0.0,0.0,0.0,0.0,0.0,0.0,0.0,0.0,0.0,0.0,0.0,0.0,0.0,0.0,0.0,0.0,0.0,0.0,0.0,0.0,0.0,0.0,0.0,0.0,0.0,0.0,0.0,0.0,0.0,0.0,0.0,0.0,0.0,0.0,0.0,0.0,0.0,0.0,0.0,0.0,0.0,0.0,0.0,0.0,0.0,0.0,0.0,0.0,0.0,0.0,0.0,0.0,0.0,0.0,0.0,0.0,0.0,0.0,0.0,0.0,0.0,0.0,0.0,0.0,0.0,0.0,0.0,0.0,0.0,0.0,0.0,0.0,0.0,0.0,0.0,0.0,0.0,0.0,0.0,0.0,0.0,0.0,0.0,0.0,0.0,0.0,0.0,0.0,0.0,0.0,0.0,0.0,0.0,0.0,0.0,0.0,0.0,0.0,0.0,0.0,0.0,0.0,0.0,0.0,0.0,0.0,0.0,0.0,0.0,0.0,0.0,0.0,0.0,0.0,0.0,0.0,0.0,0.0,0.0,0.0,0.0,0.0,0.0,0.0,0.0,0.0,0.0,0.0,0.0,0.0,0.0,0.0,0.0,0.0,0.0,0.0,0.0,0.0,0.0,0.0,0.0,0.0,0.0,0.0,0.0,0.0,0.0,0.0,0.0,0.0,0.0,0.0,0.0,0.0,0.0,0.0,0.0,0.0,0.0,0.0,0.0,0.0,0.0,0.0,0.0,0.0,0.0,0.0,0.0,0.0,0.0,0.0,0.0,0.0,0.0,0.0,0.0,0.0,0.0,0.0,0.0,0.0,0.0,0.0,0.0,0.0,0.0,0.0,0.0,0.0,0.0,0.0,0.0,0.0,0.0,0.0,0.0,0.0,0.0,0.0,0.0,0.0,0.0,0.0,0.0,0.0,0.0,0.0,0.0,0.0,0.0,0.0,0.0,0.0,0.0,0.0,0.0,0.0,0.0,0.0,0.0,0.0,0.0,0.0,0.0,0.0,0.0,0.0,0.0,0.0,0.0,0.0,0.0,0.0,0.0,0.0,0.0,0.0,0.0,0.0,0.0,0.0,0.0,0.0,0.0,0.0,0.0,0.0,0.0,0.0,0.0,0.0,0.0,0.0,0.0,0.0,0.0,0.0,0.0,0.0,0.0,0.0,0.0,0.0,0.0,0.0,0.0,0.0,0.0,0.0,0.0,0.0,0.0,0.0,0.0,0.0,0.0,0.0,0.0,0.0,0.0,0.0,0.0,0.0,0.0,0.0,0.0,0.0,0.0,0.0,0.0,0.0,0.0,0.0,0.0,0.0,0.0,0.0,0.0,0.0,0.0,0.0,0.0,0.0,0.0,0.0,0.0,0.0,0.0,0.0,0.0,0.0,0.0,0.0,0.0,0.0,0.0,0.0,0.0,0.0,0.0,0.0,0.0,0.0,0.0,0.0,0.0,0.0,0.0,0.0,0.0,0.0,0.0,0.0,0.0,0.0,0.0,0.0,0.0,0.0,0.0,0.0,0.0,0.0,0.0,0.0,0.0,0.0,0.0,0.0,0.0,0.0,0.0,0.0,0.0,0.0,0.0,0.0,0.0,0.0,0.0,0.0,0.0,0.0,0.0,0.0,0.0,0.0,0.0,0.0,0.0,0.0,0.0,0.0,0.0,0.0,0.0,0.0,0.0,0.0,0.0,0.0,0.0,0.0,0.0,0.0,0.0,0.0,0.0,0.0,0.0,0.0,0.0,0.0,0.0,0.0,0.0,0.0,0.0,0.0,0.0,0.0,0.0,0.0,0.0,0.0,0.0,0.0,0.0,0.0,0.0,0.0,0.0,0.0,0.0,0.0,0.0,0.0,0.0,0.0,0.0,0.0,0.0,0.0,0.0,0.0,0.0,0.0,0.0,0.0,0.0,0.0,0.0,0.0,0.0,0.0,0.0,0.0,0.0,0.0,0.0,0.0,0.0,0.0,0.0,0.0,0.0,0.0,0.0,0.0,0.0,0.0,0.0,0.0,0.0,0.0,0.0,0.0,0.0,0.0,0.0,0.0,0.0,0.0,0.0,0.0,0.0,0.0,0.0,0.0,0.0,0.0,0.0,0.0,0.0,0.0,0.0,0.0,0.0,0.0,0.0,0.0,0.0,0.0,0.0,0.0,0.0,0.0,0.0,0.0,0.0,0.0,0.0,0.0,0.0,0.0,0.0,0.0,0.0,0.0,0.0,0.0,0.0,0.0,0.0,0.0,0.0,0.0,0.0,0.0,0.0,0.0,0.0,0.0,0.0,0.0,0.0,0.0,0.0,0.0,0.0,0.0,0.0,0.0,0.0,0.0,0.0,0.0,0.0,0.0,0.0,0.0,0.0,0.0,0.0,0.0,0.0,0.0,0.0,0.0,0.0,0.0,0.0,0.0,0.0,0.0,0.0,0.0,0.0,0.0,0.0,0.0,0.0,0.0,0.0,0.0,0.0,0.0,0.0,0.0,0.0,0.0,0.0,0.0,0.0,0.0,0.0,0.0,0.0,0.0,0.0,0.0,0.0,0.0,0.0,0.0,0.0,0.0,0.0,0.0,0.0,0.0,0.0,0.0,0.0,0.0,0.0,0.0,0.0,0.0,0.0,0.0,0.0,0.0,0.0,0.0,0.0,0.0,0.0,0.0,0.0,0.0,0.0,0.0,0.0,0.0,0.0,0.0,0.0,0.0,0.0,0.0,0.0,0.0,0.0,0.0,0.0,0.0,0.0,0.0,0.0,0.0,0.0,0.0,0.0,0.0,0.0,0.0,0.0,0.0,0.0,0.0,0.0,0.0,0.0,0.0,0.0,0.0,0.0,0.0,0.0,0.0,0.0,0.0,0.0,0.0,0.0,0.0,0.0,0.0,0.0,0.0,0.0,0.0,0.0,0.0,0.0,0.0,0.0,0.0,0.0,0.0,0.0,0.0,0.0,0.0,0.0,0.0,0.0,0.0,0.0,0.0,0.0,0.0,0.0,0.0,0.0,0.0,0.0,0.0,0.0,0.0,0.0,0.0,0.0,0.0,0.0,0.0,0.0,0.0,0.0,0.0,0.0,0.0,0.0,0.0,0.0,0.0,0.0,0.0,0.0,0.0,0.0,0.0,0.0,0.0,0.0,0.0,0.0,0.0,0.0,0.0,0.0,0.0,0.0,0.0,0.0,0.0,0.0,0.0,0.0,0.0,0.0,0.0,0.0,0.0,0.0,0.0,0.0,0.0,0.0,0.0,0.0,0.0,0.0,0.0,0.0,0.0,0.0,0.0,0.0,0.0,0.0,0.0,0.0,0.0,0.0,0.0,0.0,0.0,0.0,0.0,0.0,0.0,0.0,0.0,0.0,0.0,0.0,0.0,0.0,0.0,0.0,0.0,0.0,0.0,0.0,0.0,0.0,0.0,0.0,0.0,0.0,0.0,0.0,0.0,0.0,0.0,0.0,0.0,0.0,0.0,0.0,0.0,0.0,0.0,0.0,0.0,0.0,0.0,0.0,0.0,0.0,0.0,0.0,0.0,0.0,0.0,0.0,0.0,0.0,0.0,0.0,0.0,0.0,0.0,0.0,0.0,0.0,0.0,0.0,0.0,0.0,0.0,0.0,0.0,0.0,0.0,0.0,0.0,0.0,0.0,0.0,0.0,0.0,0.0,0.0,0.0,0.0,0.0,0.0,0.0,0.0,0.0,0.0,0.0,0.0,0.0,0.0,0.0,0.0,0.0,0.0,0.0,0.0,0.0,0.0,0.0,0.0,0.0,0.0,0.0,0.0,0.0,0.0,0.0,0.0,0.0,0.0,0.0,0.0,0.0,0.0,0.0,0.0,0.0,0.0,0.0,0.0,0.0,0.0,0.0,0.0,0.0,0.0,0.0,0.0,0.0,0.0,0.0,0.0,0.0,0.0,0.0,0.0,0.0,0.0,0.0,0.0,0.0,0.0,0.0,0.0,0.0,0.0,0.0,0.0,0.0,0.0,0.0,0.0,0.0,0.0,0.0,-2.9816,0.0,0.0,0.0,0.0,0.0,0.0,0.0,0.0,0.0,0.0,0.0,0.0,0.0,0.0,0.0,0.0,0.0,0.0,0.0,0.0,0.0,0.0,0.0,0.0,0.0,0.0,0.0,0.0,0.0,0.0,0.0,0.0,0.0,0.0,0.0,0.0,0.0,0.0,0.0,0.0,0.0,0.0,0.0,0.0,0.0,0.0,0.0,0.0,0.0,0.0,0.0,0.0,0.0,0.0,0.0,0.0,0.0,0.0,0.0,0.0,0.0,0.0,0.0,0.0,0.0,0.0,0.0,0.0,0.0,0.0,0.0,0.0,0.0,0.0,0.0,0.0,0.0,0.0,0.0,0.0,0.0,0.0,0.0,0.0,0.0,0.0,0.0,0.0,0.0,0.0,0.0,0.0,0.0,0.0,0.0,0.0,0.0,0.0,0.0,0.0,0.0,0.0,0.0,0.0,0.0,0.0,0.0,0.0,0.0,0.0,0.0,0.0,0.0,0.0,0.0,0.0,-3.0765,0.0,0.0,0.0,0.0,0.0,0.0,0.0,0.0,0.0,0.0,0.0,0.0,0.0,0.0,0.0,0.0,0.0,0.0,0.0,0.0,0.0,0.0,0.0,0.0,0.0,0.0,0.0,0.0,0.0,0.0,0.0,0.0,0.0,0.0,0.0,0.0,0.0,0.0,0.0,0.0,0.0,0.0,0.0,0.0,0.0,0.0,0.0,0.0,0.0,0.0,0.0,0.0,0.0,0.0,0.0,0.0,0.0,0.0,0.0,0.0,0.0,0.0,0.0,0.0,0.0,0.0,0.0,0.0,0.0,0.0,0.0,0.0,0.0,0.0,0.0,0.0,0.0,0.0,0.0,0.0,0.0,0.0,0.0,0.0,0.0,0.0,0.0,0.0,0.0,0.0,0.0,0.0,0.0,0.0,0.0,0.0,0.0,0.0,0.0,0.0,0.0,0.0,0.0,0.0,0.0,0.0,0.0,0.0,-3.6719,-3.6944,-3.6952,-3.6952,-3.6502,-3.5644,-3.5386,-3.3974,-3.176,-3.0176,0.0,0.0,0.0,0.0,0.0,0.0,0.0,0.0,0.0,0.0,0.0,0.0,0.0,0.0,0.0,0.0,0.0,0.0,0.0,0.0,0.0,0.0,0.0,0.0,0.0,0.0,0.0,0.0,0.0,0.0,0.0,0.0,0.0,0.0,0.0,0.0,0.0,0.0,-3.6103,-3.6821,-3.7012,-3.67,-3.5508,0.0,0.0,0.0,0.0,0.0,0.0,0.0,0.0,0.0,0.0,0.0,0.0,0.0,0.0,0.0,0.0,0.0,0.0,0.0,0.0,0.0,0.0,0.0,0.0,0.0,0.0,0.0,0.0,0.0,0.0,0.0,0.0,0.0,0.0,0.0,0.0,0.0,0.0,0.0,0.0,0.0,0.0,0.0,-2.9894,-3.0564,0.0,0.0,0.0,0.0,0.0,0.0,0.0,0.0,0.0,0.0,0.0,0.0,0.0,-3.5396,-3.677,-3.9146,-4.0357,-4.0417,-4.3044,-4.3627,-4.2361,-4.2361,-4.16,-4.0307,-4.0256,0.0,-3.212,-3.0624,0.0,0.0,0.0,0.0,0.0,0.0,0.0,0.0,0.0,0.0,0.0,0.0,0.0,0.0,0.0,0.0,0.0,0.0,0.0,0.0,0.0,0.0,0.0,0.0,0.0,0.0,0.0,0.0,0.0,0.0,0.0,0.0,0.0,0.0,0.0,0.0,-3.6312,-3.8556,-3.9835,-4.0442,-4.0546,-4.0179,-3.9224,-3.7798,-3.6026,-3.4638,0.0,0.0,0.0,0.0,0.0,0.0,0.0,0.0,0.0,0.0,0.0,0.0,0.0,0.0,0.0,0.0,0.0,0.0,0.0,0.0,0.0,0.0,0.0,0.0,0.0,0.0,0.0,0.0,0.0,0.0,0.0,0.0,0.0,0.0,0.0,0.0,0.0,0.0,0.0,-2.9554,-3.0941,-2.9853,-3.134,-3.1585,0.0,0.0,0.0,0.0,0.0,0.0,0.0,0.0,0.0,-3.7514,-3.8595,-3.9654,-4.072,-4.2325,-4.3318,-4.3741,-4.5077,-4.5568,-4.5297,-4.4891,-4.3876,-4.2395,-4.1999,-3.9614,-3.5943,-3.4455,-3.3102,-3.1769,0.0,0.0,0.0,0.0,-2.9624,-2.9833,0.0,0.0,0.0,0.0,0.0,0.0,0.0,0.0,0.0,0.0,0.0,0.0,0.0,0.0,0.0,-3.1555,0.0,0.0,0.0,0.0,0.0,0.0,0.0,0.0,0.0,0.0,0.0,-3.6971,-4.0277,-4.2312,-4.3174,-4.3958,-4.4003,-4.3384,-4.2686,-4.0794,-3.7945,-3.5886,-3.4469,0.0,0.0,0.0,0.0,0.0,0.0,0.0,0.0,0.0,0.0,0.0,0.0,0.0,0.0,0.0,0.0,0.0,0.0,0.0,0.0,0.0,0.0,0.0,0.0,0.0,0.0,0.0,0.0,0.0,0.0,0.0,0.0,0.0,0.0,0.0,0.0,0.0,0.0,-3.0905,-3.2134,-3.0162,-3.283,-3.3592,0.0,0.0,0.0,0.0,0.0,0.0,-3.6152,-3.7652,-3.9157,-4.0663,-4.2303,-4.3521,-4.4265,-4.5043,-4.572,-4.6278,-4.6464,-4.6633,-4.6769,-4.6227,-4.5043,-4.3341,-4.2625,-4.1255,-3.9411,-3.7574,-3.5814,-3.4117,-3.2628,-3.1816,-3.1602,-3.2299,-3.2459,-3.2588,0.0,0.0,0.0,0.0,0.0,0.0,0.0,0.0,0.0,0.0,0.0,0.0,0.0,0.0,-3.1763,-3.4953,-3.4219,-3.32,0.0,0.0,0.0,0.0,0.0,0.0,0.0,0.0,0.0,-3.8287,-4.1624,-4.3883,-4.517,-4.6486,-4.6756,-4.6097,-4.5409,-4.3983,-4.1873,-3.8023,-3.636,-3.5959,0.0,0.0,0.0,0.0,0.0,0.0,0.0,0.0,0.0,0.0,0.0,0.0,0.0,0.0,0.0,0.0,0.0,0.0,0.0,0.0,0.0,0.0,0.0,0.0,0.0,0.0,0.0,0.0,0.0,0.0,0.0,0.0,0.0,0.0,0.0,0.0,0.0,0.0,0.0,-3.3857,-3.6717,0.0,0.0,0.0,0.0,-3.5312,-3.7438,-3.9317,-4.0798,-4.2243,-4.3775,-4.5314,-4.5483,-4.5872,-4.6616,-4.7378,-4.7736,-4.7787,-4.8511,-4.8122,-4.6786,-4.6752,-4.5517,-4.3341,-4.2625,-4.183,-4.0865,-3.7997,-3.6728,-3.6491,-3.4934,-3.4742,-3.5245,-3.4595,-3.4798,-3.5295,0.0,0.0,0.0,0.0,0.0,0.0,0.0,0.0,0.0,0.0,0.0,0.0,0.0,-3.2991,-3.5609,-3.7225,-3.8108,-3.7389,-3.4622,0.0,0.0,0.0,0.0,0.0,0.0,0.0,-3.7868,-4.0973,-4.3389,-4.5065,-4.5978,-4.6875,-4.7174,-4.692,-4.6262,-4.5943,-4.5653,-4.2073,-3.9916,-3.8678,-3.5694,-3.3039,0.0,0.0,0.0,0.0,0.0,0.0,0.0,0.0,0.0,0.0,0.0,0.0,0.0,0.0,0.0,0.0,0.0,0.0,0.0,0.0,0.0,0.0,0.0,0.0,0.0,0.0,0.0,0.0,0.0,0.0,0.0,0.0,0.0,0.0,0.0,0.0,0.0,-3.6922,-3.9832,0.0,-3.7313,-3.8108,-3.892,-3.9166,-4.0849,-4.2506,-4.4012,-4.5043,-4.6058,-4.706,-4.7581,-4.7733,-4.7513,-4.824,-4.8392,-4.7889,-4.8159,-4.8037,-4.7449,-4.5942,-4.455,-4.3244,-4.1493,-4.0614,-4.0215,-3.8253,-3.803,-3.8826,-3.7787,-3.755,-3.7702,-3.6958,-3.7161,-3.7686,0.0,0.0,0.0,0.0,0.0,0.0,0.0,0.0,0.0,0.0,0.0,-2.9678,-3.1314,-3.5235,-3.8322,-3.9738,-4.0371,-3.9448,-3.6455,0.0,0.0,0.0,0.0,0.0,0.0,-3.7751,-3.9828,-4.2755,-4.4451,-4.5768,-4.6666,-4.71,-4.7309,-4.7279,-4.7184,-4.7702,-4.853,-4.6397,-4.3893,-4.1091,-3.8261,-3.6086,-3.4119,0.0,0.0,0.0,0.0,0.0,0.0,0.0,0.0,0.0,0.0,0.0,0.0,0.0,0.0,0.0,0.0,0.0,0.0,0.0,0.0,0.0,0.0,0.0,0.0,0.0,0.0,0.0,0.0,0.0,0.0,0.0,0.0,0.0,0.0,0.0,-3.9025,-3.9042,-4.2311,-4.3386,-4.0392,-4.1694,-4.2726,-4.2726,-4.4096,-4.5353,-4.6397,-4.7141,-4.7767,-4.8274,-4.8748,-4.8781,-4.8261,-4.8765,-4.8646,-4.7889,-4.7889,-4.7481,-4.6653,-4.51,-4.3711,-4.2423,-4.0673,-3.9769,-3.9479,-3.8296,-3.8402,-3.9299,-3.9066,-3.9127,-3.9292,-3.8819,-3.8937,-3.9217,0.0,0.0,0.0,0.0,0.0,0.0,0.0,0.0,0.0,0.0,-2.6587,-2.9924,-3.317,-3.651,-3.9627,-4.2422,-4.0679,-3.8966,-3.7777,-3.4425,0.0,0.0,0.0,0.0,-3.6801,-3.9288,-4.1497,-4.3449,-4.4706,-4.6007,-4.7309,-4.7324,-4.7339,-4.7397,-4.8407,-4.9407,-5.0474,-5.0716,-4.8057,-4.3347,-3.9708,-3.9074,-3.9611,0.0,0.0,0.0,0.0,0.0,0.0,0.0,0.0,0.0,0.0,0.0,0.0,0.0,0.0,0.0,0.0,0.0,0.0,0.0,0.0,0.0,0.0,0.0,0.0,0.0,0.0,0.0,0.0,0.0,0.0,0.0,0.0,0.0,-3.4506,-3.8447,-4.1035,-4.035,-4.4181,-4.572,-4.2777,-4.4519,-4.5805,-4.5805,-4.7141,-4.7922,-4.7922,-4.8612,-4.9001,-4.9001,-4.9001,-4.8984,-4.8968,-4.8937,-4.8565,-4.7808,-4.7791,-4.6589,-4.436,-4.4344,-4.3108,-4.0942,-4.0159,-3.9471,-3.8843,-3.8051,-3.7764,-3.7863,-3.858,-3.9342,-4.002,-4.002,-4.0003,-3.9792,0.0,0.0,0.0,0.0,0.0,0.0,0.0,0.0,0.0,0.0,-2.8043,-3.1614,-3.3979,-3.815,-4.1105,-4.1835,-4.1039,-3.9655,-3.7762,0.0,0.0,0.0,0.0,0.0,-4.2503,-4.3297,-4.4029,-4.4766,-4.5618,-4.6471,-4.7309,-4.7803,-4.8267,-4.879,-4.927,-5.0128,-5.1156,-5.1467,-5.0916,-4.949,-4.5266,-4.2485,-4.0367,0.0,0.0,0.0,0.0,0.0,0.0,0.0,0.0,0.0,0.0,0.0,0.0,0.0,0.0,0.0,0.0,0.0,0.0,0.0,0.0,0.0,0.0,0.0,0.0,0.0,0.0,0.0,0.0,0.0,0.0,0.0,0.0,-3.7347,-3.7009,-4.0341,-4.3122,-4.4062,-4.6667,-4.8071,-4.7242,-4.7716,-4.8105,-4.8105,-4.8477,-4.8714,-4.8714,-4.89,-4.9001,-4.9001,-4.9001,-4.8748,-4.8193,-4.7584,-4.6884,-4.6153,-4.5607,-4.4708,-4.3444,-4.2895,-4.1965,-4.0702,-3.8875,-3.8292,-3.8543,-3.686,-3.6784,-3.7822,-3.8035,-3.8234,-3.843,-3.843,-3.8116,-3.759,0.0,0.0,0.0,0.0,0.0,0.0,0.0,0.0,0.0,0.0,-2.8147,-3.1804,-3.4653,-3.8457,-4.0956,-4.1273,-4.0769,-3.9179,-3.6211,0.0,0.0,0.0,0.0,-4.3145,-4.5259,-4.5588,-4.6145,-4.7015,-4.6951,-4.7403,-4.8344,-4.8291,-4.8641,-4.9314,-4.9638,-5.0164,-5.0793,-5.1576,-5.1976,-5.1932,-4.9453,-4.7127,-4.4614,-4.0192,-3.8253,-3.7479,-3.4264,-3.3526,-3.371,-3.1548,0.0,0.0,0.0,0.0,0.0,0.0,0.0,0.0,0.0,0.0,0.0,0.0,0.0,0.0,0.0,0.0,0.0,0.0,0.0,0.0,0.0,0.0,0.0,0.0,-3.8345,-4.0561,-4.1102,-4.3284,-4.528,-4.6498,-4.8037,-4.9001,-4.9001,-4.9001,-4.9001,-4.9001,-4.9001,-4.8829,-4.8433,-4.8401,-4.8401,-4.8401,-4.8047,-4.7816,-4.7782,-4.6898,-4.6076,-4.5326,-4.4626,-4.3654,-4.2489,-4.1794,-4.0823,-3.9646,-3.808,-3.7511,-3.761,-3.6105,-3.6022,0.0,0.0,0.0,0.0,0.0,-3.7141,-3.6197,0.0,0.0,0.0,0.0,0.0,0.0,0.0,0.0,0.0,0.0,0.0,-3.093,-3.4699,-3.7623,-3.9598,-4.0471,-3.9962,-3.8026,0.0,0.0,0.0,-3.9876,-4.2618,-4.4865,-4.6513,-4.7133,-4.8148,-4.9512,-4.8451,-4.8537,-4.9764,-4.8823,-4.8745,-4.9434,-4.9837,-5.0038,-5.0102,-5.1539,-5.2116,-5.2175,-5.2454,-5.173,-4.9878,-4.377,-4.1987,-4.2103,-3.7491,-3.516,-3.4143,-3.326,0.0,0.0,0.0,0.0,0.0,0.0,0.0,0.0,0.0,0.0,0.0,0.0,0.0,0.0,0.0,0.0,0.0,0.0,0.0,0.0,0.0,0.0,0.0,0.0,-4.1288,-4.3538,-4.5652,-4.6583,-4.7259,-4.7821,-4.8562,-4.9035,-4.912,-4.912,-4.912,-4.912,-4.9027,-4.8565,-4.7671,0.0,0.0,0.0,0.0,-4.6592,-4.744,-4.6459,-4.5569,-4.4814,-4.4147,-4.2987,-4.141,-4.095,-3.9902,-3.8467,-3.7719,-3.7105,-3.6537,-3.5804,-3.5504,-3.5569,-3.6228,-3.6919,-3.7531,-3.7531,-3.666,-3.5396,0.0,0.0,0.0,0.0,0.0,0.0,0.0,0.0,0.0,-2.352,-2.6707,-2.9667,-3.1944,-3.5228,-3.7559,-3.8264,-3.8273,-3.7671,0.0,0.0,-3.7554,-4.2444,-4.4747,-4.7149,-4.981,-5.0566,-5.0702,-5.0205,-4.9132,-4.9001,-4.9764,-4.9336,-4.9434,-5.0093,-5.1004,-5.1435,-5.1502,-5.2958,-5.3597,-5.3622,-5.4,-5.2019,-4.8538,-4.5587,-4.331,-4.1339,-3.8782,-3.8362,-3.8721,-3.6477,-3.6192,-3.6316,-3.3607,0.0,0.0,0.0,0.0,0.0,0.0,0.0,0.0,0.0,0.0,0.0,0.0,0.0,0.0,0.0,0.0,0.0,0.0,0.0,0.0,-4.1176,-4.4045,-4.6295,-4.7344,-4.8122,-4.8409,-4.7939,-4.8562,-4.9238,-4.9813,-4.9881,-4.9881,-4.9881,-4.9191,-4.8431,-4.7655,-4.6884,-4.6454,-4.6454,-4.6279,-4.6279,-4.6454,-4.4977,-4.3914,-4.3243,0.0,0.0,-3.9862,-4.0424,-4.0128,-3.9155,-3.7943,-3.7345,-3.715,-3.5983,-3.5504,-3.5504,-3.5651,-3.5814,-3.5941,-3.5941,-3.5407,-3.4602,0.0,0.0,0.0,0.0,0.0,0.0,0.0,0.0,0.0,0.0,-2.4866,-2.6983,-2.9341,-3.1668,-3.3246,-3.3713,-3.3754,0.0,0.0,-3.6817,-3.9292,-4.3962,-4.653,-4.8961,-5.1292,-5.1723,-5.1938,-5.1954,-5.0397,-5.0095,-5.102,-4.9872,-4.9793,-5.072,-5.0895,-5.0999,-5.1117,-5.2603,-5.3266,-5.3278,-5.3636,-5.2567,-5.0432,-4.7809,-4.6011,-4.4434,-4.1088,-4.0396,-4.0725,-3.8266,-3.7432,-3.6983,-3.4733,-3.3065,-3.1574,0.0,0.0,0.0,0.0,0.0,0.0,0.0,0.0,0.0,0.0,0.0,0.0,0.0,0.0,-3.4295,0.0,0.0,-4.1046,-4.287,-4.513,-4.6849,-4.7474,-4.7572,-4.7817,-4.8371,-4.8781,-4.9137,-4.9509,-4.9543,-4.9543,-4.9543,-4.8661,-4.78,-4.6934,-4.6012,-4.5488,-4.5488,-4.5011,-4.4974,-4.5488,-4.4178,-4.3213,-4.258,-4.1888,-4.0958,-3.9888,-4.0016,-3.9793,-3.9328,-3.8347,-3.7719,-3.7315,-3.6028,-3.5504,-3.5504,-3.5504,-3.5504,-3.5504,-3.5504,-3.5295,-3.4891,0.0,0.0,0.0,0.0,0.0,0.0,0.0,0.0,0.0,0.0,-2.2951,-2.4319,-2.6711,-2.7974,-2.883,0.0,0.0,0.0,0.0,-3.7716,-4.086,-4.5468,-4.7898,-5.0094,-5.2172,-5.2189,-5.2505,-5.3195,-5.1429,-5.1008,-5.1769,-5.0216,-5.0017,-5.1005,-5.0569,-5.0375,-5.0468,-5.1945,-5.2513,-5.2419,-5.2965,-5.3008,-5.2474,-4.9503,-4.8152,-4.7262,-4.2947,-4.1204,-4.0674,-3.8973,-3.7464,-3.6133,-3.5207,-3.3963,-3.2512,-3.0537,-2.94,0.0,0.0,0.0,0.0,0.0,0.0,0.0,0.0,0.0,-3.1971,-3.4248,-3.5886,-3.7374,-3.8922,-4.1294,-4.3298,-4.4093,-4.5565,-4.6726,-4.6961,-4.6633,-4.6844,-4.8105,-4.8381,-4.8482,-4.8482,-4.8567,-4.8601,-4.8482,-4.7721,-4.6892,-4.5977,-4.5042,-4.451,-4.451,-4.3732,-4.3708,-4.451,-4.3572,-4.2821,-4.2201,-4.1677,-4.0965,-4.0187,-3.9783,-3.9508,-3.9343,-3.8691,-3.7943,-3.715,-3.6118,-3.5624,-3.5504,-3.5504,-3.5504,-3.5504,-3.5504,-3.5504,-3.54,0.0,0.0,0.0,0.0,0.0,0.0,0.0,0.0,0.0,0.0,0.0,0.0,0.0,0.0,0.0,0.0,0.0,0.0,-3.6522,-3.7815,-4.1407,-4.806,-4.844,-4.9991,-5.323,-5.3314,-5.2904,-5.2082,-5.1561,-5.0889,-5.0097,-5.0108,-5.0166,-5.0315,-5.0885,-5.1109,-5.1188,-5.233,-5.2486,-5.2079,-5.3389,-5.3136,-5.1747,-4.9309,-4.7479,-4.5748,-4.2531,-3.9871,-3.7931,-3.8277,-3.715,-3.5684,-3.6133,-3.5372,-3.3858,-3.1898,0.0,-2.9487,-2.9412,-2.9864,-3.0687,-3.1884,-3.1285,-3.1829,0.0,0.0,-3.5857,-3.9123,-3.9405,-3.9541,-4.1055,-4.2167,-4.3301,-4.4737,-4.6192,-4.6933,-4.6401,-4.6745,-4.6705,-4.5749,-4.6152,-4.6523,-4.6523,-4.7103,-4.7216,-4.6571,-4.626,-4.5741,-4.5014,-4.4028,-4.3488,-4.3488,-4.3369,-4.3369,-4.3488,-4.2824,-4.2186,-4.1527,-4.1452,-4.0726,-3.9544,-4.0053,-3.9963,-3.9343,-3.8691,-3.7704,-3.6582,-3.6432,-3.6028,-3.5504,-3.5504,-3.5504,-3.5504,-3.5504,-3.5504,-3.54,0.0,0.0,0.0,0.0,0.0,0.0,0.0,0.0,0.0,0.0,0.0,0.0,0.0,0.0,0.0,0.0,0.0,0.0,-3.4873,-3.8427,-4.2896,-4.8494,-4.9433,-5.0973,-5.345,-5.3501,-5.3264,-5.2835,-5.148,-5.0778,-5.0695,-4.9613,-4.9508,-5.0196,-5.048,-5.0808,-5.1246,-5.2395,-5.2513,-5.1918,-5.2122,-5.177,-5.0671,-4.687,-4.4418,-4.276,-4.0489,-3.8791,0.0,0.0,-3.5011,-3.4322,-3.4218,-3.3529,-3.2452,-3.0866,-3.0268,0.0,-3.1539,0.0,0.0,0.0,-3.4951,-3.5767,-3.83,-3.8306,-3.8407,-4.0601,-4.1106,-4.1438,-4.2448,-4.3352,-4.4124,0.0,-4.559,-4.6184,-4.5735,-4.5257,-4.4594,-4.3698,-4.3482,-4.3982,-4.5464,-4.624,-4.6529,-4.6224,-4.5625,-4.5261,-4.5316,-4.4046,-4.3469,-4.3858,-4.3484,-4.329,-4.329,-4.2686,-4.2261,-4.1991,-4.1602,-4.0891,-3.9993,-4.0277,-4.0038,-3.9343,-3.8691,-3.8093,-3.7569,-3.718,-3.6641,-3.6073,-3.6073,-3.5833,-3.5504,-3.5504,-3.5504,-3.5459,0.0,0.0,0.0,0.0,0.0,0.0,0.0,0.0,0.0,0.0,0.0,0.0,0.0,0.0,0.0,0.0,0.0,0.0,0.0,-3.8184,-4.3177,-4.8265,-4.962,-5.1155,-5.3112,-5.3399,-5.323,-5.2644,-5.1328,-5.0644,-5.0508,-4.9189,-4.906,-4.9972,-5.0121,-5.0465,-5.0991,-5.1789,-5.178,-5.1118,-5.0553,-4.9759,-4.852,-4.4665,-4.1816,-3.966,-3.8145,-3.6851,0.0,0.0,-3.2706,-3.2392,-3.2287,-3.1884,-3.1316,-3.0387,-3.0567,-3.133,-3.2602,0.0,0.0,-3.6282,-3.7853,-3.9215,-3.9215,-3.9738,-4.0546,-4.1683,-4.2201,-4.2545,-4.297,-4.3654,-4.4121,-4.4048,-4.4889,-4.5462,-4.5098,-4.4047,-4.303,-4.2231,-4.1354,-4.1635,-4.3663,-4.4496,-4.4948,-4.5137,-4.4673,-4.4573,-4.5018,-4.4116,-4.3693,-4.3992,-4.3544,-4.329,-4.329,-4.2686,-4.2396,-4.2396,-4.1916,-4.1309,-4.0666,-4.0487,-4.0038,-3.9358,-3.8901,-3.8556,-3.8347,-3.7883,-3.7058,-3.6111,-3.6111,-3.5528,-3.4706,-3.4706,-3.5034,-3.5504,0.0,0.0,0.0,0.0,0.0,0.0,0.0,0.0,0.0,0.0,0.0,0.0,0.0,0.0,0.0,0.0,0.0,0.0,0.0,-3.6618,-4.1443,-4.7663,-4.8446,-4.9875,-5.2267,-5.3112,-5.2487,-5.0474,-5.1085,-5.037,-4.8429,-4.897,-4.9299,-4.9359,-4.9957,-5.0196,-5.0226,-5.0272,-4.9928,-4.9344,-4.9002,-4.7291,-4.4803,-4.3433,-4.0458,-3.6892,-3.5937,0.0,0.0,0.0,-3.0746,-2.9924,-3.1137,-3.1525,0.0,-3.1451,-3.1914,0.0,0.0,0.0,-3.718,-3.6626,-3.8901,-4.1332,-4.1332,-4.1841,-4.25,-4.3095,-4.2791,-4.241,-4.2425,-4.2464,-4.2635,-4.3254,-4.4436,-4.5076,-4.4421,-4.3723,-4.2811,-4.1564,-4.0262,-3.9738,0.0,-4.1153,-4.1813,-4.2481,-4.3049,-4.3344,-4.3359,-4.3943,-4.4003,-4.3349,-4.3305,-4.329,-4.329,-4.2686,-4.2396,-4.2396,-4.2381,-4.2021,-4.1324,-4.0696,-4.0038,-3.9388,-3.9394,-3.9005,-3.8392,-3.8362,-3.7068,-3.5047,-3.5047,-3.4072,-3.2678,-3.2678,-3.3871,-3.5504,0.0,0.0,0.0,0.0,0.0,0.0,0.0,0.0,0.0,0.0,0.0,0.0,0.0,0.0,0.0,0.0,0.0,0.0,0.0,-3.5034,-3.9241,-4.329,-4.58,-4.7503,-4.8371,-4.9531,-4.9778,-4.9064,-4.8636,-4.8251,-4.7972,-4.7518,-4.7773,-4.8626,-4.885,-4.9194,-4.9583,-4.9583,-4.9209,-4.8506,-4.706,-4.5455,-4.3592,-4.09,-3.7737,-3.4486,0.0,0.0,0.0,0.0,-2.8633,-2.8349,-2.8798,0.0,0.0,-3.0987,-3.2273,-3.3589,-3.5549,0.0,-3.9649,-4.0756,-4.1863,-4.2791,-4.3225,-4.2821,-4.2336,-4.2087,-4.116,-4.0277,-3.985,-3.976,-4.0382,-4.2372,-4.3419,-4.4212,-4.487,-4.4407,-4.3015,-4.0382,-4.0068,0.0,0.0,0.0,0.0,-4.2321,-4.297,-4.3678,-4.4586,-4.4436,-4.4407,-4.4631,-4.3738,-4.329,-4.329,-4.2686,-4.262,-4.3,-4.2132,-4.1632,-4.1339,-4.0247,-3.9239,-3.8345,-3.8345,-3.7812,-3.695,-3.695,-3.6038,-3.4615,-3.4615,-3.3782,-3.2593,-3.2593,-3.2996,-3.3581,0.0,0.0,0.0,0.0,0.0,0.0,0.0,0.0,0.0,0.0,0.0,0.0,0.0,0.0,0.0,0.0,0.0,0.0,0.0,0.0,-3.584,-3.916,-4.1736,-4.3347,-4.3879,-4.499,-4.5621,-4.5762,-4.5091,-4.5155,-4.5843,-4.5197,-4.5603,-4.686,-4.686,-4.7234,-4.7818,-4.7339,-4.677,-4.602,-4.3733,-4.1923,-4.0262,-3.7389,-3.4547,0.0,0.0,0.0,0.0,0.0,0.0,0.0,0.0,-2.8408,-2.9729,-3.163,-3.3499,-3.5504,-3.8347,-4.0247,-4.1803,-4.3275,-4.4007,-4.4351,-4.4332,-4.3299,-4.2141,-4.1205,-3.9619,-3.8242,-3.7793,-3.7315,-3.7868,-4.0554,-4.1504,-4.2512,-4.4347,-4.3823,-4.2656,-4.0973,-4.0561,-3.9993,0.0,0.0,0.0,-4.1991,-4.306,-4.4007,-4.49,-4.4766,-4.4751,-4.4945,-4.3858,-4.329,-4.329,-4.2925,-4.2698,-4.267,-4.2267,-4.1418,-4.0202,-3.973,-3.8693,-3.7228,-3.7228,-3.6852,-3.6184,-3.5977,-3.5121,-3.3873,-3.3693,-3.279,-3.1586,-3.1586,-3.1586,-3.1696,0.0,0.0,0.0,0.0,0.0,0.0,0.0,0.0,0.0,0.0,0.0,0.0,0.0,0.0,0.0,0.0,0.0,0.0,0.0,0.0,0.0,-3.5349,-3.6541,-3.7716,-3.9014,-3.9819,-4.0399,-4.0722,-4.0722,-4.1208,-4.2096,-4.2096,-4.2761,-4.4003,-4.3973,-4.4332,-4.4855,-4.3529,-4.2671,-4.1916,-3.9245,-3.7056,-3.517,-3.3154,0.0,0.0,0.0,0.0,0.0,0.0,0.0,0.0,0.0,-3.0088,-3.2811,-3.3529,-3.5609,-3.8093,-4.0068,-4.2043,-4.3648,-4.4302,-4.5379,-4.5876,-4.4571,-4.3165,-4.1811,-4.0427,-3.8063,-3.6222,-3.6193,-3.5222,-3.5267,-3.7913,-3.9005,-4.0442,-4.3021,-4.2402,-4.2058,0.0,0.0,0.0,0.0,0.0,0.0,-4.1489,0.0,-4.4302,-4.4407,-4.4945,-4.4975,-4.4392,-4.3648,-4.325,-4.321,-4.317,-4.2589,-4.1545,-4.253,-4.1317,-3.8131,-3.9164,-3.8334,-3.6119,-3.6119,-3.6079,-3.5998,-3.5501,-3.4329,-3.2895,-3.2341,-3.1177,-2.9792,-2.9792,-2.9792,-3.0037,0.0,0.0,0.0,0.0,0.0,0.0,0.0,0.0,0.0,0.0,0.0,0.0,0.0,0.0,0.0,0.0,0.0,0.0,0.0,0.0,0.0,0.0,0.0,0.0,0.0,0.0,0.0,0.0,0.0,-3.7288,-3.8023,-3.8023,-3.8661,-3.9873,-3.9394,-3.9529,-4.0098,-3.9275,-3.8826,-3.8482,0.0,-3.4854,-3.3721,0.0,0.0,0.0,0.0,0.0,0.0,0.0,0.0,0.0,0.0,-3.326,-3.5055,-3.6671,-3.9056,-4.1452,-4.291,-4.4766,-4.6337,-4.6501,-4.6037,-4.52,-4.3843,-4.1414,-3.8901,-3.712,-3.4651,-3.2602,-3.2123,-3.2572,-3.4038,-3.715,-3.9469,0.0,-4.4421,-4.4945,0.0,-4.3424,0.0,-4.2267,-4.1459,-4.2267,0.0,0.0,-4.326,-4.4201,-4.5696,-4.502,-4.4706,-4.5035,-4.3888,-4.29,-4.2029,-4.1183,-4.0618,-4.0318,-3.9676,-3.8906,-3.8076,-3.7432,-3.6356,-3.5088,-3.5088,-3.4622,-3.3885,-3.3756,-3.2947,-3.1807,-3.1667,-3.0873,-2.9792,-2.9792,-2.9792,-2.9869,0.0,0.0,0.0,0.0,0.0,0.0,0.0,0.0,0.0,0.0,0.0,0.0,0.0,0.0,0.0,0.0,0.0,0.0,0.0,0.0,0.0,0.0,0.0,0.0,0.0,0.0,0.0,0.0,0.0,0.0,0.0,-3.3858,-3.4562,-3.5789,-3.513,-3.5355,-3.6178,0.0,0.0,0.0,0.0,0.0,0.0,0.0,0.0,0.0,0.0,0.0,0.0,0.0,0.0,-3.3544,-3.4502,-3.6118,-3.8033,-4.0008,0.0,-4.4003,-4.5618,-4.7085,-4.8102,-4.7803,-4.6741,-4.517,-4.297,-4.0127,-3.724,-3.4711,-3.2317,0.0,-3.0163,-3.0717,-3.2108,0.0,0.0,0.0,-4.3165,-4.4407,-4.4769,0.0,-4.4197,0.0,-4.2357,-4.3419,-4.4197,0.0,-4.4441,-4.4964,-4.5828,-4.5155,-4.4781,-4.487,-4.3379,-4.1988,-4.0873,-4.0232,-3.9623,-3.9081,-3.8649,-3.782,-3.6595,-3.614,-3.5205,-3.3995,0.0,-3.367,-3.3056,-3.2805,-3.2177,-3.1361,-3.1135,-3.0532,-2.9792,-2.9792,-2.9792,-2.9792,0.0,0.0,0.0,0.0,0.0,0.0,0.0,0.0,0.0,0.0,0.0,0.0,0.0,0.0,0.0,0.0,0.0,0.0,0.0,0.0,0.0,0.0,0.0,0.0,0.0,0.0,0.0,0.0,0.0,0.0,0.0,0.0,0.0,0.0,0.0,0.0,0.0,0.0,0.0,0.0,0.0,0.0,0.0,0.0,0.0,0.0,0.0,0.0,0.0,0.0,-3.4556,-3.5432,-3.6926,-3.902,-4.1309,-4.3329,-4.4751,-4.6082,-4.7923,-4.894,-4.9254,-4.8476,-4.716,-4.5185,-4.1878,-3.8856,-3.5848,-3.2647,0.0,-2.9112,-2.9202,-2.9352,-3.0178,-3.2422,0.0,-3.7793,-4.1175,-4.2776,-4.4018,-4.5155,-4.5289,-4.4811,-4.3544,-4.4496,-4.517,-4.517,-4.5704,-4.5913,-4.5589,-4.518,-4.4552,-4.3719,-4.2056,-4.0646,-3.9681,-3.9505,-3.8917,-3.788,-3.826,-3.713,-3.47,-3.5102,-3.4503,-3.3124,-3.3124,-3.3124,-3.3074,-3.2541,-3.2001,-3.1449,-3.0922,-3.0382,-2.9892,-2.9817,-2.9792,-2.9792,0.0,0.0,0.0,0.0,0.0,0.0,0.0,0.0,0.0,0.0,0.0,0.0,0.0,0.0,0.0,0.0,0.0,0.0,0.0,0.0,0.0,0.0,0.0,0.0,0.0,0.0,0.0,0.0,0.0,0.0,0.0,0.0,0.0,0.0,0.0,0.0,0.0,0.0,0.0,0.0,0.0,0.0,0.0,0.0,0.0,0.0,0.0,0.0,0.0,0.0,-3.577,-3.899,-4.1429,-4.2865,-4.4032,-4.6037,-4.716,-4.7967,-4.8895,-4.9568,-4.9732,-4.8581,-4.6456,-4.3808,-4.0516,-3.6447,0.0,0.0,-2.7694,-2.6467,-2.7006,-2.8023,-2.9939,-3.3575,0.0,0.0,0.0,0.0,-4.5035,0.0,0.0,0.0,0.0,0.0,0.0,0.0,-4.4613,-4.5391,-4.6877,-4.4464,-4.2337,-4.0715,-3.9401,-3.859,-3.8424,-3.7461,-3.6896,-3.6696,-3.5851,-3.5194,-3.4688,-3.3889,-3.3359,-3.3124,-3.3124,0.0,-3.3111,-3.3011,-3.2591,-3.2014,-3.1474,-3.0934,-3.0419,-2.9955,-2.9792,-2.9792,0.0,0.0,0.0,0.0,0.0,0.0,0.0,0.0,0.0,0.0,0.0,0.0,0.0,0.0,0.0,0.0,0.0,0.0,0.0,0.0,0.0,0.0,0.0,0.0,0.0,0.0,0.0,0.0,0.0,0.0,0.0,0.0,0.0,0.0,0.0,0.0,0.0,0.0,0.0,0.0,0.0,0.0,0.0,0.0,0.0,0.0,0.0,0.0,0.0,0.0,-3.4674,-3.8391,-4.2142,-4.4032,-4.5155,-4.6815,-4.7773,-4.8506,-4.9508,-5.0242,-5.0436,-4.9119,-4.6531,-4.315,-3.8759,0.0,0.0,0.0,-2.547,-2.4829,-2.5492,0.0,0.0,0.0,0.0,0.0,0.0,0.0,0.0,0.0,0.0,0.0,0.0,0.0,0.0,0.0,-4.2819,-4.3567,-4.4788,-4.251,-4.0524,-3.9019,-3.8424,-3.7802,-3.7243,-3.6675,-3.6405,-3.6392,-3.524,-3.468,-3.4675,-3.3583,-3.3124,-3.3124,-3.3124,-3.3124,-3.3124,-3.3124,-3.2729,-3.2152,-3.1599,-3.1072,-3.0557,-2.9993,-2.9792,-2.9792,0.0,0.0,0.0,0.0,0.0,0.0,0.0,0.0,-2.6708,-2.9162,-2.8849,-2.7838,-2.6366,-2.4643,0.0,0.0,0.0,0.0,0.0,0.0,0.0,0.0,0.0,0.0,0.0,0.0,0.0,0.0,0.0,0.0,0.0,0.0,0.0,0.0,0.0,0.0,0.0,0.0,0.0,0.0,0.0,0.0,0.0,0.0,0.0,0.0,0.0,0.0,0.0,0.0,-3.2481,-3.5718,-4.0009,-4.3001,-4.511,-4.6322,-4.7444,-4.8566,-4.9837,-5.0569,-5.069,-4.9374,-4.6209,-4.2115,-3.7186,-3.2767,0.0,0.0,-2.3749,-2.3479,-2.4155,0.0,-2.6961,0.0,0.0,0.0,0.0,0.0,0.0,0.0,0.0,0.0,0.0,0.0,0.0,0.0,-4.0869,-4.1249,-4.1836,-4.0503,-3.9096,-3.7769,-3.7756,-3.7322,-3.6405,-3.6405,-3.6355,-3.6216,-3.519,-3.4663,-3.4512,-3.3533,-3.3124,-3.3124,-3.3124,-3.3124,-3.3124,-3.3124,-3.2664,-3.1965,-3.1567,-3.0838,-2.9975,-2.9574,-2.9349,-2.9199,0.0,0.0,0.0,0.0,0.0,0.0,0.0,0.0,-2.7655,-3.0598,-3.0397,-2.9793,-2.9253,-2.6755,0.0,0.0,0.0,0.0,0.0,0.0,0.0,0.0,0.0,0.0,0.0,0.0,0.0,-2.3595,-2.367,0.0,0.0,0.0,0.0,0.0,0.0,0.0,0.0,0.0,0.0,0.0,0.0,0.0,0.0,0.0,0.0,0.0,0.0,0.0,0.0,0.0,0.0,-3.1418,-3.4311,-3.9018,-4.3618,-4.4377,0.0,0.0,-4.9837,-5.024,-4.9971,-4.8701,-4.4391,-3.959,-3.6183,0.0,0.0,-2.4098,-2.2705,-2.209,-2.2745,-2.302,-2.4126,0.0,0.0,0.0,0.0,0.0,0.0,0.0,0.0,0.0,0.0,0.0,0.0,-4.0023,-3.9038,-3.8738,-3.9387,-3.9281,-3.8385,-3.6593,-3.6534,-3.6499,-3.6405,-3.6405,-3.6107,-3.5571,-3.4969,-3.4462,-3.396,-3.3357,-3.3124,-3.3124,-3.3124,-3.3124,0.0,-3.3124,-3.2389,-3.1321,-3.136,-3.0061,-2.818,-2.8209,-2.7865,-2.7318,0.0,0.0,0.0,0.0,0.0,0.0,0.0,0.0,-2.7435,-3.1362,-3.0876,-3.0196,-3.0187,-2.8116,0.0,0.0,0.0,0.0,0.0,0.0,0.0,0.0,0.0,0.0,0.0,0.0,0.0,-2.4201,-2.4201,0.0,0.0,0.0,0.0,0.0,0.0,-2.4403,0.0,0.0,0.0,0.0,0.0,0.0,0.0,0.0,0.0,0.0,0.0,0.0,0.0,0.0,0.0,0.0,-2.9845,-3.3244,0.0,0.0,-4.3554,-4.5768,-4.7893,-4.9045,-4.9329,-4.8027,-4.3877,-3.9127,-3.5468,0.0,-2.5131,-2.2812,-2.1394,-2.0761,-2.1435,-2.1895,-2.2818,0.0,0.0,0.0,0.0,0.0,0.0,0.0,0.0,0.0,0.0,0.0,0.0,-3.8351,-3.7516,-3.7206,-3.7471,-3.7484,-3.716,-3.6417,-3.6405,-3.6405,-3.6405,-3.6031,-3.5768,-3.5495,-3.465,-3.411,-3.3884,-3.3332,-3.3124,-3.3124,-3.3124,-3.3124,0.0,-3.2283,-3.1645,-3.1071,-2.9801,-2.8706,-2.7848,-2.733,-2.7107,-2.7082,0.0,0.0,0.0,0.0,0.0,0.0,-2.4966,-2.5456,-2.6979,-3.0821,-3.0179,-2.9498,-2.9894,-2.8014,-2.5764,0.0,0.0,0.0,0.0,0.0,0.0,0.0,0.0,0.0,0.0,0.0,0.0,-2.4513,-2.4967,-2.5295,0.0,0.0,-2.5083,-2.4874,0.0,0.0,0.0,0.0,0.0,0.0,0.0,0.0,0.0,0.0,0.0,0.0,0.0,0.0,0.0,0.0,0.0,0.0,0.0,0.0,0.0,0.0,-4.0591,-4.3254,-4.5529,-4.71,-4.7729,-4.6085,-4.1968,-3.7395,0.0,0.0,-2.3923,-2.1926,-2.0589,-1.9952,-2.0421,-2.0898,-2.1602,0.0,0.0,-2.497,0.0,0.0,0.0,0.0,0.0,0.0,0.0,0.0,-3.7899,-3.7258,-3.6719,-3.6405,-3.6405,-3.6405,-3.6405,-3.6405,-3.6405,-3.6405,-3.6405,-3.5818,-3.542,-3.5245,-3.4512,-3.3972,-3.3646,-3.342,-3.3232,-3.3068,-3.2698,-3.2754,0.0,-3.1323,-3.0676,-3.0481,-2.8617,-2.7491,-2.68,-2.62,-2.6061,-2.6109,0.0,0.0,0.0,0.0,0.0,0.0,0.0,0.0,-2.6437,-2.8739,-2.8033,-2.7603,0.0,0.0,0.0,0.0,0.0,0.0,0.0,0.0,0.0,0.0,0.0,0.0,0.0,0.0,0.0,-2.4305,-2.5825,-2.6149,-2.5323,-2.6174,-2.6228,-2.56,0.0,0.0,0.0,0.0,0.0,0.0,0.0,0.0,0.0,0.0,0.0,0.0,0.0,0.0,0.0,0.0,0.0,0.0,0.0,0.0,0.0,0.0,-3.7828,-4.1698,-4.306,-4.4362,-4.4798,-4.2517,-3.8049,-3.3406,0.0,0.0,-2.2159,-2.1606,-2.0589,-1.9798,-1.9798,-1.9811,-2.0201,-2.1333,-2.2682,0.0,0.0,0.0,0.0,0.0,0.0,0.0,0.0,0.0,-3.6644,-3.7149,-3.6719,0.0,-3.6405,-3.6405,-3.6405,-3.6405,-3.6405,-3.6405,-3.6405,-3.5818,-3.5219,-3.4726,-3.468,-3.4135,-3.3149,-3.3646,-3.3596,-3.3025,-3.1777,-3.1921,0.0,-3.0463,-2.9407,-2.9306,-2.832,-2.6475,-2.449,-2.4712,-2.4421,-2.3775,0.0,0.0,0.0,0.0,0.0,0.0,0.0,0.0,-2.4154,-2.6387,-2.5679,0.0,0.0,0.0,0.0,0.0,0.0,0.0,0.0,0.0,0.0,0.0,0.0,0.0,0.0,0.0,0.0,-2.4986,-2.5416,-2.5936,-2.6453,-2.642,-2.6039,-2.5375,-2.5059,0.0,0.0,0.0,0.0,0.0,0.0,0.0,0.0,0.0,0.0,0.0,0.0,0.0,0.0,0.0,0.0,0.0,0.0,0.0,0.0,0.0,0.0,0.0,-3.737,-3.8333,-3.8496,-3.6576,-3.3667,-3.0644,-2.8136,-2.4845,-2.2046,-2.1144,-2.0352,-1.9798,-1.9798,-1.9798,-2.03,-2.1807,-2.2731,0.0,0.0,0.0,0.0,0.0,0.0,0.0,0.0,0.0,-3.6631,-3.7149,-3.6719,-3.6405,-3.6405,-3.6405,-3.6405,-3.6405,-3.6405,-3.6405,-3.6405,-3.5441,-3.4856,-3.4668,-3.396,-3.299,-3.1833,-3.2002,-3.1523,-3.0553,-3.0135,-3.0181,-3.0428,-2.8503,-2.7696,-2.7508,-2.5775,-2.4641,-2.3961,-2.3726,-2.3707,-2.3769,0.0,0.0,0.0,0.0,0.0,0.0,0.0,0.0,-2.2888,-2.456,-2.3619,0.0,0.0,0.0,0.0,0.0,0.0,0.0,0.0,0.0,0.0,0.0,0.0,0.0,0.0,0.0,-2.4209,-2.553,-2.5813,-2.6405,-2.7228,-2.7245,-2.644,-2.4958,-2.4646,0.0,0.0,0.0,0.0,0.0,0.0,0.0,-2.2493,0.0,0.0,0.0,0.0,0.0,0.0,0.0,0.0,0.0,0.0,0.0,0.0,0.0,-2.7223,0.0,0.0,-3.36,-3.3803,-3.1915,-2.9865,0.0,0.0,-2.3396,-2.1493,-2.083,-2.0239,-1.9798,-1.9798,-1.9798,-2.0213,-2.1481,-2.2334,0.0,0.0,0.0,0.0,0.0,0.0,0.0,0.0,-3.6367,-3.6556,-3.6895,-3.6606,-3.6405,-3.6405,-3.6157,-3.6144,-3.6405,-3.6405,-3.6304,-3.6056,-3.5165,-3.4387,-3.3687,-3.3022,-3.1938,-3.0541,-3.0739,-3.0204,-2.9149,-2.8835,-2.8894,0.0,-2.7048,-2.6481,-2.67,-2.4611,-2.3789,-2.374,-2.3257,-2.3266,-2.3545,0.0,0.0,0.0,0.0,0.0,0.0,0.0,0.0,0.0,0.0,0.0,0.0,0.0,0.0,0.0,0.0,0.0,0.0,0.0,0.0,0.0,0.0,0.0,0.0,0.0,-2.3397,-2.447,-2.5923,-2.6754,-2.7331,-2.7669,-2.8422,-2.7245,-2.4517,-2.4475,-2.3413,-2.1615,-2.1028,-2.1088,-2.1485,-2.0946,-2.1018,0.0,0.0,0.0,0.0,0.0,0.0,0.0,0.0,0.0,0.0,0.0,0.0,0.0,0.0,0.0,0.0,0.0,0.0,0.0,0.0,0.0,0.0,0.0,-2.1744,0.0,-2.0641,-2.0201,-1.9823,-1.9911,-1.9886,-2.0087,-2.0817,-2.1832,0.0,0.0,0.0,0.0,0.0,0.0,0.0,-3.4675,-3.5624,-3.6263,-3.6263,-3.6118,-3.6058,-3.6058,-3.5488,-3.5425,-3.6018,-3.6043,-3.5865,-3.5508,-3.4853,-3.3781,-3.2225,-3.1996,-3.0995,-2.9373,-2.9775,-2.9427,0.0,-2.7714,-2.7789,-2.8321,-2.5981,-2.5655,-2.6478,-2.4506,-2.374,-2.3691,-2.3247,-2.3091,-2.3091,0.0,0.0,0.0,0.0,0.0,0.0,0.0,0.0,0.0,0.0,0.0,0.0,0.0,0.0,0.0,0.0,0.0,0.0,0.0,0.0,0.0,0.0,0.0,0.0,0.0,-2.3766,-2.4937,-2.6211,-2.6633,-2.7319,-2.8289,-2.8437,-2.7411,-2.5468,-2.5142,-2.3538,-2.1004,-2.087,-2.0835,-2.0893,-2.0772,-2.1018,0.0,0.0,0.0,0.0,-2.1343,-2.1333,0.0,0.0,0.0,0.0,0.0,0.0,0.0,0.0,-2.1923,-2.2071,-2.2624,0.0,-2.4114,-2.2788,-2.2447,-2.2133,0.0,-2.0654,-2.0566,0.0,0.0,0.0,-2.0928,-2.0779,-2.1094,-2.2912,-2.4117,-2.5272,-2.6527,0.0,0.0,0.0,-3.4557,-3.5504,-3.4788,-3.4791,-3.4884,-3.4884,-3.3593,-3.2825,-3.2825,-3.2339,-3.2108,-3.2271,-3.2283,-3.3292,-3.5495,-3.4035,-3.336,-3.3429,-3.1152,-2.9647,-2.8914,-2.8071,-2.685,-2.5417,-2.5215,-2.5241,-2.5396,-2.4483,-2.4264,-2.4431,-2.3585,-2.3247,-2.3237,-2.313,-2.3091,-2.3091,0.0,0.0,0.0,0.0,0.0,0.0,0.0,0.0,0.0,0.0,0.0,0.0,0.0,0.0,0.0,0.0,0.0,0.0,0.0,0.0,0.0,0.0,0.0,0.0,0.0,-2.3643,-2.4907,-2.6483,-2.6398,-2.715,-2.8679,-2.8142,0.0,-2.5268,-2.3806,-2.2075,-2.0346,-2.0346,-2.031,-2.0302,-2.0302,0.0,0.0,0.0,0.0,0.0,-2.0614,-2.0717,0.0,-2.1043,-2.1307,-2.1493,0.0,0.0,0.0,0.0,-2.0955,-2.0652,-2.0377,-2.1267,-2.2108,-2.1282,-2.1295,-2.133,0.0,0.0,0.0,0.0,0.0,0.0,0.0,0.0,0.0,-2.3326,-2.472,0.0,0.0,0.0,0.0,0.0,-3.4726,-3.5335,0.0,-3.427,-3.3823,-3.3226,-3.2048,-3.1375,-3.1375,-3.0903,-3.0735,-3.1007,-3.0746,-3.1421,-3.305,-3.2148,-3.1309,-3.0656,-2.9012,-2.7737,-2.6742,-2.6069,-2.5157,-2.4141,-2.4336,-2.4307,-2.4111,-2.3887,-2.3789,-2.375,-2.3266,-2.3091,-2.3091,-2.3091,-2.3091,-2.3091,0.0,0.0,0.0,0.0,0.0,0.0,0.0,0.0,0.0,0.0,0.0,0.0,0.0,0.0,0.0,0.0,0.0,0.0,0.0,0.0,0.0,0.0,0.0,0.0,-2.2809,-2.3495,-2.4821,-2.6788,-2.647,-2.7255,-2.9007,0.0,-2.6515,0.0,-2.1986,-2.0453,-1.9798,-1.9798,-1.9798,-1.9798,-1.9798,0.0,0.0,0.0,0.0,0.0,0.0,0.0,0.0,-2.0566,-2.0867,-2.123,-2.123,0.0,0.0,0.0,0.0,0.0,-1.9911,-2.1154,-2.2246,-2.143,-2.143,-2.1568,0.0,0.0,0.0,0.0,0.0,0.0,0.0,0.0,0.0,0.0,0.0,0.0,0.0,0.0,0.0,-3.3608,-3.4145,0.0,-3.4042,-3.3396,-3.2522,-3.1466,-3.0699,-3.0281,-3.0281,-2.9818,-2.9708,-3.0098,-2.9664,-2.941,-2.9333,-2.9664,-2.8916,-2.7197,-2.6721,-2.5819,-2.4582,-2.4408,-2.4092,-2.3711,0.0,0.0,-2.3691,-2.3691,-2.3691,-2.3652,-2.3237,-2.3091,-2.3091,-2.3091,-2.3091,-2.3047,0.0,0.0,0.0,0.0,0.0,0.0,0.0,0.0,0.0,0.0,0.0,0.0,0.0,0.0,0.0,0.0,0.0,0.0,0.0,0.0,0.0,0.0,0.0,0.0,-2.3281,0.0,0.0,0.0,0.0,0.0,-2.9571,-2.8929,-2.7007,-2.4042,-2.2196,-2.0778,-1.9798,-1.9798,-1.9798,-1.9798,-1.9798,0.0,0.0,0.0,0.0,0.0,0.0,0.0,0.0,-1.9936,-1.9987,-2.0062,-2.0062,0.0,0.0,0.0,0.0,0.0,-2.0427,-2.1744,-2.2506,-2.0552,-2.1129,-2.1945,-2.1031,0.0,0.0,0.0,0.0,0.0,0.0,0.0,0.0,0.0,0.0,-2.939,0.0,0.0,-3.2918,-3.3169,0.0,-3.2941,-3.2354,-3.0737,-2.9803,-3.0008,-2.8184,-2.7102,-2.7102,-2.6633,-2.6292,-2.6009,-2.5939,-2.5671,-2.5291,-2.717,-2.8218,-2.8466,-2.5986,-2.4987,-2.5365,-2.4351,-2.3652,-2.3198,0.0,-2.3247,-2.3198,-2.3198,-2.3198,-2.3188,-2.312,-2.3091,-2.3091,-2.3091,-2.3091,-2.295,0.0,0.0,0.0,0.0,0.0,0.0,0.0,0.0,0.0,0.0,0.0,0.0,0.0,0.0,0.0,0.0,0.0,0.0,0.0,0.0,0.0,0.0,-2.2871,-2.2895,-2.3405,0.0,0.0,0.0,0.0,-2.8783,-2.9235,-2.7105,-2.5008,-2.2995,-2.1235,-2.0215,-1.9798,-1.9798,-1.9798,-1.9798,0.0,0.0,0.0,0.0,0.0,0.0,0.0,0.0,0.0,0.0,-1.9798,-1.9798,-1.9798,0.0,0.0,0.0,0.0,0.0,-2.0125,-2.1192,-2.1995,-2.0966,-2.2209,-2.3452,-2.2648,0.0,0.0,0.0,0.0,0.0,0.0,0.0,-2.5523,-2.7532,0.0,-3.0132,-3.1064,-3.1187,-3.1179,0.0,0.0,-3.0822,-3.0362,-2.9316,-2.8484,-2.7975,-2.6547,-2.5674,-2.5674,-2.5264,-2.4932,-2.4727,-2.4717,-2.4619,-2.4414,-2.5197,-2.5762,-2.6096,-2.4696,-2.4152,-2.4223,-2.3683,-2.3286,-2.3091,0.0,-2.3091,-2.3091,-2.3091,-2.3091,-2.3047,-2.2403,-2.2545,-2.3003,-2.2359,-2.212,-2.1943,0.0,0.0,0.0,0.0,0.0,0.0,0.0,0.0,0.0,0.0,0.0,0.0,0.0,0.0,0.0,0.0,0.0,0.0,0.0,0.0,-2.2717,-2.3216,-2.3066,-2.3243,-2.3784,0.0,-2.6337,-2.7451,-2.808,-2.8257,-2.7977,-2.4947,-2.2885,-2.168,-2.0056,-1.9308,-1.9293,-1.9475,-1.9527,-1.9553,0.0,0.0,0.0,0.0,0.0,0.0,0.0,0.0,0.0,0.0,0.0,0.0,0.0,0.0,0.0,-1.9281,-1.9397,-1.9552,-1.9715,-2.0619,-2.1493,-2.1493,0.0,-2.4255,-2.4356,0.0,0.0,0.0,0.0,0.0,0.0,-2.5259,0.0,-2.9716,-3.052,-3.0735,-3.0628,-3.0233,-2.9977,-3.0023,-2.9382,-2.8914,-2.88,-2.8088,-2.7247,-2.632,-2.541,-2.4959,-2.4959,-2.46,-2.4375,-2.4277,-2.4268,-2.4219,-2.4121,-2.3799,-2.3691,-2.3789,-2.3682,-2.3467,-2.3091,-2.3091,-2.3091,-2.3091,-2.3091,-2.3091,-2.3091,-2.2818,-2.2677,-2.2536,-2.1346,-2.1445,-2.2129,-2.1212,-2.089,-2.0711,0.0,0.0,0.0,0.0,0.0,0.0,0.0,0.0,0.0,0.0,0.0,0.0,0.0,0.0,0.0,0.0,0.0,0.0,0.0,0.0,-2.1914,-2.1846,-2.3281,-2.4366,-2.4968,-2.5114,-2.5963,-2.7571,-2.8114,-2.7385,-2.5443,-2.3737,-2.1914,-2.0022,-1.9036,-1.8284,-1.7786,-1.8501,-1.8768,-1.8847,-1.9527,0.0,0.0,0.0,0.0,0.0,0.0,0.0,0.0,0.0,0.0,0.0,0.0,0.0,-1.7759,-1.7759,-1.8248,-1.8902,-1.947,-2.0548,-2.1493,-2.1493,-2.1995,0.0,-2.5021,-2.5071,0.0,0.0,0.0,0.0,0.0,-2.6402,-2.8059,-3.0834,-3.1311,-3.1888,-3.3395,0.0,-3.1285,-3.1855,-2.942,-2.7873,-2.8212,-2.6481,-2.5475,-2.5752,-2.4961,-2.4463,-2.4463,-2.4434,-2.4238,-2.3848,-2.3838,-2.3643,-2.3198,-2.3159,-2.3389,-2.3779,-2.3379,-2.312,-2.3091,-2.3091,-2.3091,-2.3091,-2.3091,-2.3091,-2.3003,-2.1889,-2.1426,-2.1293,-2.0079,-1.967,-1.9761,-1.967,-1.9633,-1.9451,0.0,0.0,0.0,0.0,0.0,0.0,0.0,0.0,0.0,0.0,0.0,0.0,0.0,0.0,0.0,0.0,0.0,0.0,0.0,0.0,-2.1536,-2.2297,-2.2486,-2.3044,-2.4028,-2.5303,-2.6445,-2.7394,-2.7288,-2.6624,-2.5376,-2.2499,0.0,0.0,-1.8143,-1.7376,-1.7633,-1.7895,-1.8015,-1.8031,-1.8313,-1.8715,0.0,0.0,0.0,0.0,0.0,0.0,0.0,0.0,-1.9605,-1.9307,0.0,-1.8501,-1.8194,-1.7731,-1.7797,-1.8159,-1.8856,-2.0145,-2.1423,-2.1881,-2.2204,0.0,0.0,0.0,0.0,0.0,0.0,0.0,0.0,0.0,-2.7997,-3.0077,-3.0947,-3.1133,-3.0288,-2.9906,-2.9128,-2.7511,-2.6316,-2.5655,-2.5816,-2.5125,-2.4736,-2.4855,-2.4365,-2.4033,-2.4033,-2.3769,-2.35,-2.3389,-2.3344,-2.3257,-2.3091,-2.3091,-2.3179,-2.3379,-2.3169,-2.3091,-2.3091,-2.3091,-2.3091,-2.3047,-2.2306,-2.1987,-2.1889,-2.0666,-2.0169,-2.0124,-1.967,-1.9039,-1.8365,-1.8365,-1.8365,-1.818,0.0,0.0,0.0,0.0,0.0,0.0,0.0,0.0,0.0,0.0,0.0,0.0,0.0,0.0,0.0,0.0,0.0,0.0,0.0,0.0,-2.1006,-2.2049,-2.1938,-2.2247,-2.3064,-2.4606,-2.5774,-2.6502,-2.5984,-2.5186,-2.4077,0.0,0.0,0.0,0.0,-1.692,-1.7127,-1.7228,-1.7246,-1.7274,-1.7495,-1.7895,0.0,0.0,0.0,0.0,0.0,0.0,0.0,0.0,-1.9097,-1.8992,0.0,0.0,-1.7841,-1.7124,-1.7079,-1.7357,-1.7868,-1.9124,-2.0452,0.0,0.0,0.0,0.0,0.0,0.0,0.0,0.0,0.0,0.0,0.0,0.0,0.0,-2.9642,-2.96,-2.8177,-2.801,-2.7252,-2.524,-2.4634,-2.4414,-2.4414,-2.4297,-2.4219,-2.4219,-2.3828,-2.3584,-2.3584,-2.3257,-2.3091,-2.3091,-2.3091,-2.3091,-2.3091,-2.3091,-2.3091,-2.3091,-2.3091,-2.3091,-2.3091,-2.3091,-2.2906,-2.2492,-2.1658,-2.1069,-2.0621,-1.9451,-1.8672,-1.8349,-1.8349,-1.7809,-1.7084,-1.7084,-1.7084,-1.6998,0.0,0.0,0.0,0.0,0.0,0.0,0.0,0.0,0.0,0.0,0.0,0.0,0.0,0.0,0.0,0.0,0.0,0.0,0.0,0.0,0.0,0.0,0.0,-2.2377,-2.2377,-2.2843,-2.3634,-2.4775,-2.4255,-2.2948,-2.0997,-2.0616,0.0,0.0,0.0,0.0,-1.6116,-1.6374,-1.6492,-1.6539,-1.7274,-1.7578,-1.7578,0.0,0.0,0.0,0.0,0.0,0.0,0.0,-1.7605,-1.7468,-1.6736,0.0,0.0,-1.5613,-1.5931,-1.6503,-1.6492,-1.7391,0.0,0.0,0.0,0.0,0.0,0.0,0.0,0.0,0.0,0.0,0.0,0.0,0.0,-2.7049,-2.7285,-2.7464,-2.7991,-2.7041,-2.6296,-2.6251,-2.5154,-2.4404,-2.4404,-2.4033,-2.3779,-2.3779,-2.3379,-2.3091,-2.3091,-2.3091,-2.3091,-2.3091,-2.3091,-2.3091,-2.3091,-2.3091,-2.3091,-2.3091,-2.3101,-2.3091,-2.3091,-2.3101,-2.2448,-2.1293,-2.1293,-2.0576,-1.9405,-1.8187,-1.6943,-1.5784,-1.5784,-1.5784,-1.5784,-1.5784,-1.5784,-1.5784,0.0,0.0,0.0,0.0,0.0,0.0,0.0,0.0,0.0,0.0,0.0,0.0,0.0,0.0,0.0,0.0,0.0,0.0,0.0,0.0,0.0,0.0,0.0,0.0,0.0,0.0,-2.2133,-2.3597,-2.3088,-2.2518,0.0,0.0,0.0,-1.904,0.0,0.0,-1.6345,-1.5924,-1.5719,-1.5748,-1.5968,-1.6358,-1.6754,0.0,0.0,0.0,0.0,0.0,0.0,0.0,0.0,0.0,-1.6736,0.0,0.0,-1.5703,-1.5802,-1.6336,-1.6857,-1.7869,0.0,-2.0114,0.0,0.0,0.0,0.0,0.0,0.0,0.0,0.0,0.0,0.0,0.0,-2.5998,-2.6794,-2.6921,-2.5904,-2.5784,-2.5344,-2.4189,-2.3728,-2.3471,-2.3471,-2.3364,-2.3286,-2.3286,-2.3169,-2.3091,-2.3091,-2.3091,-2.3091,-2.3091,-2.3091,-2.3091,-2.3091,-2.3091,-2.3091,-2.3091,-2.2262,-2.2262,-2.3047,-2.2217,-2.1658,-2.1203,-1.9497,-1.8549,-1.8141,-1.6897,-1.6157,-1.5784,-1.5784,-1.5784,-1.5784,-1.5784,-1.5784,-1.5784,0.0,0.0,0.0,0.0,0.0,0.0,0.0,0.0,0.0,0.0,0.0,0.0,0.0,0.0,0.0,0.0,0.0,0.0,0.0,0.0,0.0,0.0,0.0,0.0,0.0,-2.015,-2.0815,0.0,0.0,0.0,0.0,0.0,0.0,-1.9828,0.0,-1.827,-1.7015,-1.5869,-1.541,-1.541,-1.541,-1.5671,-1.6007,0.0,0.0,0.0,0.0,0.0,0.0,0.0,0.0,0.0,-1.6283,0.0,0.0,-1.5683,-1.5478,-1.5772,-1.6566,-1.7554,0.0,-2.0004,-2.1524,-2.2951,-2.3819,0.0,0.0,0.0,0.0,-2.4937,-2.5847,-2.5217,0.0,-2.4598,-2.5189,-2.5295,-2.4251,-2.4403,-2.4152,-2.2983,-2.2847,-2.2779,-2.2656,-2.275,-2.2822,-2.2656,-2.275,-2.2779,-2.2646,-2.275,-2.2847,-2.2847,-2.3013,-2.3091,-2.3091,-2.3091,-2.2862,-2.2403,-2.1667,-2.1436,-2.1632,-2.0944,-2.0305,-1.9761,-1.7809,-1.6943,-1.6897,-1.6109,-1.5784,-1.5784,-1.5784,-1.5784,-1.5784,-1.5784,-1.5784,-1.5784,0.0,0.0,0.0,0.0,0.0,0.0,0.0,0.0,0.0,0.0,0.0,0.0,0.0,0.0,0.0,0.0,0.0,0.0,0.0,0.0,0.0,0.0,0.0,0.0,0.0,0.0,0.0,0.0,0.0,0.0,0.0,0.0,-2.158,-2.0308,0.0,-1.9324,-1.793,-1.6137,-1.541,-1.541,-1.541,-1.541,-1.541,-1.541,0.0,0.0,0.0,0.0,0.0,0.0,0.0,0.0,-1.5613,-1.5894,-1.6316,-1.5623,-1.5146,-1.5039,-1.5968,0.0,0.0,-1.9111,-2.1064,0.0,-2.4189,-2.5021,-2.5567,-2.5567,0.0,-2.4969,-2.4443,-2.373,-2.3203,-2.3101,-2.3091,-2.3081,-2.3042,-2.3042,-2.2886,-2.251,-2.2461,-2.2305,-2.1924,-2.2236,-2.2295,-2.1914,-2.2152,-2.2149,-2.177,-2.1984,-2.2144,-2.2144,-2.251,-2.2703,-2.2703,-2.2698,-2.2186,-2.1051,-2.0953,-2.0318,-1.9261,-1.9327,-1.868,-1.7458,-1.6292,-1.5784,-1.5784,-1.5784,-1.5784,-1.5784,-1.5784,-1.5784,-1.5784,-1.5784,-1.5784,-1.5784,0.0,0.0,0.0,0.0,0.0,0.0,0.0,0.0,0.0,0.0,0.0,0.0,0.0,0.0,0.0,0.0,0.0,0.0,0.0,0.0,0.0,0.0,0.0,0.0,0.0,0.0,0.0,0.0,0.0,0.0,0.0,0.0,0.0,-2.1184,0.0,-1.9467,-1.8246,-1.626,-1.541,-1.541,-1.541,-1.541,-1.541,-1.541,-1.541,0.0,0.0,0.0,0.0,0.0,0.0,0.0,-1.5439,-1.5763,-1.6089,-1.5537,-1.5352,-1.5537,-1.6768,-1.6982,0.0,0.0,-2.2178,-2.376,-2.4707,-2.4805,-2.4697,-2.4697,-2.4893,-2.4881,-2.4062,-2.3779,-2.3545,-2.3149,-2.3091,-2.2984,-2.2652,-2.2646,-2.249,-2.207,-2.2021,-2.1982,-2.1894,-2.1963,-2.1982,-2.1894,-2.1165,-2.0651,-2.0559,-1.9871,-1.9436,-1.9436,-1.9514,-1.9557,-1.9557,-1.9817,-1.9676,-1.9168,-1.8431,-1.7842,-1.7388,-1.785,-1.7404,-1.6197,-1.592,-1.5784,-1.5784,-1.5784,-1.5784,-1.5784,-1.5784,-1.5784,-1.5784,-1.5784,-1.5784,-1.5784,0.0,0.0,0.0,0.0,0.0,0.0,0.0,0.0,0.0,0.0,0.0,0.0,0.0,0.0,0.0,0.0,0.0,0.0,0.0,0.0,0.0,0.0,0.0,0.0,0.0,0.0,0.0,0.0,0.0,0.0,0.0,0.0,0.0,-2.1838,0.0,-1.9655,-1.8726,-1.6398,-1.541,-1.541,-1.541,-1.541,-1.541,-1.541,-1.541,-1.541,-1.541,0.0,0.0,0.0,0.0,0.0,0.0,0.0,-1.5703,-1.5478,-1.5264,-1.5352,-1.6476,0.0,0.0,-2.1357,0.0,-2.3955,-2.4609,-2.458,-2.4365,-2.416,-2.4453,-2.456,-2.3906,-2.3789,-2.3584,-2.2896,-2.2789,-2.2652,-2.2275,-2.2207,-2.2051,-2.1621,-2.1572,-2.1484,-2.1319,-2.1445,-2.1271,-2.0564,-2.0122,-1.9585,-1.8861,-1.8482,-1.8329,-1.8329,-1.8496,-1.8587,-1.8587,-1.8779,-1.8466,-1.7715,-1.7238,-1.6625,-1.5961,-1.6259,-1.6132,-1.5625,-1.5625,-1.5625,-1.5631,-1.5772,-1.5784,-1.5784,-1.5784,-1.5784,-1.5784,-1.5784,-1.5784,-1.5784,0.0,0.0,0.0,0.0,0.0,0.0,0.0,0.0,0.0,0.0,0.0,0.0,0.0,0.0,0.0,0.0,0.0,0.0,0.0,0.0,0.0,0.0,0.0,0.0,0.0,0.0,0.0,0.0,0.0,0.0,0.0,0.0,0.0,-2.221,0.0,0.0,-1.9003,-1.6459,-1.541,-1.541,-1.541,-1.541,-1.541,-1.541,-1.541,-1.5381,-1.5235,-1.5294,-1.5381,-1.5235,0.0,0.0,0.0,0.0,-1.541,-1.541,-1.5117,-1.5019,-1.5958,0.0,-1.9062,-2.2122,-2.3203,0.0,-2.4199,-2.4248,-2.4121,-2.3848,-2.4062,-2.418,-2.376,-2.3623,-2.334,-2.2627,-2.2451,-2.2256,-2.1836,-2.1777,-2.1611,-2.1132,-2.1123,-2.0937,-2.0537,-2.0791,-2.0405,-1.8964,-1.9026,-1.8447,-1.7017,-1.7121,-1.724,-1.724,-1.7556,-1.7784,-1.7798,-1.7862,-1.7388,-1.6337,-1.6337,-1.5819,-1.4928,-1.4881,-1.4997,-1.5317,-1.5317,-1.5317,-1.5344,-1.5631,-1.5678,-1.5691,-1.5744,-1.5751,-1.5758,-1.5764,-1.5784,-1.5784,0.0,0.0,0.0,0.0,0.0,0.0,0.0,0.0,0.0,0.0,0.0,0.0,0.0,0.0,0.0,0.0,0.0,0.0,-1.9798,0.0,0.0,-1.8688,-1.8097,-1.8085,0.0,0.0,0.0,0.0,0.0,0.0,0.0,0.0,0.0,-2.2226,0.0,0.0,0.0,-1.6308,-1.541,-1.541,-1.541,-1.541,-1.541,-1.541,-1.541,-1.5323,-1.4599,-1.4815,-1.5294,-1.4599,-1.4815,0.0,0.0,0.0,-1.541,-1.541,-1.5117,-1.5059,0.0,0.0,-1.9951,0.0,-2.21,-2.2891,0.0,0.0,-2.3354,0.0,-2.3838,-2.374,-2.3257,-2.293,-2.2646,-2.2529,-2.2207,-2.1816,-2.1346,-2.1278,-2.1152,-2.0742,-2.0693,-2.0488,-2.0049,-2.0049,-1.9602,-1.8481,-1.7565,-1.6627,-1.5606,-1.4696,-1.42,-1.42,-1.4234,-1.4428,-1.4698,-1.491,-1.4874,-1.445,-1.445,-1.45,-1.4569,-1.4322,-1.4502,-1.5068,-1.5068,-1.5068,-1.5089,-1.5337,-1.5304,-1.513,-1.5631,-1.5671,-1.5484,-1.5684,-1.5784,-1.5784,0.0,0.0,0.0,0.0,0.0,0.0,0.0,0.0,0.0,0.0,0.0,0.0,0.0,0.0,0.0,-2.0207,-1.9978,-1.9605,-1.9202,-1.8874,-1.8688,-1.8688,-1.8394,-1.8555,-1.9307,0.0,0.0,0.0,0.0,0.0,0.0,-2.2498,-2.3201,0.0,0.0,0.0,0.0,0.0,-1.541,-1.541,-1.541,-1.5032,0.0,0.0,0.0,0.0,0.0,0.0,-1.3995,-1.3644,-1.3756,-1.4115,-1.4599,0.0,0.0,0.0,-1.5283,0.0,-1.6414,-1.7564,-1.8818,0.0,-2.1112,0.0,0.0,0.0,-2.3149,-2.3389,-2.3232,-2.3018,-2.2822,-2.2637,-2.2353,-2.1834,-2.16,-2.1367,-2.0918,-2.0859,-2.0693,-2.0254,-2.0195,-1.984,-1.8873,-1.8761,-1.8104,-1.6445,-1.5895,-1.5208,-1.4172,-1.3634,-1.336,-1.336,-1.336,-1.3467,-1.3594,-1.384,-1.4048,-1.4082,-1.3915,-1.3995,-1.4269,-1.3968,-1.4162,-1.4716,-1.4716,-1.4716,-1.4736,-1.5037,-1.5122,-1.5035,-1.5244,-1.5364,-1.5411,-1.5538,-1.5207,-1.4752,0.0,0.0,0.0,0.0,0.0,0.0,0.0,0.0,0.0,0.0,0.0,0.0,0.0,0.0,0.0,0.0,-1.9345,-1.9097,-1.8715,-1.8688,-1.8688,-1.8688,-1.8528,-1.8768,-1.9501,0.0,0.0,0.0,0.0,0.0,-2.2506,-2.2907,-2.4266,0.0,-2.2739,0.0,0.0,0.0,0.0,0.0,0.0,0.0,0.0,0.0,0.0,0.0,0.0,0.0,0.0,0.0,0.0,-1.31,-1.3704,-1.4025,0.0,0.0,0.0,0.0,0.0,0.0,-1.7549,-1.8926,0.0,0.0,0.0,0.0,-2.2643,0.0,-2.2568,-2.2314,-2.2207,-2.2187,-2.1943,-2.1191,-2.0937,-2.0742,-2.0341,-2.0081,-1.9764,-1.9438,-1.9165,-1.8583,-1.7473,-1.7354,-1.6601,-1.4789,-1.4636,-1.4188,-1.3165,-1.3093,-1.3093,-1.3093,-1.3093,-1.3133,-1.3213,-1.3387,-1.3606,-1.3861,-1.3641,-1.3517,-1.3529,-1.3274,-1.3274,-1.3517,-1.4143,-1.4409,-1.4436,-1.473,-1.4847,-1.48,-1.4948,-1.505,-1.5138,-1.493,-1.4369,-1.3731,0.0,0.0,0.0,0.0,0.0,0.0,0.0,0.0,0.0,0.0,0.0,0.0,0.0,-1.7802,-1.8015,-1.8688,-1.8112,-1.7977,-1.8661,-1.8688,-1.8688,-1.8688,-1.8043,0.0,-1.8741,0.0,0.0,0.0,0.0,0.0,-2.3058,-2.3095,-2.4074,-2.5744,-2.3236,-2.0577,-1.7884,0.0,0.0,0.0,0.0,0.0,0.0,0.0,0.0,0.0,0.0,0.0,0.0,0.0,0.0,0.0,0.0,0.0,0.0,0.0,0.0,0.0,0.0,-1.6073,0.0,-1.7393,0.0,0.0,0.0,0.0,0.0,-2.1865,-2.1934,-2.1787,-2.1337,-2.1259,-2.1152,-2.0713,-2.0254,-1.9834,-1.9414,-1.8601,-1.8025,-1.8007,-1.7177,-1.6413,-1.5941,-1.5908,-1.5429,-1.4306,-1.4231,-1.3823,-1.2887,-1.2811,-1.2811,-1.2811,-1.2811,-1.2951,-1.3206,-1.3227,-1.324,-1.3253,-1.324,-1.2804,-1.2011,-1.1993,-1.1542,-1.0928,-1.3149,-1.4108,-1.4128,-1.4422,-1.4382,-1.4188,-1.4787,-1.4803,-1.4465,-1.3603,-1.3343,-1.3274,0.0,0.0,0.0,0.0,0.0,0.0,0.0,0.0,0.0,0.0,0.0,0.0,0.0,-1.7706,-1.7715,-1.7977,-1.8194,-1.8561,-1.912,-1.9318,-1.9397,-1.9397,-1.915,-1.915,-1.9397,0.0,0.0,0.0,0.0,-2.0133,-2.2083,-2.2447,-2.2616,-2.2681,-2.2098,-2.0908,-1.9283,-1.7189,0.0,0.0,0.0,0.0,0.0,0.0,0.0,0.0,0.0,0.0,0.0,0.0,0.0,0.0,0.0,0.0,0.0,0.0,0.0,0.0,0.0,0.0,0.0,-1.5877,0.0,-1.7609,-1.9013,-1.9373,-1.9517,-1.9666,-1.925,-1.8767,-1.8585,-1.9329,-1.9771,-1.9311,-1.8341,-1.7601,-1.7459,-1.7142,-1.6831,-1.659,-1.6223,-1.5593,-1.4561,-1.4449,-1.4056,-1.3047,-1.2973,-1.2824,-1.2496,-1.2321,-1.2221,-1.2221,-1.2221,-1.2455,-1.2945,-1.2951,-1.3013,-1.3206,-1.3045,-1.2593,-1.1899,-1.1735,-1.1266,-1.0654,-1.1477,-1.1869,-1.1875,-1.1959,-1.1948,-1.1886,-1.2105,-1.2663,-1.3361,-1.3055,-1.257,-1.2017,0.0,0.0,0.0,0.0,0.0,0.0,0.0,0.0,0.0,0.0,0.0,0.0,0.0,0.0,-1.7156,-1.7298,-1.7934,-1.8522,-1.899,-1.9281,-1.9527,-1.9798,-1.9798,-1.9798,-1.9798,0.0,0.0,0.0,0.0,0.0,0.0,-2.1088,-2.0866,-2.0598,-2.0723,-2.0268,0.0,0.0,0.0,-1.5761,0.0,0.0,-1.4044,0.0,0.0,0.0,0.0,0.0,0.0,0.0,0.0,0.0,0.0,0.0,0.0,0.0,0.0,0.0,0.0,0.0,0.0,0.0,0.0,-1.545,-1.6708,0.0,-1.7213,-1.748,-1.7104,-1.6775,-1.6862,-1.7188,-1.7452,-1.7549,-1.6816,-1.6146,-1.603,-1.5716,-1.5404,-1.5142,-1.4817,-1.4263,-1.3331,-1.3237,-1.2989,-1.2342,-1.2305,0.0,-1.2164,-1.2013,-1.1859,-1.1724,-1.1724,-1.1993,-1.2482,-1.2489,-1.2643,-1.2899,-1.2381,-1.1782,-1.1068,-1.0546,-0.9953,-0.9289,-0.9289,-0.979,-1.0611,-1.0611,-1.0611,-1.0611,-1.0611,-1.1218,-1.2057,-1.2057,-1.1688,-1.1111,0.0,0.0,0.0,0.0,0.0,0.0,0.0,0.0,0.0,0.0,0.0,0.0,0.0,0.0,0.0,-1.6677,-1.7252,-1.7807,-1.828,-1.8572,-1.9042,-1.9746,-1.9811,-1.9798,-1.9798,0.0,0.0,0.0,0.0,0.0,0.0,0.0,-1.8917,-1.9733,-1.9253,-1.8591,-1.776,0.0,-1.6719,-1.6507,0.0,-1.475,-1.5905,0.0,0.0,0.0,-1.4351,-1.4275,0.0,-1.2561,0.0,0.0,0.0,0.0,0.0,0.0,0.0,0.0,0.0,0.0,0.0,0.0,0.0,0.0,-1.3689,0.0,-1.4629,-1.5332,-1.5665,-1.5945,-1.6175,-1.4917,-1.4225,-1.5466,-1.5678,-1.5543,-1.5177,-1.4279,-1.3673,-1.3673,-1.2842,-1.2305,-1.2305,-1.2305,-1.2305,-1.2305,-1.2305,-1.2178,-1.1933,-1.1899,-1.1724,-1.1389,-1.1375,-1.1557,-1.1899,-1.187,-1.1981,-1.2224,-1.1242,-1.0312,-0.9414,-0.8436,-0.7511,-0.6702,-0.6702,-0.8161,-1.0471,-1.0471,-1.0476,-1.0481,-1.0481,-1.0524,-1.0567,-1.0611,-1.0665,-1.0657,0.0,0.0,0.0,0.0,0.0,0.0,0.0,0.0,0.0,0.0,0.0,0.0,0.0,0.0,-1.6728,-1.7168,-1.7523,-1.7936,-1.8414,-1.8919,-1.9285,-1.9516,-1.9685,-1.9798,-1.9798,0.0,0.0,0.0,0.0,0.0,0.0,0.0,0.0,0.0,-1.8008,-1.776,-1.7801,-1.7585,0.0,0.0,-1.567,-1.5506,0.0,0.0,0.0,0.0,0.0,-1.4621,-1.4622,0.0,-1.3572,-1.3465,0.0,0.0,0.0,0.0,0.0,0.0,-1.1264,0.0,0.0,0.0,0.0,0.0,0.0,0.0,-1.2825,-1.2835,-1.2612,-1.2369,-1.2224,-1.1984,-1.1913,-1.2262,-1.2691,-1.3006,-1.3106,-1.2879,-1.2696,-1.2696,-1.2445,-1.2305,-1.2305,-1.2305,-1.2305,0.0,-1.2305,-1.2265,-1.2184,-1.1777,-1.1416,-1.1122,-1.1109,-1.1356,-1.1899,-1.1173,-1.0937,-1.1199,-1.0196,-0.9249,-0.8396,-0.8124,-0.7511,-0.6702,-0.6702,-0.7186,-0.7924,-0.7924,-0.7993,-0.8053,-0.8053,-0.8619,-0.9449,-1.0308,-1.0608,-1.067,0.0,0.0,0.0,0.0,0.0,0.0,0.0,0.0,0.0,0.0,0.0,0.0,0.0,0.0,0.0,-1.7607,-1.7446,-1.7666,-1.8468,-1.8632,-1.8787,-1.8924,-1.9377,-1.9662,0.0,0.0,0.0,0.0,0.0,0.0,0.0,0.0,0.0,0.0,0.0,0.0,0.0,0.0,0.0,0.0,-1.6242,0.0,0.0,-1.5957,-1.5869,0.0,0.0,0.0,-1.6095,-1.4696,-1.3922,0.0,0.0,0.0,0.0,0.0,0.0,0.0,0.0,0.0,0.0,0.0,0.0,0.0,-1.1526,-1.1366,-1.1117,0.0,-1.0757,-1.0703,-1.0965,-1.1024,-1.1189,-1.161,-1.1744,-1.1875,-1.2116,-1.2011,-1.1984,-1.2104,-1.2124,-1.2124,-1.2124,-1.2231,-1.2251,-1.2131,-1.2231,-1.2198,-1.1951,-1.1145,-1.0568,-1.0295,-0.995,-1.0001,-1.0532,-0.9929,-0.981,-1.0153,-0.914,-0.8406,-0.7896,-0.7473,-0.7019,-0.6519,-0.6519,-0.6603,-0.6739,-0.6739,-0.6898,-0.7095,-0.7095,-0.7533,-0.8277,-0.9449,-0.9879,-0.9926,0.0,0.0,0.0,0.0,0.0,0.0,0.0,0.0,0.0,0.0,0.0,0.0,0.0,0.0,0.0,0.0,-1.7282,-1.731,-1.838,-1.8103,0.0,0.0,0.0,0.0,0.0,0.0,0.0,0.0,0.0,0.0,0.0,0.0,0.0,0.0,0.0,0.0,0.0,0.0,0.0,-1.7314,-1.6564,-1.6682,0.0,0.0,-1.7207,-1.7168,-1.7259,-1.7619,-1.7706,-1.504,-1.3302,0.0,0.0,0.0,0.0,0.0,-1.0667,0.0,0.0,0.0,0.0,0.0,0.0,0.0,-0.986,-0.9856,-0.984,0.0,-0.9886,-1.0332,-1.1214,-1.1196,-1.1331,-1.2297,-1.192,-1.1606,-1.1887,-1.1605,-1.1523,-1.1826,-1.1859,-1.1859,-1.1859,-1.2051,-1.2111,-1.1926,-1.2138,-1.2008,-1.1284,-1.0294,-0.9561,-0.9183,-0.842,-0.8197,-0.8583,-0.8449,-0.8636,-0.9072,-0.8091,-0.7609,-0.7591,-0.6718,-0.63,-0.63,-0.63,-0.6381,-0.6511,-0.6511,-0.6725,-0.7071,-0.7071,-0.7082,-0.7228,-0.8452,-0.889,-0.8915,0.0,0.0,0.0,0.0,0.0,0.0,0.0,0.0,0.0,0.0,0.0,0.0,0.0,0.0,0.0,0.0,-1.7828,-1.786,-1.8073,-1.8259,0.0,0.0,0.0,0.0,0.0,0.0,0.0,0.0,0.0,0.0,0.0,0.0,0.0,0.0,0.0,0.0,0.0,0.0,0.0,-1.7406,-1.723,0.0,-1.6785,-1.6496,-1.6134,-1.584,-1.6232,-1.5792,-1.4936,-1.4018,-1.332,-1.2811,0.0,0.0,0.0,0.0,0.0,0.0,0.0,0.0,0.0,0.0,0.0,0.0,-1.0593,-1.0748,-1.0822,0.0,-0.9755,-0.9863,-1.0095,-1.0312,-1.071,-1.1425,-1.1177,-1.1122,-1.1862,-1.1641,-1.1415,-1.151,-1.151,-1.151,-1.151,-1.1529,-1.167,-1.1893,-1.2138,-1.1712,-1.0408,-1.0122,-0.9468,-0.8301,-0.8091,-0.8154,-0.8453,-0.7639,-0.7425,-0.7843,-0.6813,-0.6439,-0.6606,-0.6377,-0.63,-0.63,-0.63,-0.6381,-0.6511,-0.6511,-0.6668,-0.6927,-0.6927,-0.6997,-0.7228,-0.8452,-0.889,-0.8915,0.0,0.0,0.0,0.0,0.0,0.0,0.0,0.0,0.0,0.0,0.0,0.0,0.0,0.0,0.0,0.0,0.0,0.0,0.0,0.0,0.0,0.0,0.0,0.0,0.0,0.0,0.0,0.0,0.0,0.0,0.0,0.0,0.0,0.0,0.0,0.0,0.0,0.0,-1.7891,-1.7656,-1.7236,0.0,-1.6377,-1.6183,-1.5821,-1.541,-1.5467,-1.4669,-1.3666,-1.4084,-1.3939,0.0,0.0,-1.266,-1.227,0.0,-1.1427,-1.1022,0.0,0.0,0.0,-1.1062,0.0,0.0,0.0,-1.0668,-1.0576,-1.002,-0.9786,-0.9815,-1.0175,-1.0701,-1.1138,-1.1292,-1.1315,-1.1295,-1.1337,-1.0885,-1.0608,-1.0723,-1.0736,-1.0736,-1.0736,-1.1002,-1.1336,-1.1623,-1.165,-1.1136,-0.9957,-0.9497,-0.8677,-0.7381,-0.692,-0.6784,-0.701,-0.6501,-0.6432,-0.6763,-0.625,-0.6071,-0.6149,-0.6265,-0.6255,-0.6149,-0.6265,-0.634,-0.6405,-0.6405,-0.6542,-0.682,-0.6856,-0.697,-0.7183,-0.7797,-0.8017,-0.804,0.0,0.0,0.0,0.0,0.0,0.0,0.0,0.0,0.0,0.0,0.0,0.0,0.0,0.0,0.0,0.0,0.0,0.0,0.0,0.0,0.0,0.0,0.0,-1.839,0.0,-1.9072,0.0,0.0,0.0,0.0,0.0,0.0,0.0,0.0,0.0,0.0,0.0,0.0,0.0,-1.7822,0.0,-1.6572,-1.633,-1.6153,-1.587,-1.5449,-1.4754,-1.3773,-1.2911,-1.3907,-1.4004,-1.3615,-1.306,-1.2815,0.0,0.0,0.0,0.0,0.0,0.0,0.0,0.0,0.0,-1.1243,0.0,0.0,0.0,-1.0123,-0.9927,0.0,0.0,0.0,0.0,0.0,0.0,0.0,0.0,-1.0002,0.0,-1.0043,-1.0037,-1.0053,-1.0077,-1.0548,-1.0922,-1.1122,-1.1062,-1.06,-0.9678,-0.8841,-0.7884,-0.6724,-0.5848,-0.5453,-0.5545,-0.5545,-0.5694,-0.5949,-0.5949,-0.5979,-0.6078,-0.6242,-0.6193,-0.6081,-0.6245,-0.6317,-0.634,-0.634,-0.6478,-0.6753,-0.6848,-0.6947,-0.7095,-0.7095,-0.7095,-0.7112,-1.7723,-1.7931,0.0,0.0,0.0,0.0,0.0,0.0,0.0,0.0,0.0,0.0,0.0,0.0,0.0,0.0,0.0,0.0,-2.0214,0.0,0.0,0.0,0.0,0.0,-1.7547,-1.7968,0.0,0.0,0.0,0.0,0.0,0.0,0.0,0.0,-1.7549,0.0,0.0,0.0,-1.7484,0.0,-1.6892,-1.6934,0.0,-1.6388,-1.6065,-1.5756,-1.39,-1.2666,-1.1908,0.0,-1.2062,-1.2419,0.0,-1.2316,-1.2285,-1.2281,0.0,0.0,0.0,0.0,0.0,0.0,-1.1991,0.0,0.0,0.0,-1.1022,-1.0243,0.0,0.0,0.0,0.0,0.0,0.0,0.0,0.0,-0.9982,-0.952,-0.9471,-1.0023,-0.9886,-0.9833,-1.0094,-1.015,-1.0197,-1.0261,-1.0715,-1.0516,-0.9391,-0.8754,-0.7884,-0.6724,-0.5848,-0.5402,-0.5423,-0.5423,-0.5569,-0.5827,-0.5827,-0.5969,-0.6276,-0.6289,-0.6289,-0.6276,-0.6293,-0.6371,-0.6487,-0.6487,-0.6627,-0.6849,-0.6773,-0.6895,-0.7095,-0.7095,-0.7095,-0.7098,-1.7412,-1.7801,0.0,0.0,0.0,0.0,0.0,0.0,0.0,0.0,0.0,0.0,0.0,0.0,0.0,0.0,0.0,-1.9933,0.0,0.0,0.0,0.0,0.0,0.0,0.0,0.0,0.0,0.0,-1.7832,0.0,0.0,0.0,0.0,0.0,-1.7353,0.0,-1.7168,0.0,-1.7744,0.0,0.0,0.0,0.0,-1.6211,-1.5098,-1.4135,-1.2775,-1.1779,-1.1087,0.0,-1.1769,0.0,0.0,0.0,0.0,0.0,0.0,0.0,0.0,0.0,0.0,0.0,0.0,0.0,-1.1396,0.0,-1.0936,0.0,0.0,0.0,0.0,0.0,0.0,0.0,-0.9963,0.0,0.0,0.0,-0.9051,0.0,0.0,0.0,-0.955,-0.9577,-0.965,-0.9853,-1.0247,-1.0045,-0.907,-0.8463,-0.7724,-0.6719,-0.5848,-0.5395,-0.5395,-0.5395,-0.5542,-0.58,-0.58,-0.5915,-0.6129,-0.6259,-0.6248,-0.6132,-0.6259,-0.6381,-0.6511,-0.6511,-0.6654,-0.6879,-0.6858,-0.6916,-0.7095,-0.7095,-0.7095,-0.7122,0.0,0.0,0.0,0.0,0.0,0.0,-2.4079,-2.5475,-2.6082,0.0,0.0,0.0,-2.7766,-2.6787,0.0,0.0,-2.305,-2.1492,0.0,0.0,-1.9307,0.0,0.0,0.0,0.0,0.0,0.0,0.0,0.0,0.0,0.0,0.0,0.0,0.0,0.0,-1.7256,-1.6858,0.0,-1.8008,-1.8027,-1.8213,-1.8003,-1.751,-1.6123,-1.4522,-1.2917,-1.2328,-1.1476,-1.062,-1.0774,-1.1685,0.0,-1.212,-1.2475,-1.2977,0.0,0.0,0.0,-1.2104,0.0,0.0,0.0,0.0,0.0,0.0,0.0,0.0,0.0,0.0,0.0,0.0,0.0,0.0,0.0,0.0,-0.9528,0.0,-0.9265,0.0,0.0,0.0,0.0,0.0,-0.9211,-0.9271,-0.9432,-0.9713,-0.957,-0.895,-0.8247,-0.7577,-0.6933,-0.5924,-0.5395,-0.5395,-0.5395,-0.5542,-0.58,-0.58,-0.5905,-0.6098,-0.6248,-0.6238,-0.6101,-0.6293,-0.6443,-0.6576,-0.658,-0.6753,-0.6943,-0.6943,-0.7007,-0.7095,-0.7095,-0.7095,-0.7136,-1.6643,-1.6731,0.0,0.0,0.0,0.0,-2.3065,-2.3582,-2.4312,-2.6227,0.0,0.0,0.0,0.0,0.0,0.0,0.0,-2.3198,-2.3643,0.0,-1.9346,0.0,0.0,-1.8896,0.0,0.0,0.0,0.0,0.0,0.0,0.0,0.0,0.0,0.0,0.0,-1.8159,-1.849,-1.8164,-1.8008,-1.7978,-1.7578,-1.7168,-1.6687,0.0,-1.479,-1.3009,-1.2978,0.0,0.0,-1.1209,-1.1416,-1.1571,-1.2107,0.0,0.0,0.0,0.0,0.0,0.0,0.0,0.0,-1.2371,0.0,0.0,0.0,0.0,-1.0093,0.0,0.0,0.0,0.0,0.0,0.0,0.0,0.0,0.0,0.0,0.0,0.0,0.0,0.0,0.0,0.0,-0.9211,-0.9098,-0.8858,-0.9078,-0.921,-0.9182,-0.8127,-0.7514,-0.7483,-0.612,-0.5395,-0.5395,-0.5395,-0.5542,-0.58,-0.58,-0.5959,-0.6293,-0.6296,-0.6296,-0.63,-0.6443,-0.6552,-0.6705,-0.6854,-0.6957,-0.7088,-0.7088,-0.7092,-0.7095,-0.7095,-0.7095,-0.7119,0.0,0.0,0.0,0.0,0.0,-1.9877,-2.2252,-2.4566,-2.6318,-2.7174,-2.9089,0.0,0.0,-2.9663,-2.9076,0.0,0.0,-2.498,-2.4248,-2.2852,0.0,0.0,0.0,-2.0596,0.0,0.0,0.0,0.0,0.0,0.0,0.0,0.0,0.0,0.0,0.0,-1.7939,0.0,0.0,0.0,0.0,0.0,-1.7871,-1.7779,0.0,-1.4747,-1.3324,-1.2806,-1.1753,-1.062,-1.0821,-1.1109,-1.1362,-1.1209,-1.1543,-1.1951,-1.1663,-1.1784,-1.2031,-1.2131,-1.2298,-1.2516,-1.261,0.0,0.0,0.0,0.0,0.0,0.0,0.0,0.0,0.0,0.0,0.0,0.0,0.0,0.0,0.0,0.0,0.0,0.0,0.0,0.0,0.0,0.0,-0.8174,-0.8082,-0.8355,-0.8732,-0.9183,-0.811,-0.7504,-0.7504,-0.612,-0.5395,-0.5395,-0.5395,-0.5494,-0.5661,-0.5755,-0.5908,-0.6112,-0.6252,-0.63,-0.6303,-0.6351,-0.6511,-0.6705,-0.6756,-0.6919,-0.7095,-0.7095,-0.7095,-0.7095,-0.7095,-0.7095,-0.7132,-1.923,0.0,0.0,0.0,0.0,-2.0355,-2.2166,-2.5236,-2.752,-2.8077,-3.0121,0.0,-3.188,0.0,-3.0158,0.0,-2.8336,-2.6768,-2.5,-2.4329,0.0,-2.2119,-2.209,0.0,0.0,0.0,0.0,0.0,0.0,-1.9287,0.0,0.0,0.0,0.0,0.0,-1.8369,-1.7871,0.0,-1.8535,0.0,0.0,-1.8174,0.0,0.0,-1.5483,-1.4131,-1.3171,-1.1914,-1.0727,-1.0626,-1.0949,-1.1329,-1.0982,-1.1456,-1.2071,-1.1697,-1.185,-1.2144,-1.2144,-1.2225,-1.2345,-1.2576,-1.2445,0.0,-1.1013,0.0,-0.9653,0.0,0.0,0.0,0.0,0.0,0.0,0.0,0.0,0.0,0.0,-0.6964,0.0,0.0,0.0,0.0,0.0,-0.7477,-0.7438,-0.7327,-0.7521,-0.7845,-0.8351,-0.7493,-0.6993,-0.7032,-0.599,-0.5423,-0.5477,-0.5477,-0.5579,-0.5749,-0.5837,-0.5962,-0.6115,-0.6252,-0.63,-0.6306,-0.6412,-0.6525,-0.6709,-0.6814,-0.6927,-0.7102,-0.72,-0.7221,-0.7214,-0.7115,-0.7166,-0.7287,-1.9203,0.0,0.0,0.0,-1.9798,-2.1157,-2.2689,-2.5493,-2.7832,-2.8879,-3.0592,-3.1436,-3.0729,-3.1,-3.0797,-2.9711,-2.9655,-2.8535,-2.5976,-2.5791,0.0,0.0,-2.2155,-2.1807,-2.0078,0.0,0.0,0.0,0.0,0.0,0.0,0.0,0.0,0.0,-1.9717,0.0,-1.8627,-1.9102,-1.8799,-1.8008,-1.8008,-1.8037,-1.8066,-1.7949,-1.689,-1.5283,-1.4081,-1.2514,-1.0949,-1.0707,-1.0942,-1.1349,-1.1369,-1.161,-1.1886,-1.1899,-1.1913,-1.1926,-1.1926,-1.2091,-1.2305,-1.2318,-1.2311,-1.204,0.0,0.0,-0.9101,0.0,0.0,0.0,0.0,0.0,0.0,0.0,0.0,0.0,0.0,0.0,0.0,0.0,0.0,0.0,0.0,-0.7012,-0.6898,-0.6576,-0.6534,-0.6651,0.0,-0.6332,-0.6075,-0.6195,-0.5676,-0.5481,-0.5599,-0.5599,-0.5742,-0.5983,-0.599,-0.6112,-0.63,-0.6306,-0.6313,-0.6337,-0.658,-0.6705,-0.6732,-0.697,-0.7088,-0.7112,-0.7312,-0.7422,-0.7409,-0.7217,-0.7307,-0.7516,-2.0278,-2.0169,-2.0176,0.0,-2.081,-2.1557,-2.31,-2.5916,-2.8263,-2.9505,-3.1503,-3.2509,-3.1858,-3.189,-3.1445,-3.0174,-3.0039,0.0,0.0,0.0,0.0,-2.4612,-2.416,-2.3271,-2.1875,-2.207,0.0,-2.0282,0.0,0.0,-1.9297,0.0,0.0,0.0,0.0,0.0,-1.8627,-1.9102,-1.8799,-1.8008,-1.8008,-1.8389,-1.8815,0.0,-1.6608,-1.5992,-1.4829,-1.2943,-1.0982,-1.0909,-1.0868,-1.0854,-1.1035,-1.1303,-1.1583,-1.1839,-1.206,-1.2191,-1.2191,-1.2245,-1.2351,-1.2616,-1.2465,-1.1906,-1.0346,-0.973,0.0,0.0,0.0,0.0,0.0,0.0,0.0,0.0,0.0,0.0,0.0,0.0,0.0,-0.5479,0.0,0.0,-0.5862,-0.5917,-0.5868,-0.5792,-0.5787,-0.6124,-0.6866,-0.6332,-0.6107,-0.6351,-0.5813,-0.5599,-0.5745,-0.5745,-0.5786,-0.5861,-0.5939,-0.6112,-0.6303,-0.6409,-0.6521,-0.659,-0.6668,-0.6766,-0.6832,-0.691,-0.7001,-0.7112,-0.7312,-0.7441,-0.7536,-0.7499,-0.6979,-0.6254,-2.0872,-2.1312,0.0,-2.2275,-2.2978,-2.3649,-2.4115,-2.5803,-2.752,-2.8985,-3.0792,0.0,-3.1133,-3.1543,-3.1514,-3.0576,-3.0312,0.0,-2.8369,0.0,0.0,-2.5508,-2.4785,-2.373,-2.2266,-2.2236,0.0,-2.0283,0.0,0.0,-1.9156,0.0,0.0,0.0,0.0,-1.9824,0.0,-1.9026,-1.8721,-1.8237,-1.8086,-1.8301,0.0,-1.7132,-1.6306,-1.572,-1.4648,-1.3028,-1.1336,-1.1082,-1.0969,-1.0969,-1.1129,-1.1383,-1.1677,-1.1971,-1.2178,-1.2305,-1.2305,-1.2305,-1.2345,-1.2549,-1.2425,-1.1819,-0.9947,-0.9478,-0.8798,-0.6603,-0.6317,-0.6306,0.0,0.0,0.0,0.0,0.0,0.0,0.0,0.0,0.0,0.0,-0.487,0.0,-0.5129,-0.51,-0.5058,-0.5058,-0.5127,-0.5413,-0.6002,-0.5771,-0.5745,-0.6045,-0.5878,-0.5854,-0.6,-0.6129,-0.6193,-0.6196,-0.6281,-0.6369,-0.6497,-0.6536,-0.662,-0.6705,-0.677,-0.6851,-0.6889,-0.6953,-0.7024,-0.7119,-0.7383,-0.7268,-0.6915,-0.6915,-0.6435,-0.5713,-2.1288,0.0,0.0,0.0,0.0,-2.6201,-2.5703,-2.6103,-2.6961,-2.8447,-2.9795,-3.0439,-2.9961,-3.0869,-3.1348,-3.0928,-3.0459,-2.9697,-2.8535,-2.8018,-2.7072,-2.5439,-2.4795,-2.376,-2.2168,-2.1973,-2.1299,0.0,0.0,0.0,0.0,0.0,0.0,0.0,0.0,0.0,0.0,-1.8939,-1.8568,-1.849,-1.812,-1.794,-1.7716,-1.6784,-1.5825,-1.4879,-1.3882,-1.2827,-1.1826,-1.1283,-1.1249,-1.1395,-1.1435,-1.1663,-1.196,-1.2218,-1.2305,-1.2305,-1.2305,-1.2305,-1.2305,-1.2305,-1.2305,-1.1774,-0.975,-0.9296,-0.8675,-0.6494,-0.6166,-0.618,-0.5752,0.0,0.0,0.0,0.0,0.0,0.0,0.0,0.0,0.0,0.0,0.0,-0.4799,-0.4651,-0.4535,-0.4494,-0.4614,-0.4735,-0.4881,0.0,-0.5228,-0.5606,-0.5884,-0.6122,-0.6358,-0.6573,-0.6712,-0.6729,-0.6709,-0.6712,-0.6729,-0.6729,-0.6742,-0.6766,-0.6856,-0.6913,-0.6923,-0.7065,-0.7149,-0.721,-0.7333,-0.6819,-0.5979,-0.5627,-0.5419,-0.5145,-2.2275,0.0,0.0,0.0,0.0,-2.6807,-2.8057,-2.9531,-3.0488,-3.0439,-3.1846,-3.2568,-3.1797,-3.1601,-3.1348,-3.0928,-3.0459,0.0,0.0,0.0,0.0,-2.6719,-2.5566,-2.4482,-2.3477,-2.2422,-2.1602,0.0,0.0,0.0,0.0,0.0,0.0,0.0,0.0,0.0,-1.9365,-1.8822,0.0,-1.8115,-1.8037,-1.7545,-1.674,-1.579,-1.4843,-1.3846,-1.2879,-1.2256,-1.1893,-1.1785,-1.1583,-1.1435,-1.1717,-1.1866,-1.196,-1.2218,-1.2305,-1.2305,-1.2305,-1.2305,-1.2305,-1.2305,-1.2305,-1.1774,-0.975,-0.9296,-0.8718,-0.6681,-0.6279,-0.6276,-0.6197,-0.6081,0.0,0.0,0.0,0.0,0.0,0.0,0.0,0.0,0.0,-0.5033,0.0,0.0,-0.4735,-0.4508,-0.4515,-0.4651,-0.4874,0.0,-0.5206,0.0,-0.5935,-0.622,0.0,-0.6675,-0.6763,-0.6846,-0.6759,-0.6766,-0.6846,-0.6846,-0.691,-0.7021,-0.7048,-0.7058,-0.7071,-0.7268,-0.7475,-0.7556,-0.654,-0.6059,-0.5727,-0.3519,-0.271,-0.2652,-2.4434,0.0,0.0,0.0,0.0,-2.8467,-2.9746,-3.1211,-3.1787,-3.0674,-3.1055,-3.1182,-3.0547,-3.0908,-3.1016,-3.0566,-3.0127,-2.9687,-2.9258,-2.8437,-2.7685,-2.7041,-2.5762,-2.4715,-2.3809,-2.209,-2.1211,-2.119,0.0,0.0,0.0,0.0,0.0,0.0,0.0,-2.0,0.0,0.0,-1.8721,-1.8295,-1.8295,-1.7612,-1.6498,-1.5552,-1.4593,-1.3564,-1.2629,-1.2211,-1.2107,-1.1953,-1.177,-1.1683,-1.1859,-1.1906,-1.196,-1.2218,-1.1922,-1.1502,-1.1502,-1.113,-1.0726,-1.0726,-1.0726,-1.0346,-0.8879,-0.8504,-0.8084,-0.6606,-0.63,-0.63,-0.63,-0.6071,-0.5915,0.0,0.0,0.0,0.0,0.0,0.0,0.0,0.0,0.0,0.0,0.0,0.0,0.0,0.0,0.0,0.0,0.0,-0.5235,0.0,0.0,0.0,-0.6698,-0.6932,-0.7044,-0.6994,-0.6356,-0.6054,-0.6116,-0.5452,-0.5203,-0.5305,-0.6031,-0.6262,-0.6265,-0.7067,-0.7546,-0.7662,-0.6346,-0.548,-0.472,-0.2715,-0.1561,-0.0958,0.0,-2.6523,0.0,0.0,-2.9287,-3.0185,-3.0801,-3.1973,-3.2275,-3.081,-3.0244,-2.9853,-2.9512,-3.0322,-3.0703,-3.0234,-2.9814,-2.9385,-2.8945,-2.8135,-2.7562,-2.7168,-2.5898,-2.4853,-2.4082,-2.1985,-2.0977,0.0,0.0,0.0,0.0,0.0,0.0,0.0,0.0,0.0,0.0,-1.9095,-1.8678,-1.8063,-1.8063,-1.7314,-1.6093,-1.5303,-1.4387,-1.3411,-1.2688,-1.2358,-1.2285,-1.2184,-1.2107,-1.2,-1.2,-1.2,-1.204,-1.2231,-1.1583,-1.0795,-1.0816,-1.0084,-0.9306,-0.9352,-0.9332,-0.9031,-0.8012,-0.7783,-0.7518,-0.649,-0.63,-0.63,-0.63,-0.6102,-0.5939,0.0,0.0,0.0,0.0,0.0,0.0,0.0,0.0,0.0,-0.4913,0.0,0.0,0.0,0.0,0.0,-0.4931,0.0,0.0,0.0,-0.6237,-0.6576,-0.6793,-0.7146,-0.7156,-0.6828,-0.5855,-0.5258,-0.499,-0.4017,-0.3606,-0.366,-0.4728,-0.5298,-0.5552,-0.6623,-0.7382,-0.7664,-0.6041,-0.4856,-0.3815,-0.2163,-0.0907,0.0,0.0,0.0,0.0,-2.8838,-3.0234,-3.123,-3.0937,-3.1973,-3.2598,-3.206,-3.1601,-3.1318,-3.1279,-3.1045,-3.0703,-3.0234,-2.9814,-2.9385,-2.8945,-2.8135,-2.7699,-2.766,-2.6367,-2.5449,-2.5008,-2.2895,-2.1592,0.0,0.0,-1.8151,0.0,0.0,0.0,0.0,0.0,-1.813,-1.6636,-1.7887,-1.7561,-1.6254,-1.6254,-1.5669,-1.4751,-1.4419,-1.3714,-1.2858,-1.2775,-1.2569,-1.2385,-1.2906,-1.2719,-1.2265,-1.2265,-1.2265,-1.2265,-1.2291,-1.1583,-1.0836,-1.0956,-1.0171,-0.9347,-0.9456,-0.9399,-0.9031,-0.8012,-0.7783,-0.7518,-0.649,-0.63,-0.63,-0.63,-0.6276,-0.6262,-0.6276,0.0,0.0,0.0,0.0,-0.5677,0.0,0.0,0.0,0.0,-0.4869,-0.497,-0.3951,-0.4396,0.0,0.0,0.0,-0.5515,-0.5789,-0.6237,-0.6675,-0.7051,-0.7095,-0.674,-0.5938,-0.5558,-0.4821,-0.3767,-0.365,-0.3591,-0.3597,-0.3739,-0.454,-0.5777,-0.5876,-0.6735,-0.7717,-0.5155,-0.4109,-0.3665,-0.1109,-0.0101,0.0,-2.915,-2.9258,-2.9639,-3.0693,-3.0791,-3.1025,-3.1904,-3.2031,-3.1963,-3.1797,-3.1621,-3.1426,-3.1172,-3.0996,-3.0605,-2.9883,-2.9668,-2.9277,-2.8594,-2.8232,-2.793,-2.7728,-2.668,-2.5918,-2.5478,-2.3359,-2.2178,0.0,0.0,0.0,0.0,0.0,0.0,-1.7797,-1.7672,-1.7184,-1.6528,-1.7105,-1.6837,-1.6016,-1.6313,-1.57,-1.4593,-1.4467,-1.3853,-1.3026,-1.3026,-1.2946,-1.2886,-1.3126,-1.2926,-1.2636,-1.2792,-1.2846,-1.2846,-1.2846,-1.1609,-1.0286,-1.0343,-0.902,-0.7631,-0.7769,-0.7644,-0.7427,-0.7105,-0.6939,-0.6795,-0.6377,-0.63,-0.63,-0.63,-0.63,-0.63,-0.63,0.0,0.0,0.0,0.0,0.0,0.0,0.0,0.0,0.0,-0.5078,-0.5176,-0.4996,0.0,0.0,0.0,-0.5189,-0.5399,-0.5789,-0.6194,-0.6515,-0.6871,-0.634,-0.5914,-0.5544,-0.398,-0.3004,-0.249,-0.1753,-0.1866,-0.2657,-0.2563,-0.3371,-0.4712,-0.4612,-0.4986,-0.542,-0.3516,-0.2815,-0.2564,-0.0706,0.0,0.0,-3.0537,-3.0449,-3.0859,-3.2285,-3.166,-3.1338,-3.2441,-3.1992,-3.1475,-3.1348,-3.1338,-3.1221,-3.0928,-3.0771,-3.0439,-2.9814,-2.9521,-2.9121,-2.8516,-2.8359,-2.8164,-2.7861,-2.7148,0.0,-2.5937,-2.4053,-2.2891,-2.251,-2.0872,0.0,0.0,-1.7597,-1.7169,-1.6838,-1.6533,-1.6221,-1.5949,-1.6261,-1.6039,-1.5489,-1.5808,-1.5338,-1.4421,-1.4327,-1.391,-1.334,-1.334,-1.328,-1.324,-1.3414,-1.3267,-1.3033,-1.3166,-1.3213,-1.3213,-1.3213,-1.1896,-1.0363,-1.0065,-0.8549,-0.7016,-0.6812,-0.6576,-0.6457,-0.6555,-0.6501,-0.6416,-0.6371,-0.6361,-0.6351,-0.6306,-0.6334,-0.6351,-0.6306,0.0,0.0,0.0,-0.5935,0.0,0.0,-0.559,-0.5406,-0.509,-0.5163,-0.5262,-0.5319,0.0,0.0,-0.5292,-0.5295,-0.546,-0.5857,-0.6251,-0.6433,-0.6334,-0.5756,-0.5125,-0.4359,-0.262,-0.1632,-0.1249,-0.0387,-0.0537,-0.1431,-0.1334,-0.2089,-0.3412,-0.332,-0.3575,-0.3865,-0.2514,-0.2013,-0.1862,-0.0504,0.0,0.0,-3.1328,-3.1846,-3.2412,-3.3252,-3.3047,-3.2627,-3.2236,-3.1797,-3.1367,-3.0957,-3.0898,-3.0898,-3.0889,-3.0478,-3.0205,-3.0185,-2.9414,-2.8926,-2.8916,-2.8525,-2.8291,0.0,0.0,-2.7307,-2.6396,-2.5078,-2.3779,-2.251,0.0,0.0,-1.8926,-1.6764,-1.5703,-1.5737,-1.5696,-1.513,-1.4201,-1.5247,-1.5088,-1.4117,-1.4117,-1.4124,-1.409,-1.3748,-1.36,-1.36,-1.36,-1.3413,-1.33,-1.3881,-1.3881,-1.354,-1.326,-1.3213,-1.3213,-1.3213,-1.2479,-1.1474,-1.0471,-0.9289,-0.816,-0.7137,-0.681,-0.6695,-0.6698,-0.6698,-0.6654,-0.6542,-0.6511,-0.6467,-0.6327,-0.6416,-0.6463,-0.6323,-0.63,0.0,0.0,-0.599,0.0,-0.5817,-0.5796,-0.538,-0.4335,-0.5058,0.0,0.0,-0.5061,-0.5647,-0.5786,-0.5793,-0.5864,-0.5986,-0.6566,-0.6399,-0.5428,-0.5536,-0.4403,-0.2053,-0.186,-0.1176,0.0,0.0,0.0,0.0,0.0,-0.0806,-0.2013,-0.2012,-0.2814,-0.3865,-0.2514,-0.2013,-0.1862,-0.0504,0.0,0.0,-3.1523,-3.21,-3.2588,-3.2578,-3.2207,-3.1982,-3.2148,-3.1553,-3.1143,-3.1299,-3.1064,-3.0889,-3.0889,-3.0762,-3.043,-2.9824,-2.9521,-2.9111,-2.8535,-2.8369,-2.8291,-2.8291,-2.7891,-2.7393,-2.6826,-2.5537,-2.4375,-2.3389,-2.2769,-2.1736,-2.0241,-1.7861,-1.6494,-1.6075,-1.5468,-1.4795,-1.4137,-1.4667,-1.4597,-1.4088,-1.4088,-1.4088,-1.4075,-1.3981,-1.3948,-1.3948,-1.3948,-1.3888,-1.3834,-1.4028,-1.3497,-1.271,-1.2624,-1.26,-1.26,-1.26,-1.1248,-0.9871,-1.0361,-0.8956,-0.7307,-0.7078,-0.6885,-0.6729,-0.6831,-0.6776,-0.6685,-0.6637,-0.6627,-0.6614,-0.6569,-0.6597,-0.658,-0.647,-0.6446,0.0,-0.6207,0.0,-0.5976,-0.5925,-0.5864,-0.5675,-0.5341,-0.5554,-0.5712,-0.565,-0.5706,-0.5752,-0.58,-0.5898,-0.6071,-0.6322,-0.6719,-0.6408,-0.5387,-0.4713,-0.3545,-0.1862,-0.0994,-0.035,0.0,0.0,0.0,0.0,0.0,-0.0252,-0.0656,-0.0656,-0.0907,-0.1209,-0.0807,-0.0656,-0.0605,-0.0151,0.0,0.0,-3.1601,-3.2334,-3.2842,-3.2275,-3.1943,-3.1797,-3.1904,-3.1338,-3.0986,-3.125,-3.1055,-3.0889,-3.0889,-3.0889,-3.0596,-2.9863,-2.9365,-2.8926,-2.8555,-2.7876,-2.7447,-2.7447,-2.6561,-2.5887,-2.542,-2.4254,-2.3304,-2.2603,-2.1473,-2.0342,-1.9218,-1.7294,-1.6217,-1.5914,-1.5274,-1.4867,-1.4576,-1.4536,-1.4416,-1.4242,-1.4128,-1.4088,-1.4088,-1.4088,-1.4088,-1.4088,-1.4088,-1.4088,-1.4088,-1.4088,-1.3294,-1.2242,-1.1809,-1.1381,-1.1123,-1.1552,-1.0654,-0.9623,-0.9879,-0.8845,-0.7548,-0.7204,-0.6957,-0.6892,-0.6943,-0.6852,-0.6787,-0.6787,-0.6787,-0.677,-0.6712,-0.6749,-0.6719,-0.6545,-0.6511,-0.6463,-0.632,0.0,-0.6013,0.0,0.0,-0.5952,-0.5891,-0.5989,-0.6088,-0.6169,-0.6152,-0.6115,-0.6054,-0.6142,-0.6308,-0.6549,-0.6963,-0.6382,-0.4804,-0.4181,-0.2965,-0.1091,-0.0351,0.0,0.0,0.0,0.0,0.0,0.0,0.0,0.0,0.0,0.0,0.0,0.0,0.0,0.0,0.0,0.0,0.0,-3.165,-3.2519,-3.3076,-3.2266,-3.216,-3.1943,-3.1533,-3.1143,-3.0889,-3.0889,-3.0889,-3.0889,-3.0889,-3.0859,-3.0674,-3.0234,-2.9082,-2.8525,-2.8857,-2.7148,-2.61,-2.61,-2.4359,-2.3174,-2.2704,-2.1743,-2.099,-2.0528,-1.8388,-1.7176,-1.6794,-1.5676,-1.5293,-1.5516,-1.5182,-1.515,-1.5331,-1.4803,-1.4569,-1.4529,-1.4255,-1.4135,-1.4115,-1.4115,-1.4108,-1.4088,-1.4088,-1.4088,-1.4088,-1.4108,-1.3277,-1.2009,-1.0977,-0.9772,-0.9034,-1.0144,-1.0438,-1.0135,-0.9148,-0.8846,-0.8496,-0.736,-0.7095,-0.7095,-0.7095,-0.6994,-0.69,-0.69,-0.69,-0.6859,-0.6756,-0.6848,-0.6844,-0.6536,-0.6528,-0.6474,-0.632,-0.6146,-0.6112,-0.6296,-0.6334,-0.6247,-0.6054,-0.6325,-0.638,-0.6074,-0.6468,-0.6606,-0.6401,-0.6414,-0.6487,-0.6614,-0.7173,-0.6241,-0.3722,-0.3785,-0.2564,0.0,0.0,0.0,0.0,0.0,0.0,0.0,0.0,0.0,0.0,0.0,0.0,0.0,0.0,0.0,0.0,0.0,0.0,0.0,-3.21,-3.2256,-3.2295,-3.1768,-3.1406,-3.1162,-3.1055,-3.0957,-3.0889,-3.0889,-3.0889,-3.0889,-3.0889,-3.0576,-3.0322,-3.0205,-2.9629,-2.9033,-2.8476,-2.6989,-2.61,-2.61,-2.4359,-2.3174,-2.2704,-2.1991,-2.1073,-2.0063,-1.9298,-1.8915,-1.8789,-1.7629,-1.6943,-1.6723,-1.5956,-1.5418,-1.5115,-1.515,-1.5064,-1.4901,-1.4827,-1.4616,-1.4422,-1.4422,-1.4282,-1.4088,-1.4088,-1.4088,-1.4122,-1.4342,-1.2951,-1.1128,-1.0996,-0.9495,-0.7964,-0.9016,-0.8667,-0.8053,-0.8715,-0.8233,-0.7445,-0.7183,-0.7095,-0.7095,-0.7095,-0.7068,-0.7048,-0.7048,-0.7048,-0.7034,-0.7001,-0.7021,-0.695,-0.6695,-0.6647,-0.6556,-0.6337,-0.6361,-0.638,-0.6457,-0.6627,-0.6712,-0.6556,-0.6607,-0.6664,-0.667,-0.6709,-0.6315,-0.5489,-0.5668,-0.5783,-0.5726,-0.6053,-0.4992,-0.2448,-0.2459,-0.1662,0.0,0.0,0.0,0.0,0.0,0.0,0.0,0.0,0.0,0.0,0.0,0.0,0.0,0.0,0.0,0.0,0.0,0.0,0.0,-3.1992,-3.2187,-3.2197,-3.1377,-3.1201,-3.1113,-3.0918,-3.0889,-3.0889,-3.0889,-3.0889,-3.0889,-3.0889,-3.0664,-3.043,-3.0215,-2.9629,-2.8787,-2.7661,-2.5989,-2.4765,-2.4092,-2.2324,-2.1178,-2.0792,-2.0174,-1.9285,-1.8243,-1.7967,-1.7801,-1.7801,-1.7124,-1.675,-1.654,-1.6028,-1.5651,-1.5357,-1.5384,-1.5304,-1.515,-1.5062,-1.4914,-1.4723,-1.4723,-1.4543,-1.4282,-1.4282,-1.4202,-1.4024,-1.3643,-1.2241,-1.0622,-1.0225,-0.8811,-0.7382,-0.7911,-0.7621,-0.7245,-0.8023,-0.7733,-0.7244,-0.7244,-0.7299,-0.7333,-0.7261,-0.7299,-0.735,-0.735,-0.735,-0.7329,-0.7258,-0.7244,-0.7126,-0.6759,-0.6702,-0.6597,-0.634,-0.6422,-0.6538,-0.6569,-0.6844,-0.695,-0.6909,-0.7027,-0.7088,-0.6987,-0.7139,-0.6901,-0.6203,-0.5931,-0.5432,-0.458,-0.4848,-0.4026,-0.2012,-0.141,-0.0706,0.0,0.0,0.0,0.0,0.0,0.0,0.0,0.0,0.0,0.0,0.0,0.0,0.0,0.0,0.0,0.0,0.0,0.0,0.0,-3.1865,-3.2246,-3.2344,-3.1182,-3.123,-3.1299,-3.0947,-3.0889,-3.0889,-3.0889,-3.0889,-3.0889,-3.0889,-3.0889,-3.0665,-2.9978,-2.9225,-2.8151,-2.6779,-2.4704,-2.2926,-2.1643,-1.9849,-1.8804,-1.8564,-1.7916,-1.7174,-1.6339,-1.6039,-1.5872,-1.5784,-1.5784,-1.5784,-1.5784,-1.5784,-1.5784,-1.5764,-1.5565,-1.5464,-1.5438,-1.5197,-1.5115,-1.503,-1.4843,-1.4665,-1.4546,-1.4364,-1.413,-1.3766,-1.2788,-1.156,-1.0231,-0.9275,-0.8149,-0.7186,-0.7142,-0.7146,-0.7189,-0.7343,-0.7436,-0.7453,-0.7453,-0.7502,-0.7567,-0.7434,-0.7506,-0.76,-0.76,-0.76,-0.756,-0.7431,-0.7433,-0.7289,-0.6865,-0.6746,-0.6614,-0.6402,-0.6491,-0.659,-0.6719,-0.6991,-0.7189,-0.7166,-0.7444,-0.7502,-0.7216,-0.7577,-0.7594,-0.7204,-0.6233,-0.4971,-0.3418,-0.3563,-0.3065,-0.1711,-0.0555,0.0,0.0,0.0,0.0,0.0,0.0,0.0,0.0,0.0,0.0,0.0,0.0,0.0,0.0,0.0,0.0,0.0,0.0,0.0,0.0,-3.2695,-3.2412,-3.209,-3.1523,-3.1182,-3.0967,-3.0898,-3.0889,-3.0889,-3.0889,-3.0889,-3.0889,-3.0889,-3.0889,-3.0304,-2.8819,-2.8272,-2.7609,-2.6769,-2.391,-2.2092,-2.1593,-1.9849,-1.8905,-1.8858,-1.8023,-1.7275,-1.664,-1.6346,-1.6079,-1.5784,-1.5784,-1.5784,-1.5784,-1.5784,-1.5784,-1.5778,-1.5785,-1.5758,-1.5711,-1.5712,-1.5545,-1.5232,-1.4093,-1.4162,-1.4756,-1.3642,-1.3147,-1.3035,-1.3162,-1.1554,-0.9485,-0.9434,-0.8621,-0.7658,-0.7407,-0.7428,-0.7506,-0.74,-0.7465,-0.7563,-0.7563,-0.7584,-0.7594,-0.757,-0.7584,-0.76,-0.76,-0.76,-0.7594,-0.7567,-0.7458,-0.7395,-0.7323,-0.6949,-0.6685,-0.6637,-0.6763,-0.6825,-0.6849,-0.7377,-0.7658,-0.7539,-0.757,-0.7631,-0.7702,-0.7662,-0.7238,-0.629,-0.5023,-0.3693,-0.2298,-0.2275,-0.1661,-0.0303,-0.0101,0.0,0.0,0.0,0.0,0.0,0.0,0.0,0.0,0.0,0.0,0.0,0.0,0.0,0.0,0.0,0.0,0.0,0.0,0.0,0.0,-3.2539,-3.2305,-3.1953,-3.1299,-3.1025,-3.0889,-3.0889,-3.0889,-3.0889,-3.0889,-3.0889,-3.0889,-3.0889,-3.0889,-3.0587,-2.9835,-2.7959,-2.6565,-2.5863,-2.3431,-2.1532,-2.0436,-1.9621,-1.9011,-1.8698,-1.7809,-1.7266,-1.6947,-1.6543,-1.6206,-1.6066,-1.5905,-1.5784,-1.5784,-1.5784,-1.5784,-1.5784,-1.5784,-1.5784,-1.5784,-1.5784,-1.5313,-1.4518,-1.3892,-1.3444,-1.313,-1.3176,-1.2637,-1.1916,-1.2189,-1.0942,-0.9207,-0.8656,-0.8106,-0.7672,-0.7536,-0.7597,-0.7699,-0.7628,-0.7719,-0.7818,-0.7733,-0.7777,-0.7814,-0.7733,-0.7777,-0.7838,-0.7838,-0.7838,-0.7811,-0.7729,-0.7594,-0.7468,-0.7433,-0.7065,-0.6851,-0.6883,-0.6953,-0.7058,-0.7272,-0.7597,-0.7524,-0.6806,-0.6757,-0.681,-0.698,-0.6939,-0.7039,-0.7334,-0.5266,-0.3825,-0.3199,-0.1719,-0.0624,0.0,0.0,0.0,0.0,0.0,0.0,0.0,0.0,0.0,0.0,0.0,0.0,0.0,0.0,0.0,0.0,0.0,0.0,0.0,0.0,0.0,0.0,-3.21,-3.2012,-3.1777,-3.1025,-3.0889,-3.0889,-3.0889,-3.0889,-3.0889,-3.0889,-3.0889,-3.0889,-3.0889,-3.0577,-3.0147,-2.9785,-2.7091,-2.5016,-2.4015,-2.2502,-2.0927,-1.9437,-1.9424,-1.9092,-1.8504,-1.7869,-1.7414,-1.7199,-1.6683,-1.6339,-1.6315,-1.5972,-1.5784,-1.5784,-1.5784,-1.5784,-1.5784,-1.5784,-1.5784,-1.5784,-1.5784,-1.5045,-1.3878,-1.3536,-1.2645,-1.1677,-1.2341,-1.1817,-1.0803,-1.0949,-1.0099,-0.8804,-0.7928,-0.7675,-0.7695,-0.7658,-0.775,-0.7865,-0.7865,-0.7901,-0.7961,-0.7892,-0.7904,-0.7958,-0.7889,-0.7907,-0.7988,-0.7988,-0.7988,-0.7955,-0.7885,-0.7746,-0.7624,-0.7539,-0.7248,-0.7082,-0.7183,-0.723,-0.7324,-0.7573,-0.7524,-0.705,-0.6113,-0.5737,-0.5577,-0.5756,-0.6073,-0.6632,-0.7413,-0.5375,-0.3904,-0.3223,-0.1122,0.0,0.0,0.0,0.0,0.0,0.0,0.0,0.0,0.0,0.0,0.0,0.0,0.0,0.0,0.0,0.0,0.0,0.0,0.0,0.0,0.0,0.0,0.0,-3.165,-3.1562,-3.1426,-3.0976,-3.0889,-3.0889,-3.0889,-3.0889,-3.0889,-3.0889,-3.0889,-3.0889,-3.0889,-2.953,-2.7991,-2.647,-2.4778,-2.2867,-2.0678,-2.0442,-2.0066,-1.945,-1.9424,-1.9092,-1.8504,-1.8424,-1.7983,-1.7199,-1.6827,-1.6533,-1.6315,-1.5972,-1.5784,-1.5784,-1.5784,-1.5784,-1.5784,-1.5784,-1.5784,-1.5784,-1.5784,-1.5045,-1.3776,-1.2522,-1.1984,-1.1726,-1.0658,-1.0096,-0.991,-1.0042,-0.9118,-0.789,-0.7794,-0.7892,-0.7931,-0.7838,-0.7902,-0.7971,-0.7971,-0.7982,-0.7985,-0.7975,-0.7982,-0.7985,-0.7975,-0.7982,-0.7988,-0.7988,-0.7988,-0.7985,-0.7975,-0.7899,-0.7838,-0.7921,-0.7624,-0.7394,-0.7546,-0.7678,-0.7723,-0.7611,-0.6877,-0.6284,-0.6041,-0.4866,-0.4176,-0.4181,-0.5499,-0.5714,-0.4399,-0.4255,-0.3013,-0.0391,-0.0108,0.0,0.0,0.0,0.0,0.0,0.0,0.0,0.0,0.0,0.0,0.0,0.0,0.0,0.0,0.0,0.0,0.0,0.0,0.0,0.0,0.0,0.0,0.0,-2.8491,-2.8473,-2.834,-2.7942,-2.7871,-2.7871,-2.7871,-2.7871,-2.7871,-2.7871,-2.7871,-2.7871,-2.7871,-2.7323,-2.6651,-2.6037,-2.454,-2.3052,-2.1809,-2.0765,-1.9973,-1.9392,-1.9192,-1.8905,-1.8497,-1.831,-1.7956,-1.7467,-1.6941,-1.674,-1.6851,-1.6139,-1.5925,-1.6092,-1.5912,-1.5784,-1.5784,-1.5784,-1.5784,-1.5784,-1.5784,-1.5045,-1.3728,-1.2431,-1.1414,-1.0681,-1.0194,-0.9416,-0.8837,-0.9682,-0.9072,-0.7904,-0.7904,-0.7941,-0.7978,-0.7921,-0.8062,-0.8184,-0.8184,-0.8113,-0.7988,-0.7988,-0.8113,-0.8184,-0.8184,-0.8252,-0.8313,-0.8313,-0.8313,-0.8313,-0.8313,-0.8194,-0.8143,-0.8292,-0.8018,-0.7872,-0.8113,-0.8116,-0.8109,-0.8143,-0.7875,-0.7293,-0.6409,-0.4961,-0.417,-0.4325,-0.3983,-0.3893,-0.4282,-0.3437,-0.2055,-0.0056,0.0,0.0,0.0,0.0,0.0,0.0,0.0,0.0,0.0,0.0,0.0,0.0,0.0,0.0,0.0,0.0,0.0,0.0,0.0,0.0,0.0,0.0,0.0,0.0,-2.6426,-2.6426,-2.6343,-2.6026,-2.5976,-2.5976,-2.5976,-2.5976,-2.5976,-2.5976,-2.5976,-2.5976,-2.5976,-2.5558,-2.5261,-2.5261,-2.3745,-2.2566,-2.1929,-2.0706,-1.978,-1.9444,-1.9172,-1.8885,-1.8497,-1.829,-1.7989,-1.7582,-1.7088,-1.6947,-1.7186,-1.6433,-1.6213,-1.64,-1.6199,-1.6052,-1.5972,-1.5972,-1.5912,-1.5784,-1.5784,-1.5045,-1.3728,-1.2431,-1.1121,-0.9948,-0.9509,-0.8775,-0.8137,-0.9069,-0.8775,-0.7988,-0.7988,-0.7988,-0.7998,-0.8099,-0.8187,-0.8333,-0.8378,-0.8258,-0.818,-0.818,-0.8258,-0.8336,-0.8336,-0.8411,-0.8482,-0.8482,-0.8482,-0.8482,-0.8482,-0.8404,-0.837,-0.8465,-0.8313,-0.8248,-0.8455,-0.8438,-0.8428,-0.8476,-0.8189,-0.7582,-0.6579,-0.5184,-0.4169,-0.3826,-0.326,-0.323,-0.3748,-0.2342,-0.1023,-0.0057,0.0,0.0,0.0,0.0,0.0,0.0,0.0,0.0,0.0,0.0,0.0,0.0,0.0,0.0,0.0,0.0,0.0,0.0,0.0,0.0,0.0,0.0,0.0,0.0,-2.5976,-2.5976,-2.5976,-2.5976,-2.5976,-2.5976,-2.5976,-2.5976,-2.5976,-2.5976,-2.5976,-2.5976,-2.5976,-2.454,-2.3574,-2.3574,-2.2034,-2.0862,-2.0213,-1.9693,-1.943,-1.9424,-1.9424,-1.9092,-1.8504,-1.849,-1.819,-1.7582,-1.734,-1.7199,-1.7199,-1.6847,-1.6707,-1.6707,-1.6707,-1.6547,-1.6279,-1.6321,-1.6106,-1.5784,-1.5784,-1.5045,-1.3728,-1.2431,-1.1121,-0.9801,-0.8482,-0.7988,-0.7988,-0.7988,-0.7988,-0.7988,-0.7992,-0.7992,-0.8022,-0.8225,-0.8323,-0.8354,-0.8445,-0.8486,-0.8486,-0.8482,-0.8482,-0.8482,-0.8482,-0.8486,-0.8486,-0.8486,-0.8486,-0.8486,-0.8486,-0.8486,-0.8486,-0.8486,-0.8486,-0.8486,-0.8486,-0.8618,-0.8659,-0.8503,-0.744,-0.6659,-0.6544,-0.5444,-0.4006,-0.235,-0.3721,-0.3929,-0.229,-0.0824,0.0,0.0,0.0,0.0,0.0,0.0,0.0,0.0,0.0,0.0,0.0,0.0,0.0,0.0,0.0,0.0,0.0,0.0,0.0,0.0,0.0,0.0,0.0,0.0,0.0,0.0,-2.257,-2.257,-2.257,-2.257,-2.257,-2.257,-2.257,-2.257,-2.257,-2.257,-2.257,-2.257,-2.257,-2.2153,-2.1853,-2.1853,-2.1418,-2.0862,-2.0213,-1.988,-1.9579,-1.943,-1.9424,-1.9092,-1.8504,-1.849,-1.819,-1.7582,-1.734,-1.7306,-1.7494,-1.6941,-1.682,-1.7058,-1.68,-1.666,-1.6567,-1.6359,-1.6219,-1.6119,-1.5912,-1.5045,-1.3728,-1.2431,-1.1121,-0.9801,-0.8482,-0.7988,-0.7988,-0.7988,-0.7988,-0.8008,-0.8167,-0.8201,-0.8228,-0.8377,-0.8496,-0.8587,-0.8632,-0.872,-0.875,-0.8537,-0.8564,-0.8642,-0.8642,-0.8726,-0.8801,-0.8801,-0.8882,-0.9009,-0.9009,-0.9009,-0.9009,-0.9009,-0.9009,-0.8916,-0.8815,-0.9022,-0.9086,-0.8835,-0.867,-0.8556,-0.8413,-0.7198,-0.568,-0.4084,-0.2382,-0.1196,-0.0658,-0.0237,0.0,0.0,0.0,0.0,0.0,0.0,0.0,0.0,0.0,0.0,0.0,0.0,0.0,0.0,0.0,0.0,0.0,0.0,0.0,0.0,0.0,0.0,0.0,0.0,0.0,0.0,-2.1229,-2.1109,-2.1109,-2.1109,-2.1109,-2.1109,-2.1109,-2.1109,-2.1109,-2.1109,-2.1109,-2.1109,-2.1109,-2.1109,-2.1109,-2.1109,-2.0895,-2.0615,-2.0193,-1.9853,-1.9553,-1.943,-1.9424,-1.9092,-1.8504,-1.849,-1.819,-1.7582,-1.746,-1.746,-1.7575,-1.7215,-1.7148,-1.7367,-1.7134,-1.6987,-1.686,-1.6567,-1.638,-1.6246,-1.5945,-1.5045,-1.3728,-1.2431,-1.1121,-0.9801,-0.8482,-0.7988,-0.7998,-0.8109,-0.817,-0.8231,-0.8326,-0.8353,-0.8384,-0.853,-0.8638,-0.8737,-0.8852,-0.8954,-0.8991,-0.8869,-0.8818,-0.8815,-0.8872,-0.8957,-0.9039,-0.9103,-0.9184,-0.9299,-0.9299,-0.9299,-0.9299,-0.9299,-0.9299,-0.9211,-0.9127,-0.9269,-0.9313,-0.9133,-0.9273,-0.9344,-0.9309,-0.8574,-0.716,-0.4965,-0.1822,0.0,0.0,0.0,0.0,0.0,0.0,0.0,0.0,0.0,0.0,0.0,0.0,0.0,0.0,0.0,0.0,0.0,0.0,0.0,0.0,0.0,0.0,0.0,0.0,0.0,0.0,0.0,0.0,0.0,-2.1418,-2.1109,-2.1109,-2.1109,-2.1109,-2.1109,-2.1109,-2.1109,-2.1109,-2.1109,-2.1109,-2.1109,-2.1109,-2.1109,-2.1109,-2.1109,-2.0621,-2.0301,-2.0274,-1.9753,-1.9432,-1.9464,-1.9379,-1.9105,-1.8544,-1.8504,-1.821,-1.7622,-1.7595,-1.7582,-1.7582,-1.7582,-1.7582,-1.7582,-1.7582,-1.7363,-1.7025,-1.6783,-1.6497,-1.6133,-1.5911,-1.4968,-1.3619,-1.2387,-1.1023,-0.9657,-0.845,-0.8012,-0.8032,-0.8238,-0.8374,-0.8486,-0.8513,-0.8523,-0.8557,-0.872,-0.8771,-0.8828,-0.9156,-0.9231,-0.9265,-0.9347,-0.9178,-0.9015,-0.92,-0.9231,-0.9268,-0.9354,-0.9391,-0.9401,-0.9401,-0.9401,-0.9401,-0.9401,-0.9401,-0.9398,-0.9384,-0.9405,-0.9412,-0.9384,-0.9405,-0.9357,-0.9224,-0.9058,-0.775,-0.4921,-0.1788,0.0,0.0,0.0,0.0,0.0,0.0,0.0,0.0,0.0,0.0,0.0,0.0,0.0,0.0,0.0,0.0,0.0,0.0,0.0,0.0,0.0,0.0,0.0,0.0,0.0,0.0,0.0,0.0,0.0,-2.1172,-2.1109,-2.1109,-2.1109,-2.1109,-2.1109,-2.1109,-2.1109,-2.1109,-2.1109,-2.1109,-2.1109,-2.1109,-2.1109,-2.1109,-2.1109,-2.0995,-2.0822,-2.0595,-2.0241,-1.9947,-1.972,-1.9492,-1.9199,-1.8838,-1.8604,-1.831,-1.7896,-1.7702,-1.7582,-1.7582,-1.7582,-1.7582,-1.7582,-1.7582,-1.6885,-1.5664,-1.6423,-1.6103,-1.5182,-1.5641,-1.4546,-1.2683,-1.2114,-1.0485,-0.84,-0.8278,-0.8221,-0.8241,-0.8387,-0.8459,-0.8523,-0.8764,-0.8842,-0.8893,-0.9157,-0.9235,-0.9252,-0.9313,-0.9334,-0.934,-0.9371,-0.9334,-0.9293,-0.9323,-0.9334,-0.934,-0.9374,-0.9476,-0.9561,-0.9561,-0.9561,-0.9561,-0.9561,-0.9561,-0.9517,-0.9398,-0.9581,-0.9639,-0.9408,-0.9585,-0.9134,-0.7711,-0.5452,-0.3757,-0.3066,-0.1117,0.0,0.0,0.0,0.0,0.0,0.0,0.0,0.0,0.0,0.0,0.0,0.0,0.0,0.0,0.0,0.0,0.0,0.0,0.0,0.0,0.0,0.0,0.0,0.0,0.0,0.0,0.0,0.0,0.0,-2.1229,-2.1109,-2.1109,-2.1109,-2.1109,-2.1109,-2.1109,-2.1109,-2.1109,-2.1109,-2.1109,-2.1109,-2.1109,-2.1109,-2.1109,-2.1109,-2.0982,-2.0842,-2.0688,-2.0401,-2.01,-1.9813,-1.9659,-1.9439,-1.9145,-1.8844,-1.8484,-1.7995,-1.7876,-1.7722,-1.7582,-1.7582,-1.7582,-1.7582,-1.7582,-1.6746,-1.5317,-1.5733,-1.5092,-1.3865,-1.4102,-1.308,-1.1397,-1.1188,-0.9883,-0.8252,-0.8265,-0.836,-0.8492,-0.8567,-0.8686,-0.8883,-0.8991,-0.9093,-0.9181,-0.9334,-0.9381,-0.9398,-0.9469,-0.949,-0.9507,-0.9574,-0.9591,-0.9574,-0.9507,-0.949,-0.951,-0.9578,-0.9656,-0.971,-0.971,-0.971,-0.971,-0.971,-0.971,-0.9683,-0.9602,-0.9724,-0.9764,-0.9608,-0.9727,-0.914,-0.7418,-0.5067,-0.3306,-0.258,-0.0939,0.0,0.0,0.0,0.0,0.0,0.0,0.0,0.0,0.0,0.0,0.0,0.0,0.0,0.0,0.0,0.0,0.0,0.0,0.0,0.0,0.0,0.0,0.0,0.0,0.0,0.0,0.0,0.0,0.0,-2.1355,-2.1109,-2.1109,-2.1109,-2.1109,-2.1109,-2.1109,-2.1109,-2.1109,-2.1109,-2.1109,-2.1109,-2.1109,-2.1109,-2.1109,-2.1109,-2.0889,-2.0755,-2.0755,-2.0474,-2.0201,-1.996,-1.9853,-1.9686,-1.9446,-1.9152,-1.8711,-1.8069,-1.805,-1.7869,-1.7582,-1.7582,-1.7582,-1.7582,-1.7582,-1.6745,-1.5341,-1.5123,-1.4143,-1.2805,-1.2538,-1.1648,-1.0468,-1.028,-0.9492,-0.8469,-0.8377,-0.852,-0.8754,-0.8777,-0.895,-0.9217,-0.9272,-0.9317,-0.9425,-0.9449,-0.9456,-0.9483,-0.9612,-0.9646,-0.9676,-0.9791,-0.9822,-0.9791,-0.9673,-0.9646,-0.968,-0.9795,-0.9822,-0.9822,-0.9822,-0.9822,-0.9822,-0.9822,-0.9842,-0.9859,-0.9859,-0.9883,-0.99,-0.99,-0.9339,-0.8459,-0.7135,-0.5238,-0.3534,-0.215,-0.076,0.0,0.0,0.0,0.0,0.0,0.0,0.0,0.0,0.0,0.0,0.0,0.0,0.0,0.0,0.0,0.0,0.0,0.0,0.0,0.0,0.0,0.0,0.0,0.0,0.0,0.0,0.0,0.0,0.0,-2.1172,-2.1109,-2.1109,-2.1109,-2.1109,-2.1109,-2.1109,-2.1109,-2.1109,-2.1109,-2.1109,-2.1109,-2.1109,-2.1109,-2.1109,-2.1109,-2.1076,-2.1049,-2.1049,-2.0775,-2.0601,-2.0561,-2.0074,-1.978,-1.974,-1.9459,-1.9018,-1.843,-1.815,-1.7869,-1.7582,-1.7582,-1.7582,-1.7582,-1.7582,-1.6695,-1.5204,-1.5059,-1.4242,-1.2958,-1.2538,-1.1784,-1.082,-1.0473,-0.96,-0.8496,-0.8611,-0.876,-0.8927,-0.9052,-0.9176,-0.9255,-0.9462,-0.9561,-0.9602,-0.9727,-0.9761,-0.9768,-0.9788,-0.9791,-0.9795,-0.9815,-0.9822,-0.9815,-0.9795,-0.9791,-0.9798,-0.9819,-0.9822,-0.9822,-0.9822,-0.9822,-0.9822,-0.9822,-0.9869,-0.9957,-0.9957,-1.0134,-1.0219,-1.0219,-0.759,-0.5646,-0.5405,-0.2521,-0.0579,-0.0386,-0.0129,0.0,0.0,0.0,0.0,0.0,0.0,0.0,0.0,0.0,0.0,0.0,0.0,0.0,0.0,0.0,0.0,0.0,0.0,0.0,0.0,0.0,0.0,0.0,0.0,0.0,0.0,0.0,0.0,0.0,-2.1109,-2.1109,-2.1109,-2.1109,-2.1109,-2.1109,-2.1109,-2.1109,-2.1109,-2.1109,-2.1109,-2.1109,-2.1109,-2.1109,-2.1109,-2.1109,-2.1109,-2.1109,-2.1109,-2.0989,-2.0848,-2.0681,-2.0267,-1.9967,-1.9806,-1.9512,-1.9158,-1.8731,-1.8591,-1.829,-1.7842,-1.7842,-1.7749,-1.7582,-1.7582,-1.6759,-1.5311,-1.5253,-1.397,-1.193,-1.1741,-1.0911,-0.9787,-0.9511,-0.9137,-0.8747,-0.8815,-0.8824,-0.8905,-0.9103,-0.9265,-0.932,-0.954,-0.9663,-0.9741,-0.9802,-0.9822,-0.9822,-0.9822,-0.9822,-0.9822,-0.9822,-0.9886,-0.9886,-0.9886,-1.0015,-1.0053,-0.9906,-1.0015,-1.0049,-0.9903,-1.0019,-1.0049,-0.9903,-1.008,-0.9794,-0.8772,-0.8759,-0.8408,-0.738,-0.5904,-0.4649,-0.3737,-0.2288,-0.0979,-0.0065,0.0,0.0,0.0,0.0,0.0,0.0,0.0,0.0,0.0,0.0,0.0,0.0,0.0,0.0,0.0,0.0,0.0,0.0,0.0,0.0,0.0,0.0,0.0,0.0,0.0,0.0,0.0,0.0,0.0,0.0]},{"header":{"parameterUnit":"m.s-1","parameterCategory":1,"la1":30.6,"la2":28.766,"lo1":-90.7593,"lo2":-88.6598,"dy":0.0162,"dx":0.0183,"nx":116,"ny":114,"refTime":"2023-09-19T00:00:00:Z","depth":0,"parameterNumber":3,"parameterNumberName":"V-component_of_WINDS"},"data":[0.0,0.0,0.0,0.0,0.0,0.0,0.0,0.0,0.0,0.0,0.0,0.0,0.0,0.0,0.0,0.0,0.0,0.0,0.0,0.0,0.0,0.0,0.0,0.0,0.0,0.0,0.0,0.0,0.0,0.0,0.0,0.0,0.0,0.0,0.0,0.0,0.0,0.0,0.0,0.0,0.0,0.0,0.0,0.0,0.0,0.0,0.0,0.0,0.0,0.0,0.0,0.0,0.0,0.0,0.0,0.0,0.0,0.0,0.0,0.0,0.0,0.0,0.0,0.0,0.0,0.0,0.0,0.0,0.0,0.0,0.0,0.0,0.0,0.0,0.0,0.0,0.0,0.0,0.0,0.0,0.0,0.0,0.0,0.0,0.0,0.0,0.0,0.0,0.0,0.0,0.0,0.0,0.0,0.0,0.0,0.0,0.0,0.0,0.0,0.0,0.0,0.0,0.0,0.0,0.0,0.0,0.0,0.0,0.0,0.0,0.0,0.0,0.0,0.0,0.0,0.0,0.0,0.0,0.0,0.0,0.0,0.0,0.0,0.0,0.0,0.0,0.0,0.0,0.0,0.0,0.0,0.0,0.0,0.0,0.0,0.0,0.0,0.0,0.0,0.0,0.0,0.0,0.0,0.0,0.0,0.0,0.0,0.0,0.0,0.0,0.0,0.0,0.0,0.0,0.0,0.0,0.0,0.0,0.0,0.0,0.0,0.0,0.0,0.0,0.0,0.0,0.0,0.0,0.0,0.0,0.0,0.0,0.0,0.0,0.0,0.0,0.0,0.0,0.0,0.0,0.0,0.0,0.0,0.0,0.0,0.0,0.0,0.0,0.0,0.0,0.0,0.0,0.0,0.0,0.0,0.0,0.0,0.0,0.0,0.0,0.0,0.0,0.0,0.0,0.0,0.0,0.0,0.0,0.0,0.0,0.0,0.0,0.0,0.0,0.0,0.0,0.0,0.0,0.0,0.0,0.0,0.0,0.0,0.0,0.0,0.0,0.0,0.0,0.0,0.0,0.0,0.0,0.0,0.0,0.0,0.0,0.0,0.0,0.0,0.0,0.0,0.0,0.0,0.0,0.0,0.0,0.0,0.0,0.0,0.0,0.0,0.0,0.0,0.0,0.0,0.0,0.0,0.0,0.0,0.0,0.0,0.0,0.0,0.0,0.0,0.0,0.0,0.0,0.0,0.0,0.0,0.0,0.0,0.0,0.0,0.0,0.0,0.0,0.0,0.0,0.0,0.0,0.0,0.0,0.0,0.0,0.0,0.0,0.0,0.0,0.0,0.0,0.0,0.0,0.0,0.0,0.0,0.0,0.0,0.0,0.0,0.0,0.0,0.0,0.0,0.0,0.0,0.0,0.0,0.0,0.0,0.0,0.0,0.0,0.0,0.0,0.0,0.0,0.0,0.0,0.0,0.0,0.0,0.0,0.0,0.0,0.0,0.0,0.0,0.0,0.0,0.0,0.0,0.0,0.0,0.0,0.0,0.0,0.0,0.0,0.0,0.0,0.0,0.0,0.0,0.0,0.0,0.0,0.0,0.0,0.0,0.0,0.0,0.0,0.0,0.0,0.0,0.0,0.0,0.0,0.0,0.0,0.0,0.0,0.0,0.0,0.0,0.0,0.0,0.0,0.0,0.0,0.0,0.0,0.0,0.0,0.0,0.0,0.0,0.0,0.0,0.0,0.0,0.0,0.0,0.0,0.0,0.0,0.0,0.0,0.0,0.0,0.0,0.0,0.0,0.0,0.0,0.0,0.0,0.0,0.0,0.0,0.0,0.0,0.0,0.0,0.0,0.0,0.0,0.0,0.0,0.0,0.0,0.0,0.0,0.0,0.0,0.0,0.0,0.0,0.0,0.0,0.0,0.0,0.0,0.0,0.0,0.0,0.0,0.0,0.0,0.0,0.0,0.0,0.0,0.0,0.0,0.0,0.0,0.0,0.0,0.0,0.0,0.0,0.0,0.0,0.0,0.0,0.0,0.0,0.0,0.0,0.0,0.0,0.0,0.0,0.0,0.0,0.0,0.0,0.0,0.0,0.0,0.0,0.0,0.0,0.0,0.0,0.0,0.0,0.0,0.0,0.0,0.0,0.0,0.0,0.0,0.0,0.0,0.0,0.0,0.0,0.0,0.0,0.0,0.0,0.0,0.0,0.0,0.0,0.0,0.0,0.0,0.0,0.0,0.0,0.0,0.0,0.0,0.0,0.0,0.0,0.0,0.0,0.0,0.0,0.0,0.0,0.0,0.0,0.0,0.0,0.0,0.0,0.0,0.0,0.0,0.0,0.0,0.0,0.0,0.0,0.0,0.0,0.0,0.0,0.0,0.0,0.0,0.0,0.0,0.0,0.0,0.0,0.0,0.0,0.0,0.0,0.0,0.0,0.0,0.0,0.0,0.0,0.0,0.0,0.0,0.0,0.0,0.0,0.0,0.0,0.0,0.0,0.0,0.0,0.0,0.0,0.0,0.0,0.0,0.0,0.0,0.0,0.0,0.0,0.0,0.0,0.0,0.0,0.0,0.0,0.0,0.0,0.0,0.0,0.0,0.0,0.0,0.0,0.0,0.0,0.0,0.0,0.0,0.0,0.0,0.0,0.0,0.0,0.0,0.0,0.0,0.0,0.0,0.0,0.0,0.0,0.0,0.0,0.0,0.0,0.0,0.0,0.0,0.0,0.0,0.0,0.0,0.0,0.0,0.0,0.0,0.0,0.0,0.0,0.0,0.0,0.0,0.0,0.0,0.0,0.0,0.0,0.0,0.0,0.0,0.0,0.0,0.0,0.0,0.0,0.0,0.0,0.0,0.0,0.0,0.0,0.0,0.0,0.0,0.0,0.0,0.0,0.0,0.0,0.0,0.0,0.0,0.0,0.0,0.0,0.0,0.0,0.0,0.0,0.0,0.0,0.0,0.0,0.0,0.0,0.0,0.0,0.0,0.0,0.0,0.0,0.0,0.0,0.0,0.0,0.0,0.0,0.0,0.0,0.0,0.0,0.0,0.0,0.0,0.0,0.0,0.0,0.0,0.0,0.0,0.0,0.0,0.0,0.0,0.0,0.0,0.0,0.0,0.0,0.0,0.0,0.0,0.0,0.0,0.0,0.0,0.0,0.0,0.0,0.0,0.0,0.0,0.0,0.0,0.0,0.0,0.0,0.0,0.0,0.0,0.0,0.0,0.0,0.0,0.0,0.0,0.0,0.0,0.0,0.0,0.0,0.0,0.0,0.0,0.0,0.0,0.0,0.0,0.0,0.0,0.0,0.0,0.0,0.0,0.0,0.0,0.0,0.0,0.0,0.0,0.0,0.0,0.0,0.0,0.0,0.0,0.0,0.0,0.0,0.0,0.0,0.0,0.0,0.0,0.0,0.0,0.0,0.0,0.0,0.0,0.0,0.0,0.0,0.0,0.0,0.0,0.0,0.0,0.0,0.0,0.0,0.0,0.0,0.0,0.0,0.0,0.0,0.0,0.0,0.0,0.0,0.0,0.0,0.0,0.0,0.0,0.0,0.0,0.0,0.0,0.0,0.0,0.0,0.0,0.0,0.0,0.0,0.0,0.0,0.0,0.0,0.0,0.0,0.0,0.0,0.0,0.0,0.0,0.0,0.0,0.0,0.0,0.0,0.0,0.0,0.0,0.0,0.0,0.0,0.0,0.0,0.0,0.0,0.0,0.0,0.0,0.0,0.0,0.0,0.0,0.0,0.0,0.0,0.0,0.0,0.0,0.0,0.0,0.0,0.0,0.0,0.0,0.0,0.0,0.0,0.0,0.0,0.0,0.0,0.0,0.0,0.0,0.0,0.0,0.0,0.0,0.0,0.0,0.0,0.0,0.0,0.0,0.0,0.0,0.0,0.0,0.0,0.0,0.0,0.0,0.0,0.0,0.0,0.0,0.0,0.0,0.0,0.0,0.0,0.0,0.0,0.0,0.0,0.0,0.0,0.0,0.0,0.0,0.0,0.0,0.0,0.0,0.0,0.0,0.0,0.0,0.0,0.0,0.0,0.0,0.0,0.0,0.0,0.0,0.0,0.0,0.0,0.0,0.0,0.0,0.0,0.0,0.0,0.0,0.0,0.0,0.0,0.0,0.0,0.0,0.0,0.0,0.0,0.0,0.0,0.0,0.0,0.0,0.0,0.0,0.0,0.0,0.0,0.0,0.0,0.0,0.0,0.0,0.0,0.0,0.0,0.0,0.0,0.0,0.0,0.0,0.0,0.0,0.0,0.0,0.0,0.0,0.0,0.0,0.0,0.0,0.0,0.0,0.0,0.0,0.0,0.0,0.0,0.0,0.0,0.0,0.0,0.0,0.0,0.0,0.0,0.0,0.0,0.0,0.0,0.0,0.0,0.0,0.0,0.0,0.0,0.0,0.0,0.0,0.0,0.0,0.0,0.0,0.0,0.0,0.0,0.0,0.0,0.0,0.0,0.0,0.0,0.0,0.0,0.0,0.0,0.0,0.0,0.0,0.0,0.0,0.0,0.0,0.0,0.0,0.0,0.0,0.0,0.0,0.0,0.0,0.0,0.0,0.0,0.0,0.0,0.0,0.0,0.0,0.0,0.0,0.0,0.0,0.0,0.0,0.0,0.0,0.0,0.0,0.0,0.0,0.0,0.0,0.0,0.0,0.0,0.0,0.0,0.0,0.0,0.0,0.0,0.0,0.0,0.0,0.0,0.0,0.0,0.0,0.0,0.0,0.0,0.0,0.0,0.0,0.0,0.0,0.0,0.0,0.0,0.0,0.0,0.0,0.0,0.0,0.0,0.0,0.0,0.0,0.0,0.0,0.0,0.0,0.0,0.0,0.0,0.0,0.0,0.0,0.0,0.0,0.0,0.0,0.0,0.0,0.0,0.0,0.0,0.0,0.0,0.0,0.0,0.0,0.0,0.0,0.0,0.0,0.0,0.0,0.0,0.0,0.0,0.0,0.0,0.0,0.0,0.0,0.0,0.0,0.0,0.0,0.0,0.0,0.0,0.0,0.0,0.0,0.0,0.0,0.0,0.0,0.0,0.0,0.0,0.0,0.0,0.0,0.0,0.0,0.0,0.0,0.0,0.0,0.0,0.0,0.0,0.0,0.0,0.0,0.0,0.0,0.0,0.0,0.0,0.0,0.0,0.0,0.0,0.0,0.0,0.0,0.0,0.0,0.0,0.0,0.0,0.0,0.0,0.0,0.0,0.0,0.0,0.0,0.0,0.0,0.0,0.0,0.0,0.0,0.0,0.0,0.0,0.0,0.0,0.0,0.0,0.0,0.0,0.0,0.0,0.0,0.0,0.0,0.0,0.0,0.0,0.0,0.0,0.0,0.0,0.0,0.0,0.0,0.0,0.0,0.0,0.0,0.0,0.0,0.0,0.0,0.0,0.0,0.0,0.0,0.0,0.0,0.0,0.0,0.0,0.0,0.0,0.0,0.0,0.0,0.0,0.0,0.0,0.0,0.0,0.0,0.0,0.0,0.0,0.0,0.0,0.0,0.0,0.0,0.0,0.0,0.0,0.0,0.0,0.0,0.0,0.0,0.0,0.0,0.0,0.0,0.0,0.0,0.0,0.0,0.0,0.0,0.0,0.0,0.0,0.0,0.0,0.0,0.0,0.0,0.0,0.0,0.0,0.0,0.0,0.0,0.0,0.0,0.0,0.0,0.0,0.0,0.0,0.0,0.0,0.0,0.0,0.0,0.0,0.0,0.0,0.0,0.0,0.0,0.0,0.0,0.0,0.0,0.0,0.0,0.0,0.0,0.0,0.0,0.0,0.0,0.0,0.0,0.0,0.0,0.0,0.0,0.0,0.0,0.0,0.0,0.0,0.0,0.0,0.0,0.0,0.0,0.0,0.0,0.0,0.0,0.0,0.0,0.0,0.0,0.0,0.0,0.0,0.0,0.0,0.0,0.0,0.0,0.0,0.0,0.0,0.0,0.0,0.0,0.0,0.0,0.0,0.0,0.0,0.0,0.0,0.0,0.0,0.0,0.0,0.0,0.0,0.0,0.0,0.0,0.0,0.0,0.0,0.0,0.0,0.0,0.0,0.0,0.0,0.0,0.0,0.0,0.0,0.0,0.0,0.0,0.0,0.0,0.0,0.0,0.0,0.0,0.0,1.3745,0.0,0.0,0.0,0.0,0.0,0.0,0.0,0.0,0.0,0.0,0.0,0.0,0.0,0.0,0.0,0.0,0.0,0.0,0.0,0.0,0.0,0.0,0.0,0.0,0.0,0.0,0.0,0.0,0.0,0.0,0.0,0.0,0.0,0.0,0.0,0.0,0.0,0.0,0.0,0.0,0.0,0.0,0.0,0.0,0.0,0.0,0.0,0.0,0.0,0.0,0.0,0.0,0.0,0.0,0.0,0.0,0.0,0.0,0.0,0.0,0.0,0.0,0.0,0.0,0.0,0.0,0.0,0.0,0.0,0.0,0.0,0.0,0.0,0.0,0.0,0.0,0.0,0.0,0.0,0.0,0.0,0.0,0.0,0.0,0.0,0.0,0.0,0.0,0.0,0.0,0.0,0.0,0.0,0.0,0.0,0.0,0.0,0.0,0.0,0.0,0.0,0.0,0.0,0.0,0.0,0.0,0.0,0.0,0.0,0.0,0.0,0.0,0.0,0.0,0.0,0.0,1.5423,0.0,0.0,0.0,0.0,0.0,0.0,0.0,0.0,0.0,0.0,0.0,0.0,0.0,0.0,0.0,0.0,0.0,0.0,0.0,0.0,0.0,0.0,0.0,0.0,0.0,0.0,0.0,0.0,0.0,0.0,0.0,0.0,0.0,0.0,0.0,0.0,0.0,0.0,0.0,0.0,0.0,0.0,0.0,0.0,0.0,0.0,0.0,0.0,0.0,0.0,0.0,0.0,0.0,0.0,0.0,0.0,0.0,0.0,0.0,0.0,0.0,0.0,0.0,0.0,0.0,0.0,0.0,0.0,0.0,0.0,0.0,0.0,0.0,0.0,0.0,0.0,0.0,0.0,0.0,0.0,0.0,0.0,0.0,0.0,0.0,0.0,0.0,0.0,0.0,0.0,0.0,0.0,0.0,0.0,0.0,0.0,0.0,0.0,0.0,0.0,0.0,0.0,0.0,0.0,0.0,0.0,0.0,0.0,1.9885,2.0531,2.1388,2.1388,2.1074,2.0527,1.9514,1.8351,1.7065,1.6299,0.0,0.0,0.0,0.0,0.0,0.0,0.0,0.0,0.0,0.0,0.0,0.0,0.0,0.0,0.0,0.0,0.0,0.0,0.0,0.0,0.0,0.0,0.0,0.0,0.0,0.0,0.0,0.0,0.0,0.0,0.0,0.0,0.0,0.0,0.0,0.0,0.0,0.0,3.0294,3.0896,3.0851,3.0186,2.8244,0.0,0.0,0.0,0.0,0.0,0.0,0.0,0.0,0.0,0.0,0.0,0.0,0.0,0.0,0.0,0.0,0.0,0.0,0.0,0.0,0.0,0.0,0.0,0.0,0.0,0.0,0.0,0.0,0.0,0.0,0.0,0.0,0.0,0.0,0.0,0.0,0.0,0.0,0.0,0.0,0.0,0.0,0.0,1.4179,1.4497,0.0,0.0,0.0,0.0,0.0,0.0,0.0,0.0,0.0,0.0,0.0,0.0,0.0,1.8672,1.95,2.1755,2.2949,2.3159,2.4664,2.5061,2.4519,2.4519,2.4079,2.3271,2.3125,0.0,1.8311,1.7503,0.0,0.0,0.0,0.0,0.0,0.0,0.0,0.0,0.0,0.0,0.0,0.0,0.0,0.0,0.0,0.0,0.0,0.0,0.0,0.0,0.0,0.0,0.0,0.0,0.0,0.0,0.0,0.0,0.0,0.0,0.0,0.0,0.0,0.0,0.0,0.0,3.047,3.2353,3.3351,3.3935,3.4022,3.364,3.219,3.054,2.8785,2.7924,0.0,0.0,0.0,0.0,0.0,0.0,0.0,0.0,0.0,0.0,0.0,0.0,0.0,0.0,0.0,0.0,0.0,0.0,0.0,0.0,0.0,0.0,0.0,0.0,0.0,0.0,0.0,0.0,0.0,0.0,0.0,0.0,0.0,0.0,0.0,0.0,0.0,0.0,0.0,1.5262,1.6193,1.4844,1.6271,1.706,0.0,0.0,0.0,0.0,0.0,0.0,0.0,0.0,0.0,2.0263,2.1339,2.2207,2.2863,2.419,2.501,2.5254,2.6025,2.6309,2.6152,2.5918,2.5332,2.4538,2.4248,2.2871,2.0752,1.9893,1.9111,1.8295,0.0,0.0,0.0,0.0,1.538,1.5988,0.0,0.0,0.0,0.0,0.0,0.0,0.0,0.0,0.0,0.0,0.0,0.0,0.0,0.0,0.0,2.5213,0.0,0.0,0.0,0.0,0.0,0.0,0.0,0.0,0.0,0.0,0.0,3.1022,3.3796,3.5504,3.6147,3.6885,3.6923,3.6323,3.5818,3.3479,2.998,2.9516,2.8163,0.0,0.0,0.0,0.0,0.0,0.0,0.0,0.0,0.0,0.0,0.0,0.0,0.0,0.0,0.0,0.0,0.0,0.0,0.0,0.0,0.0,0.0,0.0,0.0,0.0,0.0,0.0,0.0,0.0,0.0,0.0,0.0,0.0,0.0,0.0,0.0,0.0,0.0,1.7043,1.8088,1.5785,1.8245,1.9394,0.0,0.0,0.0,0.0,0.0,0.0,2.082,2.1738,2.2607,2.3477,2.4424,2.5127,2.5557,2.6006,2.6396,2.6719,2.6826,2.6924,2.7002,2.6689,2.6006,2.5086,2.4609,2.3818,2.2754,2.1639,2.0625,1.9697,1.8838,1.8369,1.8154,1.7628,1.7946,1.8673,0.0,0.0,0.0,0.0,0.0,0.0,0.0,0.0,0.0,0.0,0.0,0.0,0.0,0.0,2.6593,2.9264,2.865,2.7858,0.0,0.0,0.0,0.0,0.0,0.0,0.0,0.0,0.0,3.2127,3.4926,3.6822,3.7902,3.9007,3.9233,3.868,3.8103,3.6824,3.4903,3.1834,3.0442,3.004,0.0,0.0,0.0,0.0,0.0,0.0,0.0,0.0,0.0,0.0,0.0,0.0,0.0,0.0,0.0,0.0,0.0,0.0,0.0,0.0,0.0,0.0,0.0,0.0,0.0,0.0,0.0,0.0,0.0,0.0,0.0,0.0,0.0,0.0,0.0,0.0,0.0,0.0,0.0,1.7907,2.0457,0.0,0.0,0.0,0.0,2.0439,2.1561,2.2643,2.3555,2.445,2.5273,2.6162,2.626,2.6484,2.6914,2.7353,2.763,2.766,2.8008,2.7783,2.7012,2.6992,2.6279,2.5086,2.4609,2.415,2.3594,2.1882,2.1151,2.1015,2.0118,2.0059,2.04,1.9923,2.004,2.0429,0.0,0.0,0.0,0.0,0.0,0.0,0.0,0.0,0.0,0.0,0.0,0.0,0.0,2.7438,2.988,3.1235,3.1976,3.1373,2.9051,0.0,0.0,0.0,0.0,0.0,0.0,0.0,3.1775,3.4304,3.6408,3.7814,3.858,3.9333,3.9584,3.9371,3.8818,3.7704,3.6071,3.3167,3.0079,2.6894,2.4993,2.3404,0.0,0.0,0.0,0.0,0.0,0.0,0.0,0.0,0.0,0.0,0.0,0.0,0.0,0.0,0.0,0.0,0.0,0.0,0.0,0.0,0.0,0.0,0.0,0.0,0.0,0.0,0.0,0.0,0.0,0.0,0.0,0.0,0.0,0.0,0.0,0.0,0.0,1.9632,2.225,0.0,2.1543,2.2002,2.2471,2.267,2.3584,2.4541,2.541,2.6006,2.6592,2.7239,2.7471,2.7559,2.7432,2.7851,2.7939,2.7718,2.7875,2.7734,2.7464,2.7673,2.7367,2.6695,2.6689,2.5999,2.4946,2.4723,2.3764,2.236,2.1816,2.168,2.1768,2.1338,2.1455,2.1758,0.0,0.0,0.0,0.0,0.0,0.0,0.0,0.0,0.0,0.0,0.0,2.4087,2.6217,2.9566,3.1872,3.2395,3.3501,3.2809,2.9653,0.0,0.0,0.0,0.0,0.0,0.0,3.1397,3.342,3.5796,3.7299,3.8404,3.9157,3.9521,3.9697,3.9672,3.8809,3.7605,3.6074,3.3632,3.0308,2.6557,2.5565,2.4283,2.2798,0.0,0.0,0.0,0.0,0.0,0.0,0.0,0.0,0.0,0.0,0.0,0.0,0.0,0.0,0.0,0.0,0.0,0.0,0.0,0.0,0.0,0.0,0.0,0.0,0.0,0.0,0.0,0.0,0.0,0.0,0.0,0.0,0.0,0.0,0.0,2.2248,2.1419,2.3938,2.5049,2.332,2.4072,2.4668,2.4668,2.5459,2.6251,2.6787,2.7217,2.7578,2.7871,2.8144,2.8164,2.7933,2.8154,2.8086,2.7718,2.7718,2.7759,2.7893,2.8113,2.8116,2.7946,2.7889,2.7205,2.6131,2.6382,2.5599,2.42,2.3531,2.3047,2.2685,2.2412,2.248,2.2699,0.0,0.0,0.0,0.0,0.0,0.0,0.0,0.0,0.0,0.0,2.2309,2.5109,2.7833,3.0568,3.2377,3.2847,3.2941,3.1766,2.8987,2.7815,0.0,0.0,0.0,0.0,2.8302,3.1957,3.4743,3.6458,3.7513,3.8605,3.9697,3.971,3.9722,3.9683,3.8161,3.6727,3.5178,3.3251,3.1358,2.9653,2.8717,2.7043,2.5174,0.0,0.0,0.0,0.0,0.0,0.0,0.0,0.0,0.0,0.0,0.0,0.0,0.0,0.0,0.0,0.0,0.0,0.0,0.0,0.0,0.0,0.0,0.0,0.0,0.0,0.0,0.0,0.0,0.0,0.0,0.0,0.0,0.0,1.9922,2.2197,2.3691,2.3355,2.5508,2.6396,2.4697,2.5703,2.6445,2.6445,2.7217,2.7738,2.7738,2.8066,2.8291,2.8291,2.8291,2.8281,2.8271,2.8325,2.811,2.7741,2.7731,2.7924,2.8261,2.825,2.8398,2.8668,2.8185,2.7702,2.7135,2.6768,2.6565,2.6389,2.5294,2.4168,2.3222,2.3222,2.3212,2.3264,0.0,0.0,0.0,0.0,0.0,0.0,0.0,0.0,0.0,0.0,2.3583,2.6527,2.8449,3.0756,3.2187,3.2392,3.0925,2.9679,2.8911,0.0,0.0,0.0,0.0,0.0,3.2614,3.36,3.5258,3.7563,3.8278,3.8994,3.9697,4.0111,4.0501,4.0758,3.8928,3.7263,3.5737,3.3744,3.1816,2.9884,2.7807,2.6548,2.5841,0.0,0.0,0.0,0.0,0.0,0.0,0.0,0.0,0.0,0.0,0.0,0.0,0.0,0.0,0.0,0.0,0.0,0.0,0.0,0.0,0.0,0.0,0.0,0.0,0.0,0.0,0.0,0.0,0.0,0.0,0.0,0.0,2.1562,2.1367,2.3291,2.4959,2.5439,2.6943,2.7754,2.7275,2.7549,2.7773,2.7773,2.7988,2.8125,2.8125,2.8232,2.8291,2.8291,2.8291,2.8144,2.7894,2.8733,2.8942,2.8491,2.8222,2.8551,2.9511,2.9206,2.9589,3.0463,3.0441,2.9917,2.9045,2.8928,2.7971,2.6483,2.6141,2.585,2.5557,2.5557,2.5288,2.488,0.0,0.0,0.0,0.0,0.0,0.0,0.0,0.0,0.0,0.0,2.3671,2.6392,2.8061,3.0182,3.1003,2.9918,2.9013,2.7946,2.6551,0.0,0.0,0.0,0.0,3.2512,3.3566,3.4431,3.5408,3.6485,3.7514,3.8386,3.9148,4.0075,4.0814,4.1197,3.9219,3.7801,3.6819,3.4218,3.2478,3.1204,2.8913,2.8317,2.8697,2.7173,2.716,2.786,2.6951,2.6907,2.7177,2.618,0.0,0.0,0.0,0.0,0.0,0.0,0.0,0.0,0.0,0.0,0.0,0.0,0.0,0.0,0.0,0.0,0.0,0.0,0.0,0.0,0.0,0.0,0.0,0.0,2.2139,2.3418,2.373,2.499,2.6143,2.6846,2.7734,2.8291,2.8291,2.8291,2.8291,2.8291,2.8291,2.8548,2.9102,2.9154,2.9154,2.9154,2.966,2.9589,2.8782,3.0021,3.0425,3.0001,2.9537,2.9862,3.087,3.0365,3.0693,3.1607,3.146,3.0922,3.0118,2.9895,2.904,0.0,0.0,0.0,0.0,0.0,2.6431,2.6239,0.0,0.0,0.0,0.0,0.0,0.0,0.0,0.0,0.0,0.0,0.0,2.5271,2.6806,2.8804,2.9034,2.6471,2.6955,2.6257,0.0,0.0,0.0,3.0391,3.2334,3.3047,3.2493,3.448,3.5143,3.4508,3.6016,3.7328,3.8358,3.989,4.0902,4.1297,3.9376,3.8483,3.8271,3.4764,3.3281,3.3079,3.113,3.1236,3.2391,3.1365,3.1712,3.2526,3.07,2.9503,2.8649,2.7908,0.0,0.0,0.0,0.0,0.0,0.0,0.0,0.0,0.0,0.0,0.0,0.0,0.0,0.0,0.0,0.0,0.0,0.0,0.0,0.0,0.0,0.0,0.0,0.0,2.3838,2.5137,2.6357,2.6894,2.7285,2.7679,2.8037,2.831,2.8359,2.8359,2.8359,2.8359,2.852,2.9109,3.0224,0.0,0.0,0.0,0.0,3.1724,3.0514,3.1781,3.2205,3.1818,3.1273,3.1447,3.2208,3.1493,3.1598,3.2277,3.165,3.1135,3.0658,3.0043,2.9792,2.9714,2.8688,2.7695,2.6894,2.6894,2.7127,2.7406,0.0,0.0,0.0,0.0,0.0,0.0,0.0,0.0,0.0,1.9736,2.241,2.4347,2.4845,2.6008,2.6177,2.4849,2.3742,2.3711,0.0,0.0,2.934,2.9858,3.1405,3.2329,3.2424,3.3231,3.4119,3.5154,3.6605,3.7685,3.8358,4.0219,4.148,4.194,4.0389,3.9646,3.943,3.5805,3.4227,3.4079,3.2047,3.2112,3.3204,3.1772,3.2488,3.4077,3.2326,3.219,3.2491,3.0608,2.9636,2.9016,2.7827,0.0,0.0,0.0,0.0,0.0,0.0,0.0,0.0,0.0,0.0,0.0,0.0,0.0,0.0,0.0,0.0,0.0,0.0,0.0,0.0,2.3953,2.543,2.6728,2.7334,2.7783,2.7949,2.7748,2.8037,2.8428,2.876,2.8799,2.8799,2.8799,2.985,3.041,3.0287,3.1327,3.1927,3.1927,3.218,3.218,3.1927,3.2828,3.3017,3.2512,0.0,0.0,3.286,3.1725,3.1848,3.2855,3.1838,3.1336,3.1173,3.0193,2.9792,2.9792,2.9585,2.9326,2.917,2.917,2.8929,2.8524,0.0,0.0,0.0,0.0,0.0,0.0,0.0,0.0,0.0,0.0,2.0865,2.2046,2.2464,2.2903,2.2903,2.2209,2.2183,0.0,0.0,2.8442,3.0286,3.1867,3.2808,3.3103,3.2756,3.2952,3.3088,3.3098,3.5288,3.6815,3.7667,4.0116,4.1781,4.2559,4.1583,4.1114,4.0842,3.7176,3.5591,3.5432,3.3434,3.3007,3.3539,3.2782,3.3199,3.4172,3.3645,3.3226,3.2759,3.1755,3.0925,3.0149,2.8887,2.7257,2.5625,0.0,0.0,0.0,0.0,0.0,0.0,0.0,0.0,0.0,0.0,0.0,0.0,0.0,0.0,2.4803,0.0,0.0,2.6338,2.7509,2.8064,2.885,3.0244,3.038,2.9735,2.8209,2.8164,2.8369,2.8584,2.8603,2.8603,2.8603,2.9893,3.082,3.1286,3.2593,3.3353,3.3353,3.3995,3.4044,3.3353,3.4438,3.4682,3.4098,3.3619,3.3464,3.347,3.2549,3.2513,3.3074,3.2177,3.165,3.1311,3.0231,2.9792,2.9792,2.9792,2.9792,2.9792,2.9792,2.9616,2.9277,0.0,0.0,0.0,0.0,0.0,0.0,0.0,0.0,0.0,0.0,1.9258,1.9781,2.0082,2.0278,2.0187,0.0,0.0,0.0,0.0,2.881,3.1,3.3415,3.4087,3.3868,3.268,3.269,3.2254,3.1334,3.4121,3.6049,3.7269,4.0123,4.1969,4.2798,4.2527,4.2363,4.2161,3.8878,3.7371,3.7132,3.4808,3.377,3.3591,3.3626,3.3795,3.4102,3.4546,3.3441,3.1849,3.2127,3.1436,3.0319,2.9477,2.8499,2.7281,2.5624,2.4669,0.0,0.0,0.0,0.0,0.0,0.0,0.0,0.0,0.0,2.5317,2.6878,2.7474,2.8227,2.9934,2.9387,2.9205,3.0874,3.0734,3.1,3.2806,3.2729,3.1597,2.9191,2.8999,2.9059,2.9059,2.9182,2.9202,2.9059,3.0401,3.1629,3.2644,3.4019,3.4775,3.4775,3.581,3.587,3.4775,3.5759,3.5931,3.5332,3.4893,3.4374,3.3721,3.3382,3.3224,3.3086,3.2466,3.1838,3.1173,3.0306,2.9892,2.9792,2.9792,2.9792,2.9792,2.9792,2.9792,2.9704,0.0,0.0,0.0,0.0,0.0,0.0,0.0,0.0,0.0,0.0,0.0,0.0,0.0,0.0,0.0,0.0,0.0,0.0,2.5513,2.9544,3.1701,3.121,3.2827,3.2932,3.1199,3.117,3.171,3.2861,3.4942,3.6719,3.8181,4.0849,4.2187,4.2313,4.2698,4.2886,4.2762,4.0977,3.9911,3.9155,3.5758,3.3933,3.3205,3.3495,3.4102,3.4866,3.4749,3.3308,3.1547,3.2047,3.1173,2.9942,3.0319,2.9615,2.8411,2.6766,0.0,2.4687,2.4625,2.5059,2.5749,2.6753,2.6251,2.6238,0.0,0.0,2.9427,3.0567,3.1626,3.2235,3.1932,3.1992,3.2041,3.169,3.2269,3.271,3.2415,3.2808,3.2627,3.1296,3.1572,3.1825,3.1825,3.2222,3.2299,3.1858,3.3456,3.439,3.4152,3.5415,3.6168,3.6168,3.631,3.631,3.6168,3.5775,3.532,3.4768,3.4705,3.4173,3.3181,3.3608,3.3533,3.3086,3.2466,3.1637,3.0696,3.057,3.0231,2.9792,2.9792,2.9792,2.9792,2.9792,2.9792,2.9704,0.0,0.0,0.0,0.0,0.0,0.0,0.0,0.0,0.0,0.0,0.0,0.0,0.0,0.0,0.0,0.0,0.0,0.0,2.5337,2.9553,3.1669,3.0969,3.2179,3.2239,3.0937,3.0889,3.1218,3.1825,3.4398,3.6136,3.7086,3.9908,4.1543,4.2213,4.2451,4.2728,4.2905,4.1305,4.0295,3.9658,3.7782,3.5914,3.4339,3.5,3.416,3.2663,3.3081,3.1764,0.0,0.0,2.9377,2.88,2.8712,2.8134,2.7231,2.59,2.5398,0.0,2.6465,0.0,0.0,0.0,2.9327,2.9813,3.1223,3.1647,3.2014,3.3099,3.3961,3.454,3.4604,3.41,3.3934,0.0,3.4589,3.4645,3.5491,3.5279,3.4763,3.3911,3.3743,3.3218,3.1982,3.2303,3.2504,3.2292,3.3761,3.473,3.4851,3.5827,3.6556,3.6883,3.6568,3.6405,3.6405,3.5818,3.5382,3.5157,3.4831,3.4311,3.3558,3.3796,3.3596,3.3086,3.2466,3.1964,3.1524,3.1198,3.0746,3.0269,3.0269,3.0068,2.9792,2.9792,2.9792,2.9754,0.0,0.0,0.0,0.0,0.0,0.0,0.0,0.0,0.0,0.0,0.0,0.0,0.0,0.0,0.0,0.0,0.0,0.0,0.0,2.8384,3.0514,3.0086,3.1308,3.1579,3.0741,3.083,3.1276,3.2102,3.4378,3.6124,3.7374,3.9655,4.1166,4.1932,4.215,4.2439,4.2692,4.1565,4.0729,4.0117,3.8966,3.7072,3.4929,3.5211,3.3114,3.0158,3.1166,2.9908,0.0,0.0,2.7444,2.718,2.7092,2.6813,2.6336,2.5498,2.5649,2.6289,2.7356,0.0,0.0,3.0444,3.1763,3.2905,3.2905,3.3345,3.4022,3.4977,3.5332,3.5621,3.6056,3.535,3.5174,3.6716,3.6431,3.6405,3.7591,3.696,3.6107,3.5357,3.47,3.3715,3.2309,3.2626,3.3033,3.3172,3.4278,3.5138,3.5489,3.6205,3.6744,3.6996,3.6619,3.6405,3.6405,3.5818,3.5495,3.5495,3.5094,3.4663,3.4123,3.3972,3.3596,3.3099,3.2641,3.2353,3.2177,3.1788,3.1372,3.0978,3.0978,3.0816,3.057,3.057,3.0254,2.9792,0.0,0.0,0.0,0.0,0.0,0.0,0.0,0.0,0.0,0.0,0.0,0.0,0.0,0.0,0.0,0.0,0.0,0.0,0.0,2.5581,2.7692,2.7796,2.9906,3.0789,3.0252,3.0664,3.2322,3.5178,3.577,3.7527,4.0367,4.1,4.1275,4.1326,4.1919,4.2213,4.2238,4.2183,4.1802,4.1039,3.8543,3.6288,3.4301,3.3102,3.0626,2.799,2.9361,0.0,0.0,0.0,2.5799,2.5109,2.6185,2.6512,0.0,2.6449,2.6839,0.0,0.0,0.0,3.1198,3.0733,3.2641,3.4605,3.4605,3.5031,3.5583,3.6241,3.5906,3.5508,3.552,3.5474,3.5696,3.6295,3.7287,3.774,3.7274,3.6769,3.6003,3.4876,3.3784,3.3345,0.0,3.4302,3.4853,3.5331,3.5962,3.637,3.6383,3.6872,3.6923,3.6455,3.6417,3.6405,3.6405,3.5818,3.5495,3.5495,3.5483,3.5182,3.4675,3.4148,3.3596,3.3124,3.3056,3.2729,3.2215,3.219,3.2081,3.1974,3.1974,3.2192,3.2536,3.2536,3.1378,2.9792,0.0,0.0,0.0,0.0,0.0,0.0,0.0,0.0,0.0,0.0,0.0,0.0,0.0,0.0,0.0,0.0,0.0,0.0,0.0,2.5047,2.735,2.6658,2.9956,3.1666,3.1412,3.2243,3.3182,3.4196,3.5336,3.6608,3.7988,3.9171,4.0086,4.0802,4.099,4.1279,4.1605,4.1605,4.1291,4.0611,3.8621,3.6973,3.5458,3.3194,3.0491,2.7926,0.0,0.0,0.0,0.0,2.3973,2.3735,2.4111,0.0,0.0,2.6059,2.714,2.8185,2.9829,0.0,3.3269,3.4198,3.5127,3.5906,3.627,3.5931,3.5445,3.5316,3.4537,3.3796,3.3364,3.3289,3.3884,3.5554,3.6433,3.7098,3.7651,3.7262,3.6094,3.3884,3.3621,0.0,0.0,0.0,0.0,3.5433,3.6056,3.6732,3.7412,3.7287,3.7262,3.745,3.6782,3.6405,3.6405,3.5818,3.5683,3.6081,3.5353,3.4856,3.4688,3.3771,3.3662,3.415,3.415,3.4421,3.4835,3.4835,3.4348,3.3574,3.3574,3.3197,3.2593,3.2593,3.2213,3.1659,0.0,0.0,0.0,0.0,0.0,0.0,0.0,0.0,0.0,0.0,0.0,0.0,0.0,0.0,0.0,0.0,0.0,0.0,0.0,0.0,2.4921,2.4828,2.7887,2.9722,3.0017,3.0849,3.1722,3.2642,3.3595,3.4805,3.6303,3.7258,3.8266,3.932,3.932,3.9634,4.0124,3.9722,3.9245,3.853,3.6697,3.5177,3.3784,3.1373,2.8988,0.0,0.0,0.0,0.0,0.0,0.0,0.0,0.0,2.3785,2.4946,2.66,2.8109,2.9792,3.2177,3.3771,3.5077,3.6392,3.7008,3.7297,3.7199,3.6332,3.5282,3.4575,3.3244,3.2089,3.1712,3.1311,3.1775,3.3953,3.4826,3.5751,3.7211,3.6772,3.5793,3.4456,3.4035,3.3558,0.0,0.0,0.0,3.5157,3.6132,3.7008,3.7676,3.7563,3.755,3.7713,3.6883,3.6405,3.6405,3.6019,3.6227,3.701,3.586,3.5531,3.5882,3.4765,3.4611,3.5251,3.5251,3.5588,3.6184,3.5977,3.5506,3.4924,3.4663,3.4178,3.365,3.365,3.365,3.3547,0.0,0.0,0.0,0.0,0.0,0.0,0.0,0.0,0.0,0.0,0.0,0.0,0.0,0.0,0.0,0.0,0.0,0.0,0.0,0.0,0.0,2.2412,2.4129,2.55,2.6439,2.6922,2.8353,3.0826,3.0826,3.234,3.5245,3.5245,3.5881,3.6923,3.6897,3.7199,3.7638,3.6606,3.5805,3.5094,3.293,3.1163,2.9642,2.7943,0.0,0.0,0.0,0.0,0.0,0.0,0.0,0.0,0.0,2.5247,2.7532,2.8134,2.988,3.1964,3.3621,3.5278,3.6707,3.7174,3.8078,3.858,3.74,3.6219,3.5006,3.3922,3.1938,3.0394,3.0369,2.949,2.9527,3.1813,3.2729,3.3935,3.6179,3.5579,3.529,0.0,0.0,0.0,0.0,0.0,0.0,3.4813,0.0,3.7174,3.7262,3.7713,3.7739,3.7249,3.6707,3.6452,3.6499,3.6546,3.7103,3.8153,3.7052,3.7039,3.8048,3.6842,3.6298,3.6277,3.6277,3.6316,3.6314,3.5734,3.5705,3.5899,3.5294,3.5239,3.5504,3.5504,3.5504,3.5246,0.0,0.0,0.0,0.0,0.0,0.0,0.0,0.0,0.0,0.0,0.0,0.0,0.0,0.0,0.0,0.0,0.0,0.0,0.0,0.0,0.0,0.0,0.0,0.0,0.0,0.0,0.0,0.0,0.0,3.067,3.1834,3.1834,3.2441,3.3458,3.3056,3.3169,3.3646,3.2955,3.2579,3.229,0.0,2.9834,2.9768,0.0,0.0,0.0,0.0,0.0,0.0,0.0,0.0,0.0,0.0,2.7908,2.9415,3.0771,3.2699,3.4705,3.6006,3.7563,3.8881,3.9019,3.863,3.7927,3.687,3.4751,3.2641,3.1148,2.9076,2.7417,2.6954,2.7331,2.8561,3.1173,3.3119,0.0,3.7274,3.7713,0.0,3.6518,0.0,3.5466,3.4788,3.5466,0.0,0.0,3.638,3.7172,3.8429,3.7776,3.7513,3.7789,3.6908,3.6803,3.7678,3.8572,3.9139,3.9448,3.8231,3.7818,3.8076,3.6784,3.6674,3.7381,3.7381,3.7866,3.8554,3.8407,3.7817,3.6996,3.6833,3.6227,3.5504,3.5504,3.5504,3.5439,0.0,0.0,0.0,0.0,0.0,0.0,0.0,0.0,0.0,0.0,0.0,0.0,0.0,0.0,0.0,0.0,0.0,0.0,0.0,0.0,0.0,0.0,0.0,0.0,0.0,0.0,0.0,0.0,0.0,0.0,0.0,2.8411,2.9001,3.003,2.9478,2.9666,3.0357,0.0,0.0,0.0,0.0,0.0,0.0,0.0,0.0,0.0,0.0,0.0,0.0,0.0,0.0,2.8147,2.895,3.0306,3.1913,3.3571,0.0,3.6923,3.8278,3.9509,4.0362,4.0111,3.922,3.7902,3.6056,3.3671,3.1248,2.9126,2.7118,0.0,2.531,2.5774,2.6942,0.0,0.0,0.0,3.6219,3.7262,3.7649,0.0,3.7086,0.0,3.5542,3.6433,3.7086,0.0,3.7373,3.7813,3.8454,3.7889,3.7575,3.7651,3.7295,3.7723,3.8872,3.9536,4.0145,4.0646,3.9158,3.8823,3.9502,3.8,3.7753,3.8509,0.0,3.8819,3.9394,3.9095,3.8347,3.7375,3.7105,3.6387,3.5504,3.5504,3.5504,3.5504,0.0,0.0,0.0,0.0,0.0,0.0,0.0,0.0,0.0,0.0,0.0,0.0,0.0,0.0,0.0,0.0,0.0,0.0,0.0,0.0,0.0,0.0,0.0,0.0,0.0,0.0,0.0,0.0,0.0,0.0,0.0,0.0,0.0,0.0,0.0,0.0,0.0,0.0,0.0,0.0,0.0,0.0,0.0,0.0,0.0,0.0,0.0,0.0,0.0,0.0,3.0238,2.9665,3.0984,3.2742,3.4663,3.6358,3.755,3.8668,4.0212,4.0974,4.1238,4.0676,3.9572,3.7914,3.514,3.2604,3.008,2.7394,0.0,2.4374,2.4449,2.4575,2.5322,2.7205,0.0,3.1712,3.455,3.5893,3.6935,3.7889,3.8002,3.76,3.6619,3.7337,3.7902,3.7902,3.8692,3.8868,3.8253,3.8163,3.7967,3.7588,3.8201,3.9081,4.0116,4.0289,4.0831,4.1794,4.0054,3.9991,4.1354,3.9589,3.8998,3.9388,3.9388,3.9388,3.9328,3.8781,3.8138,3.7479,3.6851,3.6207,3.5624,3.5534,3.5504,3.5504,0.0,0.0,0.0,0.0,0.0,0.0,0.0,0.0,0.0,0.0,0.0,0.0,0.0,0.0,0.0,0.0,0.0,0.0,0.0,0.0,0.0,0.0,0.0,0.0,0.0,0.0,0.0,0.0,0.0,0.0,0.0,0.0,0.0,0.0,0.0,0.0,0.0,0.0,0.0,0.0,0.0,0.0,0.0,0.0,0.0,0.0,0.0,0.0,0.0,0.0,3.1163,3.2717,3.4763,3.5968,3.6948,3.863,3.9572,4.0249,4.0937,4.1593,4.1823,4.0764,3.8981,3.6759,3.3997,3.0583,0.0,0.0,2.3238,2.2209,2.2661,2.3514,2.5121,2.811,0.0,0.0,0.0,0.0,3.7789,0.0,0.0,0.0,0.0,0.0,0.0,0.0,3.9298,4.0158,3.9422,3.8994,3.8965,3.9404,4.0446,4.1112,4.1295,4.2249,4.282,4.2966,4.1607,4.1116,4.1339,3.9943,3.9318,3.9388,3.9388,0.0,3.9373,3.9254,3.8841,3.8153,3.7509,3.6866,3.6252,3.5699,3.5504,3.5504,0.0,0.0,0.0,0.0,0.0,0.0,0.0,0.0,0.0,0.0,0.0,0.0,0.0,0.0,0.0,0.0,0.0,0.0,0.0,0.0,0.0,0.0,0.0,0.0,0.0,0.0,0.0,0.0,0.0,0.0,0.0,0.0,0.0,0.0,0.0,0.0,0.0,0.0,0.0,0.0,0.0,0.0,0.0,0.0,0.0,0.0,0.0,0.0,0.0,0.0,3.1427,3.3299,3.5676,3.6948,3.7889,3.9283,4.0086,4.0701,4.1543,4.2158,4.2321,4.1216,3.9044,3.6449,3.3471,0.0,0.0,0.0,2.3288,2.2454,2.2356,0.0,0.0,0.0,0.0,0.0,0.0,0.0,0.0,0.0,0.0,0.0,0.0,0.0,0.0,0.0,4.0368,4.0627,3.9365,3.9382,3.9823,4.076,4.1295,4.1891,4.2467,4.3036,4.329,4.3275,4.1998,4.1422,4.1324,4.0023,3.9388,3.9388,3.9388,3.9388,3.9388,3.9388,3.9005,3.8317,3.7659,3.703,3.6417,3.5744,3.5504,3.5504,0.0,0.0,0.0,0.0,0.0,0.0,0.0,0.0,1.542,1.6794,1.7852,1.8382,1.8121,1.7416,0.0,0.0,0.0,0.0,0.0,0.0,0.0,0.0,0.0,0.0,0.0,0.0,0.0,0.0,0.0,0.0,0.0,0.0,0.0,0.0,0.0,0.0,0.0,0.0,0.0,0.0,0.0,0.0,0.0,0.0,0.0,0.0,0.0,0.0,0.0,0.0,3.089,3.2019,3.4474,3.6323,3.7852,3.8868,3.981,4.0752,4.1911,4.2527,4.2534,4.143,3.9032,3.6129,3.3044,2.9633,0.0,0.0,2.3594,2.2922,2.2525,0.0,2.4436,0.0,0.0,0.0,0.0,0.0,0.0,0.0,0.0,0.0,0.0,0.0,0.0,0.0,4.1138,4.098,3.9701,4.0151,4.093,4.1947,4.1932,4.2371,4.329,4.329,4.323,4.3065,4.1938,4.1309,4.113,3.9963,3.9388,3.9388,3.9388,3.9388,3.9388,3.9388,3.9187,3.8777,3.7788,3.7327,3.7099,3.6116,3.5921,3.6219,0.0,0.0,0.0,0.0,0.0,0.0,0.0,0.0,1.5967,1.7666,1.8765,1.9533,1.9918,1.9662,0.0,0.0,0.0,0.0,0.0,0.0,0.0,0.0,0.0,0.0,0.0,0.0,0.0,1.9798,1.9861,0.0,0.0,0.0,0.0,0.0,0.0,0.0,0.0,0.0,0.0,0.0,0.0,0.0,0.0,0.0,0.0,0.0,0.0,0.0,0.0,0.0,0.0,2.8476,3.0691,3.3769,3.6681,3.7236,0.0,0.0,4.1911,4.225,4.2024,4.0865,3.8334,3.5336,3.2437,0.0,0.0,2.4046,2.2705,2.1994,2.2498,2.272,2.3657,0.0,0.0,0.0,0.0,0.0,0.0,0.0,0.0,0.0,0.0,0.0,0.0,4.0023,4.0958,4.1723,4.2053,4.2124,4.2444,4.313,4.3155,4.321,4.329,4.329,4.303,4.2485,4.1767,4.107,4.0472,3.9753,3.9388,3.9388,3.9388,3.9388,0.0,3.9388,3.9819,4.0269,3.8213,3.8304,3.9325,3.7265,3.7401,3.8476,0.0,0.0,0.0,0.0,0.0,0.0,0.0,0.0,1.584,1.8061,1.9765,2.0753,2.0698,2.1332,0.0,0.0,0.0,0.0,0.0,0.0,0.0,0.0,0.0,0.0,0.0,0.0,0.0,2.0352,2.0352,0.0,0.0,0.0,0.0,0.0,0.0,2.0476,0.0,0.0,0.0,0.0,0.0,0.0,0.0,0.0,0.0,0.0,0.0,0.0,0.0,0.0,0.0,0.0,2.7649,2.9541,0.0,0.0,3.6546,3.8404,4.0187,4.1153,4.1392,4.03,3.7974,3.5385,3.293,0.0,2.6368,2.5059,2.376,2.2806,2.2686,2.2922,2.3525,0.0,0.0,0.0,0.0,0.0,0.0,0.0,0.0,0.0,0.0,0.0,0.0,4.25,4.2591,4.2707,4.2916,4.2931,4.3031,4.3305,4.329,4.329,4.329,4.294,4.2626,4.2396,4.1294,4.0651,4.0382,3.9723,3.9388,3.9388,3.9388,3.9388,0.0,3.9955,4.0413,4.0585,3.9368,3.933,3.9679,3.7963,3.8003,3.8857,0.0,0.0,0.0,0.0,0.0,0.0,1.4414,1.4697,1.5576,1.775,1.9692,2.0799,2.0642,2.1691,2.1619,0.0,0.0,0.0,0.0,0.0,0.0,0.0,0.0,0.0,0.0,0.0,0.0,2.1309,2.123,2.1509,0.0,0.0,2.1094,2.0918,0.0,0.0,0.0,0.0,0.0,0.0,0.0,0.0,0.0,0.0,0.0,0.0,0.0,0.0,0.0,0.0,0.0,0.0,0.0,0.0,0.0,0.0,3.406,3.6295,3.8203,3.9521,4.0138,3.936,3.713,3.4644,0.0,0.0,2.6686,2.5786,2.4537,2.3465,2.3031,2.3261,2.3677,0.0,0.0,2.5025,0.0,0.0,0.0,0.0,0.0,0.0,0.0,0.0,4.3216,4.4206,4.3663,4.329,4.329,4.329,4.329,4.329,4.329,4.329,4.329,4.2686,4.2306,4.2096,4.113,4.0487,4.0098,3.9828,3.9604,3.9409,3.9666,3.9646,0.0,4.0638,4.108,4.1006,4.0212,4.0188,4.0395,3.8752,3.8728,3.954,0.0,0.0,0.0,0.0,0.0,0.0,0.0,0.0,1.5264,1.6551,1.8118,1.9283,0.0,0.0,0.0,0.0,0.0,0.0,0.0,0.0,0.0,0.0,0.0,0.0,0.0,0.0,0.0,2.2764,2.2449,2.2731,2.3563,2.2703,2.2008,2.1481,0.0,0.0,0.0,0.0,0.0,0.0,0.0,0.0,0.0,0.0,0.0,0.0,0.0,0.0,0.0,0.0,0.0,0.0,0.0,0.0,0.0,0.0,3.1671,3.4989,3.6132,3.7224,3.8009,3.7865,3.5404,3.2828,0.0,0.0,2.6408,2.5749,2.4537,2.3595,2.3595,2.361,2.4022,2.5367,2.5413,0.0,0.0,0.0,0.0,0.0,0.0,0.0,0.0,0.0,4.3574,4.4272,4.3663,0.0,4.329,4.329,4.329,4.329,4.329,4.329,4.329,4.2686,4.2066,4.1384,4.1422,4.0681,3.9418,4.0098,4.0038,3.9445,4.0309,4.022,0.0,4.1262,4.1997,4.1853,4.0446,4.0865,4.1994,3.974,3.9851,4.1076,0.0,0.0,0.0,0.0,0.0,0.0,0.0,0.0,1.3945,1.5234,1.6796,0.0,0.0,0.0,0.0,0.0,0.0,0.0,0.0,0.0,0.0,0.0,0.0,0.0,0.0,0.0,0.0,2.3351,2.4119,2.5046,2.6109,2.4476,2.3446,2.2898,2.1544,0.0,0.0,0.0,0.0,0.0,0.0,0.0,0.0,0.0,0.0,0.0,0.0,0.0,0.0,0.0,0.0,0.0,0.0,0.0,0.0,0.0,0.0,0.0,3.4094,3.5125,3.5352,3.4033,3.2868,3.1525,2.952,2.7775,2.6273,2.5143,2.4201,2.3595,2.3595,2.3595,2.4193,2.5989,2.6614,0.0,0.0,0.0,0.0,0.0,0.0,0.0,0.0,0.0,4.3559,4.4272,4.3663,4.329,4.329,4.329,4.329,4.329,4.329,4.329,4.329,4.2237,4.1632,4.1407,4.0472,4.0109,4.0289,4.0504,4.0804,4.1196,4.1478,4.1445,4.1215,4.1862,4.2143,4.2057,4.1149,4.1111,4.1398,4.0178,4.0347,4.117,0.0,0.0,0.0,0.0,0.0,0.0,0.0,0.0,1.3248,1.418,1.5449,0.0,0.0,0.0,0.0,0.0,0.0,0.0,0.0,0.0,0.0,0.0,0.0,0.0,0.0,0.0,2.2724,2.4762,2.5701,2.6929,2.8443,2.6891,2.5366,2.3892,2.2683,0.0,0.0,0.0,0.0,0.0,0.0,0.0,2.6866,0.0,0.0,0.0,0.0,0.0,0.0,0.0,0.0,0.0,0.0,0.0,0.0,0.0,2.7522,0.0,0.0,3.2376,3.2643,3.1363,3.0457,0.0,0.0,2.6736,2.5615,2.4769,2.4066,2.3595,2.3595,2.3595,2.4088,2.56,2.6617,0.0,0.0,0.0,0.0,0.0,0.0,0.0,0.0,4.3245,4.3469,4.3873,4.3529,4.329,4.329,4.309,4.3075,4.329,4.329,4.317,4.297,4.1908,4.1438,4.1507,4.0688,4.0604,4.118,4.1447,4.1573,4.1629,4.225,4.2139,0.0,4.2354,4.2481,4.2113,4.147,4.1204,4.1119,4.0383,4.04,4.0781,0.0,0.0,0.0,0.0,0.0,0.0,0.0,0.0,0.0,0.0,0.0,0.0,0.0,0.0,0.0,0.0,0.0,0.0,0.0,0.0,0.0,0.0,0.0,0.0,0.0,2.0745,2.3272,2.6553,2.7106,2.8426,3.0462,2.9625,2.7664,2.4786,2.4636,2.3515,2.1805,2.2452,2.3115,2.3809,2.4363,2.4993,0.0,0.0,0.0,0.0,0.0,0.0,0.0,0.0,0.0,0.0,0.0,0.0,0.0,0.0,0.0,0.0,0.0,0.0,0.0,0.0,0.0,0.0,0.0,2.5914,0.0,2.4545,2.4022,2.3625,2.3729,2.3699,2.3939,2.4754,2.6019,0.0,0.0,0.0,0.0,0.0,0.0,0.0,4.1324,4.2644,4.3409,4.3409,4.3427,4.3452,4.3452,4.2859,4.2784,4.3307,4.3337,4.3028,4.241,4.1813,4.1531,4.1619,4.1697,4.1792,4.1949,4.2622,4.2222,0.0,4.2575,4.2386,4.1111,4.2605,4.2803,4.2067,4.1396,4.1119,4.1035,4.0367,4.0096,4.0096,0.0,0.0,0.0,0.0,0.0,0.0,0.0,0.0,0.0,0.0,0.0,0.0,0.0,0.0,0.0,0.0,0.0,0.0,0.0,0.0,0.0,0.0,0.0,0.0,0.0,2.1212,2.3203,2.4928,2.7579,2.9618,3.1007,3.0898,2.9718,2.7551,2.5978,2.4215,2.2475,2.2626,2.3343,2.4408,2.4537,2.4993,0.0,0.0,0.0,0.0,2.5435,2.5367,0.0,0.0,0.0,0.0,0.0,0.0,0.0,0.0,2.5839,2.5558,2.5516,0.0,2.7196,2.61,2.5879,2.5686,0.0,2.456,2.4455,0.0,0.0,0.0,2.4941,2.4709,2.5083,2.7305,2.8742,3.0118,3.1614,0.0,0.0,0.0,4.1092,4.2312,4.1459,4.3252,4.445,4.445,4.458,4.4665,4.4665,4.4004,4.3689,4.3812,4.3827,4.3386,4.2396,4.2406,4.1845,4.0734,4.1528,4.166,4.1198,4.2012,4.2248,4.1988,4.2383,4.2322,4.1955,4.1772,4.1606,4.1372,4.0645,4.0367,4.035,4.0163,4.0096,4.0096,0.0,0.0,0.0,0.0,0.0,0.0,0.0,0.0,0.0,0.0,0.0,0.0,0.0,0.0,0.0,0.0,0.0,0.0,0.0,0.0,0.0,0.0,0.0,0.0,0.0,2.1056,2.3379,2.5911,2.7939,3.022,3.2702,3.216,0.0,2.8939,2.6266,2.4356,2.3098,2.3098,2.3519,2.4141,2.4141,0.0,0.0,0.0,0.0,0.0,2.4567,2.4634,0.0,2.5023,2.5337,2.5615,0.0,0.0,0.0,0.0,2.4918,2.4612,2.4231,2.5345,2.6348,2.5307,2.5322,2.542,0.0,0.0,0.0,0.0,0.0,0.0,0.0,0.0,0.0,2.7799,2.946,0.0,0.0,0.0,0.0,0.0,4.1384,4.258,0.0,4.3765,4.448,4.4903,4.4722,4.4601,4.4601,4.393,4.369,4.3976,4.3706,4.3248,4.2685,4.2759,4.2312,4.1241,4.182,4.1906,4.1575,4.2024,4.2076,4.1813,4.2151,4.21,4.1762,4.1373,4.1204,4.1136,4.04,4.0096,4.0096,4.0096,4.0096,4.0096,0.0,0.0,0.0,0.0,0.0,0.0,0.0,0.0,0.0,0.0,0.0,0.0,0.0,0.0,0.0,0.0,0.0,0.0,0.0,0.0,0.0,0.0,0.0,0.0,1.9697,2.1016,2.3555,2.7319,2.8139,3.0336,3.3813,0.0,3.1599,0.0,2.6144,2.4321,2.3595,2.3595,2.3595,2.3595,2.3595,0.0,0.0,0.0,0.0,0.0,0.0,0.0,0.0,2.4455,2.4814,2.53,2.53,0.0,0.0,0.0,0.0,0.0,2.3729,2.5211,2.6512,2.554,2.554,2.5704,0.0,0.0,0.0,0.0,0.0,0.0,0.0,0.0,0.0,0.0,0.0,0.0,0.0,0.0,0.0,4.0053,4.1055,0.0,4.4164,4.4117,4.4354,4.5252,4.4667,4.4266,4.4266,4.3589,4.3428,4.3895,4.3364,4.2993,4.288,4.296,4.2668,4.198,4.2146,4.2132,4.194,4.2064,4.1728,4.1068,0.0,0.0,4.1035,4.1035,4.1035,4.0967,4.035,4.0096,4.0096,4.0096,4.0096,4.0121,0.0,0.0,0.0,0.0,0.0,0.0,0.0,0.0,0.0,0.0,0.0,0.0,0.0,0.0,0.0,0.0,0.0,0.0,0.0,0.0,0.0,0.0,0.0,0.0,2.2928,0.0,0.0,0.0,0.0,0.0,3.0823,3.3132,3.2257,2.8652,2.6452,2.4762,2.3595,2.3595,2.3595,2.3595,2.3595,0.0,0.0,0.0,0.0,0.0,0.0,0.0,0.0,2.3759,2.3819,2.3909,2.3909,0.0,0.0,0.0,0.0,0.0,2.4291,2.5914,2.6881,2.4492,2.5181,2.6153,2.5008,0.0,0.0,0.0,0.0,0.0,0.0,0.0,0.0,0.0,0.0,3.5026,0.0,0.0,3.923,3.9529,0.0,4.2448,4.226,4.3999,4.5457,4.6209,4.5768,4.5442,4.5442,4.4766,4.4083,4.3501,4.3384,4.3043,4.2406,4.2855,4.2431,4.1129,4.1891,4.1586,4.0299,4.1033,4.0967,4.0282,0.0,4.0367,4.0282,4.0282,4.0282,4.0265,4.0146,4.0096,4.0096,4.0096,4.0096,4.0154,0.0,0.0,0.0,0.0,0.0,0.0,0.0,0.0,0.0,0.0,0.0,0.0,0.0,0.0,0.0,0.0,0.0,0.0,0.0,0.0,0.0,0.0,2.1609,2.2401,2.3661,0.0,0.0,0.0,0.0,3.1137,3.2469,3.2302,3.054,2.7465,2.6106,2.4797,2.3595,2.3595,2.3595,2.3595,0.0,0.0,0.0,0.0,0.0,0.0,0.0,0.0,0.0,0.0,2.3595,2.3595,2.3595,0.0,0.0,0.0,0.0,0.0,2.3984,2.5255,2.6213,2.4986,2.6467,2.7949,2.6991,0.0,0.0,0.0,0.0,0.0,0.0,0.0,3.0417,3.2811,0.0,3.6391,3.8705,3.9032,3.9462,0.0,0.0,4.2717,4.3665,4.4397,4.5144,4.5988,4.5067,4.4468,4.4468,4.3758,4.3183,4.2828,4.2811,4.2642,4.2286,4.2143,4.1732,4.1061,4.151,4.1105,4.0017,4.0407,4.0434,4.0096,0.0,4.0096,4.0096,4.0096,4.0096,4.0121,4.0417,4.036,4.0146,4.0441,4.0528,4.0625,0.0,0.0,0.0,0.0,0.0,0.0,0.0,0.0,0.0,0.0,0.0,0.0,0.0,0.0,0.0,0.0,0.0,0.0,0.0,0.0,1.9922,2.1555,2.2617,2.3601,2.4575,0.0,2.7997,3.0554,3.1118,3.2292,3.3939,3.1292,2.8964,2.6952,2.6019,2.4993,2.3985,2.3837,2.3794,2.3773,0.0,0.0,0.0,0.0,0.0,0.0,0.0,0.0,0.0,0.0,0.0,0.0,0.0,0.0,0.0,2.397,2.39,2.3824,2.3969,2.4792,2.5615,2.5615,0.0,2.8906,2.9026,0.0,0.0,0.0,0.0,0.0,0.0,3.0103,0.0,3.5415,3.6372,3.7285,3.8852,3.9135,3.9871,4.1704,4.2158,4.3069,4.4989,4.4516,4.4464,4.5358,4.4012,4.3122,4.3122,4.2608,4.2219,4.2049,4.2033,4.1948,4.1779,4.1221,4.1035,4.1204,4.1018,4.0646,4.0096,4.0096,4.0096,4.0096,4.0096,4.0096,4.0096,4.0229,4.0286,4.0343,4.0897,4.0868,4.0546,4.0967,4.111,4.1201,0.0,0.0,0.0,0.0,0.0,0.0,0.0,0.0,0.0,0.0,0.0,0.0,0.0,0.0,0.0,0.0,0.0,0.0,0.0,0.0,2.0346,2.1657,2.3536,2.5397,2.7189,2.7347,2.8396,3.0419,3.1087,3.1782,3.2493,3.0381,2.895,2.8134,2.675,2.5751,2.5051,2.4552,2.4348,2.4287,2.3794,0.0,0.0,0.0,0.0,0.0,0.0,0.0,0.0,0.0,0.0,0.0,0.0,0.0,2.507,2.507,2.4716,2.4467,2.5089,2.5431,2.5615,2.5615,2.6213,0.0,2.9819,2.9879,0.0,0.0,0.0,0.0,0.0,3.1465,3.344,3.6746,3.7315,3.8003,3.9976,0.0,4.0864,4.1608,4.2607,4.3542,4.4391,4.3855,4.3793,4.4604,4.3234,4.2371,4.2371,4.232,4.1982,4.1305,4.1288,4.095,4.0282,4.0214,4.051,4.1187,4.0493,4.0146,4.0096,4.0096,4.0096,4.0096,4.0096,4.0096,4.0146,4.0631,4.0833,4.0903,4.1512,4.1707,4.1664,4.1707,4.1746,4.1832,0.0,0.0,0.0,0.0,0.0,0.0,0.0,0.0,0.0,0.0,0.0,0.0,0.0,0.0,0.0,0.0,0.0,0.0,0.0,0.0,2.1025,2.22,2.3438,2.4765,2.6222,2.8726,3.0556,3.1723,3.153,3.138,3.1197,2.9388,0.0,0.0,2.6398,2.5762,2.5182,2.4973,2.491,2.4875,2.4692,2.4389,0.0,0.0,0.0,0.0,0.0,0.0,0.0,0.0,2.373,2.3948,0.0,2.4552,2.4756,2.5089,2.5067,2.4879,2.4797,2.5727,2.6633,2.6309,2.7358,0.0,0.0,0.0,0.0,0.0,0.0,0.0,0.0,0.0,3.4805,3.6004,3.6881,3.802,3.9831,4.0508,4.1119,4.1961,4.2422,4.2803,4.3071,4.2867,4.2844,4.3159,4.2202,4.1627,4.1627,4.117,4.0807,4.051,4.0536,4.0383,4.0096,4.0096,4.0248,4.0493,4.0231,4.0096,4.0096,4.0096,4.0096,4.0121,4.0449,4.0601,4.0631,4.1223,4.1468,4.149,4.1707,4.2021,4.2362,4.2362,4.2362,4.2442,0.0,0.0,0.0,0.0,0.0,0.0,0.0,0.0,0.0,0.0,0.0,0.0,0.0,0.0,0.0,0.0,0.0,0.0,0.0,0.0,2.161,2.2584,2.3526,2.4384,2.5225,2.8557,3.0717,3.1584,3.0898,3.0216,2.9535,0.0,0.0,0.0,0.0,2.618,2.5999,2.5602,2.5449,2.543,2.5278,2.4973,0.0,0.0,0.0,0.0,0.0,0.0,0.0,0.0,2.4116,2.4199,0.0,0.0,2.5012,2.5508,2.5561,2.5373,2.4992,2.5963,2.7019,0.0,0.0,0.0,0.0,0.0,0.0,0.0,0.0,0.0,0.0,0.0,0.0,0.0,3.7266,3.8316,3.9686,4.0471,4.1173,4.1799,4.2136,4.2286,4.2286,4.2083,4.1948,4.1948,4.1271,4.0849,4.0849,4.0383,4.0096,4.0096,4.0096,4.0096,4.0096,4.0096,4.0096,4.0096,4.0096,4.0096,4.0096,4.0096,4.0179,4.0368,4.0733,4.1018,4.1246,4.1832,4.2185,4.2327,4.2327,4.2599,4.2958,4.2958,4.2958,4.3013,0.0,0.0,0.0,0.0,0.0,0.0,0.0,0.0,0.0,0.0,0.0,0.0,0.0,0.0,0.0,0.0,0.0,0.0,0.0,0.0,0.0,0.0,0.0,2.4689,2.4689,2.6569,2.8229,2.9592,2.8906,2.8213,2.7488,2.6746,0.0,0.0,0.0,0.0,2.7704,2.6525,2.6013,2.5961,2.543,2.5221,2.5221,0.0,0.0,0.0,0.0,0.0,0.0,0.0,2.5202,2.5297,2.5834,0.0,0.0,2.6573,2.6383,2.603,2.6013,2.6151,0.0,0.0,0.0,0.0,0.0,0.0,0.0,0.0,0.0,0.0,0.0,0.0,0.0,3.8451,3.8786,3.9042,3.9698,4.0469,4.098,4.1009,4.1759,4.2269,4.2269,4.1627,4.1187,4.1187,4.0493,4.0096,4.0096,4.0096,4.0096,4.0096,4.0096,4.0096,4.0096,4.0096,4.0096,4.0096,4.0113,4.0096,4.0096,4.0113,4.0392,4.0903,4.0903,4.1268,4.1853,4.246,4.3014,4.3515,4.3515,4.3515,4.3515,4.3515,4.3515,4.3515,0.0,0.0,0.0,0.0,0.0,0.0,0.0,0.0,0.0,0.0,0.0,0.0,0.0,0.0,0.0,0.0,0.0,0.0,0.0,0.0,0.0,0.0,0.0,0.0,0.0,0.0,2.6378,2.8184,2.7515,2.7075,0.0,0.0,0.0,2.6266,0.0,0.0,2.6543,2.6502,2.6487,2.647,2.6315,2.6052,2.5799,0.0,0.0,0.0,0.0,0.0,0.0,0.0,0.0,0.0,2.5834,0.0,0.0,2.6724,2.696,2.7188,2.6846,2.745,0.0,2.9403,0.0,0.0,0.0,0.0,0.0,0.0,0.0,0.0,0.0,0.0,0.0,3.7564,3.8176,3.8897,3.9137,3.9799,4.0266,4.0357,4.0584,4.0756,4.0756,4.057,4.0434,4.0434,4.0231,4.0096,4.0096,4.0096,4.0096,4.0096,4.0096,4.0096,4.0096,4.0096,4.0096,4.0096,4.0473,4.0473,4.0121,4.0497,4.0733,4.0949,4.181,4.2282,4.248,4.3032,4.3357,4.3515,4.3515,4.3515,4.3515,4.3515,4.3515,4.3515,0.0,0.0,0.0,0.0,0.0,0.0,0.0,0.0,0.0,0.0,0.0,0.0,0.0,0.0,0.0,0.0,0.0,0.0,0.0,0.0,0.0,0.0,0.0,0.0,0.0,2.4014,2.4807,0.0,0.0,0.0,0.0,0.0,0.0,2.5899,0.0,2.7537,2.6838,2.6739,2.6691,2.6691,2.6691,2.6539,2.6314,0.0,0.0,0.0,0.0,0.0,0.0,0.0,0.0,0.0,2.6122,0.0,0.0,2.6691,2.681,2.6978,2.73,2.8367,0.0,3.1325,3.4362,3.7453,3.9349,0.0,0.0,0.0,0.0,4.223,4.0572,4.0161,0.0,3.8333,3.8788,3.9325,3.9382,3.9724,3.99,3.9707,3.9673,3.9554,3.9242,3.9503,3.9529,3.9242,3.9503,3.9554,3.9225,3.9503,3.9673,3.9673,3.996,4.0096,4.0096,4.0096,4.0204,4.0417,4.075,4.085,4.0791,4.1105,4.1402,4.1664,4.2599,4.3014,4.3032,4.3375,4.3515,4.3515,4.3515,4.3515,4.3515,4.3515,4.3515,4.3515,0.0,0.0,0.0,0.0,0.0,0.0,0.0,0.0,0.0,0.0,0.0,0.0,0.0,0.0,0.0,0.0,0.0,0.0,0.0,0.0,0.0,0.0,0.0,0.0,0.0,0.0,0.0,0.0,0.0,0.0,0.0,0.0,2.6531,2.6466,0.0,2.8051,2.7876,2.7057,2.6691,2.6691,2.6691,2.6691,2.6691,2.6691,0.0,0.0,0.0,0.0,0.0,0.0,0.0,0.0,2.6573,2.6452,2.6239,2.659,2.6234,2.6048,2.7587,0.0,0.0,3.3102,3.6485,0.0,4.1897,4.3447,4.4395,4.4395,0.0,4.3139,4.2337,4.1102,4.0189,4.0113,4.0096,4.0079,4.0011,4.0011,3.974,3.8988,3.8903,3.8633,3.7973,3.8514,3.8616,3.7956,3.8563,3.8655,3.7994,3.8659,3.904,3.904,3.9685,4.0025,4.0025,4.0118,4.0336,4.0764,4.0902,4.12,4.1661,4.1803,4.2203,4.2807,4.3286,4.3515,4.3515,4.3515,4.3515,4.3515,4.3515,4.3515,4.3515,4.3515,4.3515,4.3515,0.0,0.0,0.0,0.0,0.0,0.0,0.0,0.0,0.0,0.0,0.0,0.0,0.0,0.0,0.0,0.0,0.0,0.0,0.0,0.0,0.0,0.0,0.0,0.0,0.0,0.0,0.0,0.0,0.0,0.0,0.0,0.0,0.0,2.5871,0.0,2.7546,2.6611,2.6664,2.6691,2.6691,2.6691,2.6691,2.6691,2.6691,2.6691,0.0,0.0,0.0,0.0,0.0,0.0,0.0,2.6674,2.7029,2.7313,2.6843,2.659,2.6911,2.9042,2.9414,0.0,0.0,3.8413,4.1153,4.2794,4.2963,4.2777,4.2777,4.3115,4.2987,4.1677,4.1187,4.0781,4.0197,4.0096,3.991,3.9334,3.9225,3.8954,3.8227,3.8142,3.8075,3.7922,3.8041,3.8075,3.7922,3.8379,3.8636,3.8463,3.8999,3.9304,3.9304,3.9462,3.955,3.955,4.0184,4.0231,3.974,4.0795,4.1035,4.0593,4.1925,4.2808,4.3321,4.3444,4.3515,4.3515,4.3515,4.3515,4.3515,4.3515,4.3515,4.3515,4.3515,4.3515,4.3515,0.0,0.0,0.0,0.0,0.0,0.0,0.0,0.0,0.0,0.0,0.0,0.0,0.0,0.0,0.0,0.0,0.0,0.0,0.0,0.0,0.0,0.0,0.0,0.0,0.0,0.0,0.0,0.0,0.0,0.0,0.0,0.0,0.0,2.6141,0.0,2.7556,2.6682,2.6694,2.6691,2.6691,2.6691,2.6691,2.6691,2.6691,2.6691,2.6691,2.6691,0.0,0.0,0.0,0.0,0.0,0.0,0.0,2.7199,2.681,2.6437,2.659,2.8466,0.0,0.0,3.6992,0.0,4.1491,4.2625,4.2574,4.2202,4.1847,4.2354,4.254,4.1407,4.1204,4.0849,3.9757,3.9571,3.9334,3.8582,3.8464,3.8193,3.7449,3.7364,3.7212,3.6834,3.7144,3.7312,3.7194,3.7745,3.8026,3.7933,3.8531,3.8863,3.8863,3.9217,3.9411,3.9411,3.9817,3.9942,3.9789,4.0487,4.0764,4.065,4.1541,4.2302,4.2928,4.2928,4.2928,4.2947,4.3332,4.3515,4.3515,4.3515,4.3515,4.3515,4.3515,4.3515,4.3515,0.0,0.0,0.0,0.0,0.0,0.0,0.0,0.0,0.0,0.0,0.0,0.0,0.0,0.0,0.0,0.0,0.0,0.0,0.0,0.0,0.0,0.0,0.0,0.0,0.0,0.0,0.0,0.0,0.0,0.0,0.0,0.0,0.0,2.6645,0.0,0.0,2.7013,2.6794,2.6691,2.6691,2.6691,2.6691,2.6691,2.6691,2.6691,2.6708,2.6791,2.6758,2.6708,2.6791,0.0,0.0,0.0,0.0,2.6691,2.6691,2.6184,2.5947,2.757,0.0,3.3017,3.822,4.0189,0.0,4.1914,4.1999,4.1779,4.1305,4.1677,4.188,4.1153,4.0916,4.0426,3.9191,3.8886,3.8548,3.7821,3.7719,3.7432,3.6694,3.6586,3.6265,3.5481,3.6011,3.6343,3.6236,3.6842,3.7201,3.7126,3.7787,3.8161,3.8161,3.8747,3.9137,3.9281,3.9423,3.9635,3.9932,3.9932,4.0287,4.0875,4.0747,4.1203,4.2084,4.2084,4.2084,4.2158,4.2947,4.3221,4.3112,4.3404,4.3423,4.3296,4.346,4.3515,4.3515,0.0,0.0,0.0,0.0,0.0,0.0,0.0,0.0,0.0,0.0,0.0,0.0,0.0,0.0,0.0,0.0,0.0,0.0,2.3595,0.0,0.0,2.441,2.4851,2.4835,0.0,0.0,0.0,0.0,0.0,0.0,0.0,0.0,0.0,2.6606,0.0,0.0,0.0,2.6612,2.6691,2.6691,2.6691,2.6691,2.6691,2.6691,2.6691,2.6741,2.7099,2.7004,2.6758,2.7099,2.7004,0.0,0.0,0.0,2.6691,2.6691,2.6184,2.6082,0.0,0.0,3.4556,0.0,3.8278,3.9648,0.0,0.0,4.0553,0.0,4.1288,4.1119,4.0383,3.9715,3.9225,3.9022,3.8464,3.7787,3.7066,3.6948,3.6637,3.5836,3.5752,3.5487,3.4726,3.4726,3.5002,3.5408,3.5915,3.638,3.6766,3.7307,3.7603,3.7603,3.7695,3.8081,3.8793,3.9485,3.952,3.8907,3.8907,3.9305,4.0029,3.935,3.9845,4.126,4.126,4.126,4.1315,4.2139,4.2047,4.157,4.2947,4.3057,4.2543,4.3239,4.3515,4.3515,0.0,0.0,0.0,0.0,0.0,0.0,0.0,0.0,0.0,0.0,0.0,0.0,0.0,0.0,0.0,2.3194,2.3443,2.373,2.4032,2.4266,2.441,2.441,2.4632,2.4511,2.3948,0.0,0.0,0.0,0.0,0.0,0.0,2.6811,2.7649,0.0,0.0,0.0,0.0,0.0,2.6691,2.6691,2.6691,2.657,0.0,0.0,0.0,0.0,0.0,0.0,2.7394,2.7592,2.7515,2.7332,2.7099,0.0,0.0,0.0,2.6471,0.0,2.8502,3.0499,3.2594,0.0,3.666,0.0,0.0,0.0,4.0197,4.051,4.024,3.9868,3.9529,3.9208,3.8717,3.7912,3.7506,3.7009,3.6231,3.6129,3.5842,3.5081,3.4979,3.48,3.4312,3.4285,3.4592,3.5367,3.5597,3.5938,3.6443,3.671,3.6831,3.6831,3.6831,3.7,3.7349,3.8153,3.8597,3.8689,3.823,3.845,3.9203,3.8377,3.8909,4.0432,4.0432,4.0432,4.0487,4.1313,4.1407,4.1168,4.1882,4.2213,4.2341,4.269,4.3244,4.3772,0.0,0.0,0.0,0.0,0.0,0.0,0.0,0.0,0.0,0.0,0.0,0.0,0.0,0.0,0.0,0.0,2.3943,2.4116,2.4389,2.441,2.441,2.441,2.4532,2.4348,2.3815,0.0,0.0,0.0,0.0,0.0,2.6881,2.736,2.9177,0.0,3.0382,0.0,0.0,0.0,0.0,0.0,0.0,0.0,0.0,0.0,0.0,0.0,0.0,0.0,0.0,0.0,0.0,2.7855,2.7562,2.7378,0.0,0.0,0.0,0.0,0.0,0.0,3.0395,3.278,0.0,0.0,0.0,0.0,3.9317,0.0,3.9089,3.865,3.8464,3.843,3.8007,3.6705,3.6355,3.5926,3.5143,3.5135,3.5023,3.4444,3.4486,3.4404,3.4017,3.3968,3.4321,3.5161,3.5225,3.545,3.5926,3.5973,3.5973,3.5973,3.5973,3.6083,3.6303,3.6905,3.7511,3.8083,3.7477,3.7647,3.8472,3.7878,3.8416,3.9819,3.9663,3.9588,3.9662,4.0469,4.0655,4.0526,4.093,4.135,4.1734,4.2016,4.2788,4.3715,0.0,0.0,0.0,0.0,0.0,0.0,0.0,0.0,0.0,0.0,0.0,0.0,0.0,2.439,2.491,2.441,2.4816,2.4914,2.443,2.441,2.441,2.441,2.4891,0.0,2.4369,0.0,0.0,0.0,0.0,0.0,2.754,2.7585,2.9663,3.3323,3.1909,3.0151,2.8276,0.0,0.0,0.0,0.0,0.0,0.0,0.0,0.0,0.0,0.0,0.0,0.0,0.0,0.0,0.0,0.0,0.0,0.0,0.0,0.0,0.0,0.0,2.791,0.0,3.0125,0.0,0.0,0.0,0.0,0.0,3.7872,3.799,3.7736,3.7049,3.6914,3.6637,3.5785,3.5081,3.4353,3.3626,3.3905,3.417,3.4135,3.4451,3.4411,3.3705,3.3635,3.3857,3.4431,3.4462,3.4649,3.505,3.5078,3.5078,3.5078,3.5078,3.5463,3.6285,3.634,3.6376,3.6413,3.6376,3.6925,3.7949,3.7893,3.8502,3.9573,3.9016,3.8762,3.8817,3.9625,3.9515,3.8982,4.049,4.0671,4.015,4.1252,4.2158,4.2916,0.0,0.0,0.0,0.0,0.0,0.0,0.0,0.0,0.0,0.0,0.0,0.0,0.0,2.4483,2.5125,2.4914,2.4756,2.48,2.5087,2.434,2.39,2.39,2.4074,2.4074,2.39,0.0,0.0,0.0,0.0,2.4863,2.6318,2.6752,2.7929,2.9692,3.0346,3.0422,2.9978,2.8749,0.0,0.0,0.0,0.0,0.0,0.0,0.0,0.0,0.0,0.0,0.0,0.0,0.0,0.0,0.0,0.0,0.0,0.0,0.0,0.0,0.0,0.0,0.0,2.9472,0.0,3.1931,3.3181,3.4682,3.5852,3.6127,3.6395,3.6536,3.6278,3.6353,3.6225,3.5475,3.4953,3.4544,3.4265,3.4381,3.4318,3.3827,3.3917,3.3825,3.3389,3.3331,3.352,3.3988,3.4016,3.4073,3.4215,3.3738,3.3463,3.3463,3.3463,3.4105,3.5445,3.5463,3.5752,3.6285,3.572,3.6316,3.7882,3.736,3.8034,3.9587,3.9377,3.9281,3.93,3.958,3.9543,3.9337,3.9904,4.016,4.0222,4.063,4.1436,4.2433,0.0,0.0,0.0,0.0,0.0,0.0,0.0,0.0,0.0,0.0,0.0,0.0,0.0,0.0,2.6167,2.6447,2.5376,2.4975,2.5722,2.4568,2.3794,2.3595,2.3595,2.3595,2.3595,0.0,0.0,0.0,0.0,0.0,0.0,2.61,2.6948,2.7837,2.8785,2.9559,0.0,0.0,0.0,2.7368,0.0,0.0,2.5934,0.0,0.0,0.0,0.0,0.0,0.0,0.0,0.0,0.0,0.0,0.0,0.0,0.0,0.0,0.0,0.0,0.0,0.0,0.0,0.0,2.9918,3.0932,0.0,3.3601,3.4123,3.4684,3.5169,3.5452,3.5338,3.51,3.4723,3.4477,3.4235,3.3988,3.4091,3.3997,3.3516,3.3575,3.3602,3.3415,3.339,3.3508,3.3793,3.3807,0.0,3.3421,3.2894,3.2472,3.221,3.221,3.2839,3.4179,3.4197,3.4619,3.544,3.4962,3.5601,3.7217,3.6779,3.747,3.9067,3.9067,3.9267,3.9599,3.9599,3.9599,3.9599,3.9599,3.9776,4.0061,4.0061,4.076,4.1831,0.0,0.0,0.0,0.0,0.0,0.0,0.0,0.0,0.0,0.0,0.0,0.0,0.0,0.0,0.0,2.8959,2.6756,2.5609,2.635,2.5156,2.4209,2.3689,2.361,2.3595,2.3595,0.0,0.0,0.0,0.0,0.0,0.0,0.0,2.6954,2.8313,2.7624,2.7628,2.8216,0.0,2.8958,2.8809,0.0,2.6816,2.7758,0.0,0.0,0.0,2.8549,2.8631,0.0,2.8379,0.0,0.0,0.0,0.0,0.0,0.0,0.0,0.0,0.0,0.0,0.0,0.0,0.0,0.0,2.8699,0.0,3.0414,3.1875,3.2842,3.3617,3.4394,3.3702,3.3109,3.3453,3.3527,3.3332,3.264,3.2937,3.3214,3.3214,3.3564,3.3807,3.3807,3.3807,3.3807,3.3807,3.3807,3.3458,3.2674,3.2583,3.221,3.1397,3.136,3.1751,3.2583,3.2614,3.3031,3.3815,3.4093,3.4813,3.5916,3.6178,3.6919,3.8007,3.8007,3.86,3.9596,3.9596,3.9615,3.9634,3.9634,3.9622,3.9611,3.9599,4.0151,4.1021,0.0,0.0,0.0,0.0,0.0,0.0,0.0,0.0,0.0,0.0,0.0,0.0,0.0,0.0,2.8975,2.9736,2.8317,2.7686,2.8423,2.6402,2.5133,2.4979,2.4094,2.3595,2.3595,0.0,0.0,0.0,0.0,0.0,0.0,0.0,0.0,0.0,2.7078,2.7544,2.8213,2.8348,0.0,0.0,2.7555,2.7199,0.0,0.0,0.0,0.0,0.0,2.7353,2.8389,0.0,2.8776,3.0243,0.0,0.0,0.0,0.0,0.0,0.0,2.8688,0.0,0.0,0.0,0.0,0.0,0.0,0.0,2.9671,2.9518,3.0355,3.1003,3.064,3.0818,3.1034,3.1129,3.2115,3.3019,3.3378,3.355,3.362,3.362,3.3734,3.3807,3.3807,3.3807,3.3807,0.0,3.3807,3.3697,3.3476,3.2357,3.1366,3.0558,3.0522,3.1201,3.2583,3.2797,3.3288,3.4086,3.442,3.5131,3.6187,3.6269,3.6919,3.8007,3.8007,3.8535,3.9387,3.9387,3.9731,4.0257,4.0257,4.012,3.9932,3.9679,3.9762,4.017,0.0,0.0,0.0,0.0,0.0,0.0,0.0,0.0,0.0,0.0,0.0,0.0,0.0,0.0,0.0,3.0497,2.9324,2.8757,2.927,2.7624,2.64,2.5868,2.4914,2.4389,0.0,0.0,0.0,0.0,0.0,0.0,0.0,0.0,0.0,0.0,0.0,0.0,0.0,0.0,0.0,0.0,2.806,0.0,0.0,2.7638,2.7486,0.0,0.0,0.0,2.9798,2.7932,2.8782,0.0,0.0,0.0,0.0,0.0,0.0,0.0,0.0,0.0,0.0,0.0,0.0,0.0,2.7486,2.7869,2.8221,0.0,2.8486,2.911,2.8846,2.8907,2.9053,2.9286,3.0199,3.1446,3.3065,3.2999,3.2926,3.3256,3.3311,3.3311,3.3311,3.3605,3.366,3.333,3.3605,3.3513,3.2834,3.1691,3.0692,2.9898,2.9953,3.0779,3.2414,3.2604,3.3251,3.4412,3.4715,3.5182,3.58,3.593,3.632,3.6969,3.6969,3.745,3.8219,3.8219,3.9123,4.0496,4.0496,4.0397,4.0232,3.9932,3.9808,3.9998,0.0,0.0,0.0,0.0,0.0,0.0,0.0,0.0,0.0,0.0,0.0,0.0,0.0,0.0,0.0,0.0,3.0008,2.9313,2.9486,2.8761,0.0,0.0,0.0,0.0,0.0,0.0,0.0,0.0,0.0,0.0,0.0,0.0,0.0,0.0,0.0,0.0,0.0,0.0,0.0,2.9989,2.8618,2.8821,0.0,0.0,2.9803,2.9736,2.9818,3.0671,3.1295,2.8435,2.8364,0.0,0.0,0.0,0.0,0.0,2.9207,0.0,0.0,0.0,0.0,0.0,0.0,0.0,2.709,2.6987,2.7034,0.0,2.7163,2.7727,2.7931,2.7453,2.7186,2.762,2.7998,2.9183,3.19,3.1775,3.1659,3.2381,3.2472,3.2472,3.2472,3.3109,3.3275,3.2656,3.3348,3.3104,3.1538,3.0991,3.0325,2.9461,2.9607,3.0459,3.2034,3.209,3.2949,3.4612,3.4874,3.5043,3.5147,3.5383,3.55,3.55,3.55,3.5962,3.6692,3.6692,3.8142,4.0362,4.0362,4.0419,4.0473,4.0195,4.0101,4.0215,0.0,0.0,0.0,0.0,0.0,0.0,0.0,0.0,0.0,0.0,0.0,0.0,0.0,0.0,0.0,0.0,3.0956,3.0779,3.0836,2.9723,0.0,0.0,0.0,0.0,0.0,0.0,0.0,0.0,0.0,0.0,0.0,0.0,0.0,0.0,0.0,0.0,0.0,0.0,0.0,3.0072,2.9768,0.0,2.9145,2.85,2.7874,2.7435,2.8043,2.8271,2.8314,2.8583,2.8485,2.8439,0.0,0.0,0.0,0.0,0.0,0.0,0.0,0.0,0.0,0.0,0.0,0.0,2.9005,2.9531,2.9732,0.0,2.6712,2.638,2.4907,2.505,2.5308,2.5143,2.5936,2.7441,2.9922,3.0929,3.147,3.1623,3.1623,3.1623,3.1623,3.1782,3.2063,3.2564,3.3348,3.3189,3.1797,3.1622,3.0968,2.9681,2.9678,3.0167,3.1139,3.1368,3.2322,3.397,3.4251,3.474,3.5424,3.5486,3.55,3.55,3.55,3.5962,3.6692,3.6692,3.7815,3.9534,3.9534,3.9938,4.0473,4.0195,4.0101,4.0215,0.0,0.0,0.0,0.0,0.0,0.0,0.0,0.0,0.0,0.0,0.0,0.0,0.0,0.0,0.0,0.0,0.0,0.0,0.0,0.0,0.0,0.0,0.0,0.0,0.0,0.0,0.0,0.0,0.0,0.0,0.0,0.0,0.0,0.0,0.0,0.0,0.0,0.0,3.0987,3.0581,2.9854,0.0,2.8366,2.7959,2.7334,2.6826,2.7759,2.7881,2.7864,2.9528,2.964,0.0,0.0,2.9466,2.9715,0.0,3.0362,3.0283,0.0,0.0,0.0,3.0393,0.0,0.0,0.0,2.931,2.9157,2.753,2.6888,2.6252,2.5106,2.5057,2.5015,2.4495,2.5193,2.629,2.7712,2.8542,2.9145,2.9561,2.9597,2.9597,2.9597,3.0332,3.1146,3.1935,3.2008,3.1777,3.1224,3.1306,3.0894,2.9883,2.9973,3.0445,3.1295,3.1424,3.2335,3.4002,3.4139,3.443,3.4872,3.5308,3.525,3.4872,3.5308,3.5731,3.6096,3.6096,3.7103,3.8681,3.913,3.9785,4.0481,4.0347,4.0304,4.0419,0.0,0.0,0.0,0.0,0.0,0.0,0.0,0.0,0.0,0.0,0.0,0.0,0.0,0.0,0.0,0.0,0.0,0.0,0.0,0.0,0.0,0.0,0.0,2.9573,0.0,2.909,0.0,0.0,0.0,0.0,0.0,0.0,0.0,0.0,0.0,0.0,0.0,0.0,0.0,3.0869,0.0,2.8704,2.8213,2.7908,2.7418,2.7029,2.7968,2.816,2.833,3.0516,3.0729,2.9962,2.9248,2.9739,0.0,0.0,0.0,0.0,0.0,0.0,0.0,0.0,0.0,3.0785,0.0,0.0,0.0,2.7908,2.7273,0.0,0.0,0.0,0.0,0.0,0.0,0.0,0.0,2.6056,0.0,2.7688,2.7669,2.7622,2.778,2.898,3.0008,3.0662,3.0393,3.0247,3.035,3.0706,3.0622,3.0018,3.026,3.0731,3.1448,3.1448,3.2295,3.3955,3.3955,3.4129,3.4468,3.5173,3.5122,3.4487,3.5192,3.5596,3.5731,3.5731,3.6738,3.8296,3.8834,3.965,4.0496,4.0496,4.0496,4.0593,2.4904,2.4851,0.0,0.0,0.0,0.0,0.0,0.0,0.0,0.0,0.0,0.0,0.0,0.0,0.0,0.0,0.0,0.0,3.4923,0.0,0.0,0.0,0.0,0.0,3.0013,3.058,0.0,0.0,0.0,0.0,0.0,0.0,0.0,0.0,3.0395,0.0,0.0,0.0,3.0207,0.0,2.9331,2.933,0.0,2.8314,2.7756,2.7708,2.7879,2.8119,2.866,0.0,3.062,3.0076,0.0,3.1569,3.0215,3.2629,0.0,0.0,0.0,0.0,0.0,0.0,3.2944,0.0,0.0,0.0,3.0387,2.8239,0.0,0.0,0.0,0.0,0.0,0.0,0.0,0.0,2.4172,2.4882,2.6109,2.7633,2.7163,2.7016,2.7732,2.7982,2.811,2.8191,2.9439,3.0008,2.956,3.0405,3.0622,3.0018,3.026,3.0442,3.0558,3.0558,3.1385,3.3045,3.3045,3.3853,3.5365,3.5442,3.5442,3.5365,3.5462,3.5904,3.6558,3.6558,3.7584,3.9092,3.8411,3.9104,4.0496,4.0496,4.0496,4.0516,2.5454,2.5541,0.0,0.0,0.0,0.0,0.0,0.0,0.0,0.0,0.0,0.0,0.0,0.0,0.0,0.0,0.0,3.4612,0.0,0.0,0.0,0.0,0.0,0.0,0.0,0.0,0.0,0.0,3.0886,0.0,0.0,0.0,0.0,0.0,3.0057,0.0,2.9736,0.0,3.0734,0.0,0.0,0.0,0.0,2.8078,2.745,2.7892,2.8112,2.8438,2.8883,0.0,3.0462,0.0,0.0,0.0,0.0,0.0,0.0,0.0,0.0,0.0,0.0,0.0,0.0,0.0,3.1311,0.0,3.0459,0.0,0.0,0.0,0.0,0.0,0.0,0.0,2.6385,0.0,0.0,0.0,2.4952,0.0,0.0,0.0,2.6329,2.6403,2.6605,2.7071,2.8154,2.8765,2.8657,2.9636,3.0139,2.9999,3.026,3.0404,3.0404,3.0404,3.1231,3.2891,3.2891,3.3545,3.4757,3.5269,3.5212,3.4776,3.5269,3.5962,3.6692,3.6692,3.7738,3.9265,3.8892,3.9477,4.0496,4.0496,4.0496,4.065,0.0,0.0,0.0,0.0,0.0,0.0,2.9735,3.1041,3.2209,0.0,0.0,0.0,3.7524,3.7727,0.0,0.0,3.8648,3.732,0.0,0.0,3.344,0.0,0.0,0.0,0.0,0.0,0.0,0.0,0.0,0.0,0.0,0.0,0.0,0.0,0.0,2.9888,2.9125,0.0,3.119,3.1224,3.1546,3.1261,3.0328,2.7926,2.7384,2.794,2.8183,2.8583,2.9078,2.95,3.064,0.0,3.0282,3.117,3.2526,0.0,0.0,0.0,3.3256,0.0,0.0,0.0,0.0,0.0,0.0,0.0,0.0,0.0,0.0,0.0,0.0,0.0,0.0,0.0,0.0,2.7001,0.0,2.5456,0.0,0.0,0.0,0.0,0.0,2.5393,2.5558,2.5915,2.6686,2.7214,2.7342,2.8641,2.9431,2.9589,3.0126,3.0404,3.0404,3.0404,3.1231,3.2891,3.2891,3.3487,3.4584,3.5212,3.5154,3.4603,3.5462,3.6308,3.7058,3.7315,3.8296,3.9631,3.9631,3.9996,4.0496,4.0496,4.0496,4.0727,2.8753,2.8906,0.0,0.0,0.0,0.0,3.0332,3.0526,3.1542,3.4257,0.0,0.0,0.0,0.0,0.0,0.0,0.0,4.0282,4.095,0.0,3.3508,0.0,0.0,3.273,0.0,0.0,0.0,0.0,0.0,0.0,0.0,0.0,0.0,0.0,0.0,3.1532,3.2107,3.1461,3.119,3.114,3.0446,2.9736,2.8976,0.0,2.7816,2.7897,2.7911,0.0,0.0,3.0797,3.1366,3.1684,3.3151,0.0,0.0,0.0,0.0,0.0,0.0,0.0,0.0,3.399,0.0,0.0,0.0,0.0,3.2758,0.0,0.0,0.0,0.0,0.0,0.0,0.0,0.0,0.0,0.0,0.0,0.0,0.0,0.0,0.0,0.0,2.5393,2.5081,2.4337,2.5026,2.5476,2.5486,2.7435,2.8539,2.8547,2.9748,3.0404,3.0404,3.0404,3.1231,3.2891,3.2891,3.3795,3.5462,3.5481,3.5481,3.55,3.6308,3.7161,3.8027,3.8873,3.9708,4.0458,4.0458,4.0477,4.0496,4.0496,4.0496,4.0631,0.0,0.0,0.0,0.0,0.0,3.0174,3.0981,3.2674,3.4925,3.7834,3.8779,0.0,0.0,4.5244,4.5531,0.0,0.0,4.3267,4.1999,3.958,0.0,0.0,0.0,3.5673,0.0,0.0,0.0,0.0,0.0,0.0,0.0,0.0,0.0,0.0,0.0,3.1072,0.0,0.0,0.0,0.0,0.0,3.0954,3.1029,0.0,2.8786,2.8655,2.8933,2.8998,2.9078,2.9629,3.0522,3.1323,3.0797,3.1715,3.2834,3.2045,3.2375,3.3054,3.333,3.3788,3.427,3.4527,0.0,0.0,0.0,0.0,0.0,0.0,0.0,0.0,0.0,0.0,0.0,0.0,0.0,0.0,0.0,0.0,0.0,0.0,0.0,0.0,0.0,0.0,2.4698,2.442,2.5153,2.5541,2.5403,2.7379,2.8501,2.8501,2.9748,3.0404,3.0404,3.0404,3.0962,3.2102,3.2641,3.3506,3.4661,3.5231,3.55,3.5519,3.5788,3.6692,3.8027,3.8315,3.9238,4.0496,4.0496,4.0496,4.0496,4.0496,4.0496,4.0708,3.1304,0.0,0.0,0.0,0.0,3.1495,3.2708,3.5379,3.8139,4.0472,4.2522,0.0,4.7712,0.0,4.8497,0.0,4.7866,4.6363,4.3301,4.2245,0.0,3.8311,3.8261,0.0,0.0,0.0,0.0,0.0,0.0,3.3406,0.0,0.0,0.0,0.0,0.0,3.1816,3.0954,0.0,3.2104,0.0,0.0,3.1478,0.0,0.0,3.0143,3.0132,2.9583,2.9396,2.9372,2.9097,3.0081,3.1231,3.0173,3.1476,3.3164,3.2137,3.2559,3.3366,3.3366,3.3587,3.3917,3.4435,3.4192,0.0,3.4147,0.0,3.4515,0.0,0.0,0.0,0.0,0.0,0.0,0.0,0.0,0.0,0.0,2.5876,0.0,0.0,0.0,0.0,0.0,2.504,2.4909,2.4637,2.5088,2.5459,2.5606,2.725,2.8309,2.8601,2.9774,3.0558,3.0865,3.0865,3.1442,3.2602,3.3103,3.3814,3.468,3.5231,3.55,3.5538,3.6135,3.7007,3.8046,3.8642,3.9534,4.0535,4.0835,4.095,4.0912,4.0612,4.09,4.1593,3.3094,0.0,0.0,0.0,3.2627,3.337,3.5358,3.8425,4.0972,4.2315,4.5142,4.7608,4.9177,4.9974,5.0627,5.1203,5.1236,4.9424,4.5106,4.4784,0.0,0.0,3.8471,3.777,3.4776,0.0,0.0,0.0,0.0,0.0,0.0,0.0,0.0,0.0,3.415,0.0,3.2344,3.3085,3.256,3.119,3.119,3.1241,3.1292,3.1247,3.1765,3.2223,2.994,2.957,3.0081,2.9317,3.0063,3.1286,3.1342,3.1898,3.2546,3.2583,3.2619,3.2656,3.2656,3.322,3.3807,3.3844,3.3825,3.3881,0.0,0.0,3.5512,0.0,0.0,0.0,0.0,0.0,0.0,0.0,0.0,0.0,0.0,0.0,0.0,0.0,0.0,0.0,0.0,2.5944,2.5631,2.4868,2.4818,2.5151,0.0,2.7022,2.7981,2.8834,2.9896,3.0885,3.1756,3.1756,3.2564,3.4148,3.4186,3.4661,3.55,3.5538,3.5577,3.5712,3.7315,3.8027,3.818,3.9785,4.0458,4.0593,4.147,4.1827,4.175,4.0931,4.1708,4.3179,3.2768,3.3817,3.4945,0.0,3.5684,3.5877,3.6347,4.0388,4.4151,4.6092,4.945,5.2279,5.3816,5.4138,5.3651,5.2131,5.2029,0.0,0.0,0.0,0.0,4.2736,4.1847,4.0307,3.7889,3.8227,0.0,3.5042,0.0,0.0,3.3423,0.0,0.0,0.0,0.0,0.0,3.2344,3.3085,3.256,3.119,3.119,3.185,3.2754,0.0,3.2682,3.3811,3.1531,3.0492,3.0173,2.9971,2.9757,2.9721,3.032,3.1054,3.1825,3.2417,3.3023,3.3495,3.3495,3.3642,3.3935,3.4546,3.4247,3.4094,3.5211,3.569,0.0,0.0,0.0,0.0,0.0,0.0,0.0,0.0,0.0,0.0,0.0,0.0,0.0,2.7865,0.0,0.0,2.5266,2.5253,2.5165,2.4962,2.4943,2.5264,2.5963,2.7022,2.8274,2.972,3.0804,3.1756,3.2583,3.2583,3.2814,3.3237,3.3898,3.4661,3.5519,3.6115,3.675,3.7373,3.7815,3.8373,3.8996,3.9438,3.9958,4.0593,4.147,4.22,4.2739,4.2527,4.315,4.4149,3.4397,3.6091,0.0,3.8582,3.98,4.045,3.974,4.2417,4.5464,4.8002,5.0995,0.0,5.3653,5.4634,5.4583,5.2959,5.2503,0.0,4.9137,0.0,0.0,4.4181,4.2929,4.1102,3.8565,3.8514,0.0,3.5131,0.0,0.0,3.4736,0.0,0.0,0.0,0.0,3.4336,0.0,3.3038,3.2425,3.1667,3.1326,3.1698,0.0,3.1968,3.2616,3.3615,3.2517,3.1747,3.1146,3.0448,3.0136,3.0136,3.0577,3.1274,3.2082,3.2889,3.3458,3.3807,3.3807,3.3807,3.3917,3.4362,3.4137,3.4083,3.5122,3.5373,3.5287,3.4988,3.5596,3.5538,0.0,0.0,0.0,0.0,0.0,0.0,0.0,0.0,0.0,0.0,2.7621,0.0,2.5784,2.5351,2.5141,2.5141,2.5485,2.6025,2.6797,2.7746,2.9047,3.0739,3.2103,3.3199,3.4026,3.4757,3.5122,3.5141,3.5622,3.6122,3.6615,3.7065,3.7546,3.8027,3.8392,3.8854,3.9323,3.9688,4.0092,4.0631,4.1873,4.3142,4.4287,4.4287,4.438,4.4518,3.6965,0.0,0.0,0.0,0.0,4.5382,4.4406,4.5213,4.6815,4.9272,5.1606,5.2723,5.1894,5.3467,5.4296,5.3568,5.2756,5.1437,4.9424,4.8528,4.6773,4.395,4.2946,4.1153,3.8396,3.8058,3.6891,0.0,0.0,0.0,0.0,0.0,0.0,0.0,0.0,0.0,0.0,3.2886,3.2242,3.2107,3.1464,3.123,3.1312,3.1733,3.2179,3.2648,3.3105,3.2984,3.2381,3.0999,3.0907,3.1415,3.1525,3.2045,3.2748,3.3568,3.3807,3.3807,3.3807,3.3807,3.3807,3.3807,3.3807,3.3954,3.4569,3.4694,3.4633,3.4412,3.4968,3.4827,3.2622,0.0,0.0,0.0,0.0,0.0,0.0,0.0,0.0,0.0,0.0,0.0,2.7217,2.6212,2.5558,2.5327,2.6,2.6851,2.7857,0.0,2.9838,3.1795,3.3372,3.4718,3.5827,3.7276,3.8065,3.8161,3.8046,3.8065,3.8161,3.8161,3.8238,3.8373,3.913,3.9457,3.9515,4.0323,4.0804,4.115,4.2675,4.4302,4.5803,4.5828,4.5361,4.4724,3.8582,0.0,0.0,0.0,0.0,4.643,4.8595,5.115,5.2807,5.2723,5.5158,5.641,5.5074,5.4735,5.4296,5.3568,5.2756,0.0,0.0,0.0,0.0,4.6278,4.4282,4.2405,4.0663,3.8836,3.7415,0.0,0.0,0.0,0.0,0.0,0.0,0.0,0.0,0.0,3.3541,3.2682,0.0,3.1376,3.1241,3.1408,3.1734,3.2196,3.2665,3.3121,3.355,3.3221,3.2564,3.2271,3.1825,3.1525,3.2192,3.2491,3.2748,3.3568,3.3807,3.3807,3.3807,3.3807,3.3807,3.3807,3.3807,3.3954,3.4569,3.4694,3.4804,3.5192,3.5385,3.5365,3.4923,3.4487,0.0,0.0,0.0,0.0,0.0,0.0,0.0,0.0,0.0,2.8544,0.0,0.0,2.6851,2.5404,2.5442,2.6212,2.7818,0.0,2.9525,0.0,3.366,3.5276,0.0,3.7853,3.8354,3.9073,3.8334,3.8373,3.9073,3.9073,3.9438,4.0073,4.0227,4.0285,4.0362,4.1219,4.2393,4.3687,4.4088,4.4886,4.5815,4.5998,4.5955,4.5822,4.232,0.0,0.0,0.0,0.0,4.9306,5.1522,5.4059,5.5057,5.3129,5.3788,5.4008,5.2909,5.3534,5.3721,5.2942,5.2181,5.142,5.0676,4.9255,4.7953,4.6836,4.4621,4.2699,4.1238,3.8261,3.6738,3.6795,0.0,0.0,0.0,0.0,0.0,0.0,0.0,3.4641,0.0,0.0,3.2425,3.1769,3.1769,3.1773,3.1861,3.2333,3.2777,3.3258,3.3666,3.355,3.3151,3.2729,3.2339,3.21,3.2472,3.2601,3.2748,3.3568,3.3902,3.4006,3.4006,3.4129,3.4279,3.4279,3.4279,3.4375,3.4803,3.4917,3.5016,3.5424,3.55,3.55,3.55,3.443,3.3545,0.0,0.0,0.0,0.0,0.0,0.0,0.0,0.0,0.0,0.0,0.0,0.0,0.0,0.0,0.0,0.0,0.0,2.9877,0.0,0.0,0.0,3.7988,3.9315,3.995,3.9919,3.9571,3.9618,4.0024,4.006,4.0546,4.1341,4.128,4.1285,4.1305,4.1671,4.2797,4.4303,4.4452,4.5039,4.5871,4.6033,4.6145,4.6201,0.0,4.594,0.0,0.0,5.0727,5.2283,5.3348,5.5378,5.5902,5.3365,5.2384,5.1708,5.1116,5.252,5.3179,5.2367,5.164,5.0896,5.0135,4.8731,4.7618,4.7056,4.4857,4.3047,4.1711,3.7983,3.6332,0.0,0.0,0.0,0.0,0.0,0.0,0.0,0.0,0.0,0.0,3.401,3.3438,3.284,3.284,3.2734,3.2634,3.2818,3.3187,3.3615,3.3936,3.3954,3.3752,3.3476,3.3151,3.2858,3.2858,3.2858,3.2968,3.3605,3.3999,3.4237,3.4435,3.4595,3.4732,3.4902,3.4826,3.4764,3.5053,3.5105,3.5182,3.5446,3.55,3.55,3.55,3.4385,3.368,0.0,0.0,0.0,0.0,0.0,0.0,0.0,0.0,0.0,2.9555,0.0,0.0,0.0,0.0,0.0,2.8145,0.0,0.0,0.0,3.5372,3.7296,3.8527,4.0527,4.1378,4.1077,4.101,4.0973,4.1006,4.125,4.1739,4.2362,4.2315,4.2385,4.253,4.2416,4.3242,4.46,4.475,4.5248,4.5916,4.6082,4.6202,4.6308,0.0,0.0,0.0,4.9949,5.2367,5.4093,5.3585,5.5378,5.6461,5.553,5.4735,5.4245,5.4177,5.3771,5.3179,5.2367,5.164,5.0896,5.0135,4.8731,4.7855,4.7787,4.5669,4.4079,4.3206,3.9555,3.7398,0.0,0.0,3.5337,0.0,0.0,0.0,0.0,0.0,3.5677,3.4781,3.5012,3.4936,3.4659,3.4659,3.4885,3.5177,3.449,3.4482,3.4852,3.4862,3.4417,3.4027,3.5459,3.4945,3.3697,3.3697,3.3697,3.3697,3.377,3.3999,3.4367,3.5148,3.5038,3.4883,3.5601,3.5233,3.4764,3.5053,3.5105,3.5182,3.5446,3.55,3.55,3.55,3.5365,3.5288,3.5365,0.0,0.0,0.0,0.0,3.2199,0.0,0.0,0.0,0.0,3.0314,2.9902,2.9029,2.7562,0.0,0.0,0.0,3.1077,3.2833,3.5372,3.7853,4.0246,4.0496,4.1388,4.2931,4.2214,4.1911,4.1999,4.2794,4.321,4.3288,4.3276,4.3651,4.4253,4.426,4.473,4.5503,4.5687,4.5812,4.5928,4.6198,4.6289,4.6308,5.049,5.0676,5.1336,5.3162,5.3331,5.3737,5.526,5.548,5.5361,5.5074,5.4769,5.4431,5.3991,5.3687,5.301,5.1758,5.1386,5.071,4.9526,4.89,4.8376,4.7906,4.621,4.4891,4.413,4.046,3.8413,0.0,0.0,0.0,0.0,0.0,0.0,3.6389,3.6233,3.5926,3.5545,3.5661,3.5399,3.4942,3.5386,3.5576,3.5559,3.5252,3.5393,3.5789,3.5789,3.5569,3.5404,3.6064,3.5514,3.4601,3.5147,3.5293,3.5293,3.5293,3.5596,3.6021,3.637,3.6178,3.6097,3.6946,3.6154,3.5321,3.5925,3.5699,3.5369,3.5486,3.55,3.55,3.55,3.55,3.55,3.55,0.0,0.0,0.0,0.0,0.0,0.0,0.0,0.0,0.0,2.9943,3.0125,3.1323,0.0,0.0,0.0,2.9429,3.0621,3.2833,3.4904,3.6949,3.8969,4.0602,4.1751,4.2472,4.2804,4.2961,4.3014,4.3402,4.3827,4.4237,4.4281,4.4697,4.5302,4.4822,4.5076,4.5794,4.5959,4.6027,4.6042,4.6225,4.6308,4.6308,5.2892,5.2739,5.3315,5.5919,5.4837,5.4279,5.619,5.5412,5.4515,5.4296,5.4279,5.4076,5.3568,5.3298,5.2723,5.164,5.1133,5.0439,4.939,4.912,4.8781,4.8257,4.7022,0.0,4.4925,4.166,3.9648,3.8988,3.7849,0.0,0.0,3.8062,3.7893,3.7379,3.6809,3.6649,3.6789,3.6631,3.6345,3.6052,3.6574,3.6689,3.6492,3.6256,3.6355,3.6652,3.6652,3.6486,3.6376,3.6853,3.645,3.5807,3.6174,3.6303,3.6303,3.6303,3.6612,3.7055,3.74,3.7214,3.7176,3.8146,3.7296,3.6385,3.6942,3.6635,3.6154,3.5904,3.5846,3.5788,3.5538,3.5692,3.5788,3.5538,0.0,0.0,0.0,3.366,0.0,0.0,3.15,3.1056,3.0833,3.0246,3.0625,3.2438,0.0,0.0,3.0204,3.0223,3.1166,3.3218,3.5449,3.7439,3.9159,4.128,4.2505,4.2825,4.3613,4.3993,4.4025,4.4334,4.4743,4.5231,4.5293,4.5558,4.5908,4.5347,4.5426,4.5912,4.6045,4.6108,4.6115,4.6247,4.6308,4.6348,5.4262,5.5158,5.6139,5.7594,5.7239,5.6511,5.5835,5.5074,5.4329,5.3619,5.3518,5.3518,5.3501,5.279,5.2317,5.2283,5.0947,5.0101,5.0084,4.9407,4.9001,0.0,0.0,4.7179,4.572,4.3436,4.1187,3.8988,0.0,0.0,3.6454,3.7433,3.7911,3.7876,3.7893,3.8165,3.8624,3.8097,3.8181,3.8655,3.8655,3.8673,3.8582,3.7771,3.7492,3.7492,3.7492,3.6978,3.6541,3.8138,3.8138,3.7327,3.6556,3.6303,3.6303,3.6303,3.65,3.6951,3.8079,3.7962,3.7781,3.8981,3.8623,3.7969,3.7988,3.7988,3.7738,3.6865,3.6692,3.6442,3.5654,3.6154,3.6423,3.5635,3.55,0.0,0.0,3.4186,0.0,3.2987,3.2872,3.2586,3.1855,3.1708,0.0,0.0,3.1728,3.2025,3.2814,3.2852,3.3256,3.4167,3.7476,4.0118,4.1935,4.2768,4.3724,4.4777,4.4844,4.4926,4.5019,4.5879,4.6269,4.6289,4.6289,4.6204,4.6108,4.6089,4.6008,4.5912,4.6045,4.6108,4.6115,4.6247,4.6308,4.6426,5.46,5.5598,5.6444,5.6427,5.5784,5.5395,5.5683,5.4651,5.394,5.4211,5.3805,5.3501,5.3501,5.3281,5.2706,5.1657,5.1133,5.0422,4.9424,4.9137,4.9001,4.9001,4.8308,4.7445,4.6464,4.4231,4.2219,4.051,3.9537,3.8911,3.8676,3.9767,3.9698,3.8688,3.9648,3.9571,3.871,3.9097,3.904,3.8707,3.8707,3.8707,3.867,3.8414,3.8322,3.8322,3.8322,3.8157,3.801,3.8542,3.8649,3.8544,3.8285,3.821,3.821,3.821,3.8589,3.9045,3.918,3.8985,3.8949,3.9885,3.9046,3.8161,3.8738,3.843,3.7911,3.7642,3.7584,3.7507,3.7257,3.7411,3.7315,3.6462,3.6327,0.0,3.5199,0.0,3.4109,3.3821,3.3256,3.2814,3.2573,3.2537,3.3025,3.4224,3.3205,3.2622,3.2891,3.3449,3.443,3.5853,3.8104,4.0176,4.198,4.3476,4.4429,4.4883,4.5536,4.5877,4.5898,4.6172,4.6308,4.6308,4.6308,4.6288,4.6245,4.6245,4.6202,4.6175,4.6223,4.6245,4.6246,4.6289,4.668,4.7226,5.4735,5.6004,5.6884,5.5902,5.5327,5.5074,5.526,5.4279,5.367,5.4126,5.3788,5.3501,5.3501,5.3501,5.2993,5.1725,5.0862,5.0101,4.9458,4.9396,4.9389,4.9389,4.8918,4.8305,4.7558,4.5258,4.3485,4.2287,4.1139,4.0358,3.9954,4.0866,4.0907,4.027,4.0851,4.071,4.0047,3.9937,3.9606,3.9129,3.8817,3.8707,3.8707,3.8707,3.8707,3.8707,3.8707,3.8707,3.8707,3.8707,3.8884,3.9125,3.9238,3.9364,3.9438,3.9314,3.9587,3.9891,3.9808,3.969,3.9758,4.0338,3.9708,3.9084,3.9631,3.9111,3.8488,3.8488,3.8488,3.8392,3.8065,3.8277,3.8104,3.6885,3.6692,3.6423,3.5615,0.0,3.4321,0.0,0.0,3.3757,3.341,3.3968,3.4526,3.4988,3.4891,3.468,3.4334,3.4834,3.5776,3.7142,3.9488,4.1465,4.2994,4.4433,4.5235,4.5436,4.6014,4.6308,4.6308,4.6308,4.6308,4.6308,4.6308,4.6308,4.6308,4.6308,4.6308,4.6308,4.6308,4.6308,4.6308,4.6308,4.6855,4.7656,5.482,5.6325,5.7289,5.5886,5.5563,5.5327,5.4617,5.394,5.3501,5.3501,5.3501,5.3501,5.3501,5.345,5.3129,5.2367,5.0371,4.9407,4.9982,5.0,5.0004,5.0004,4.9943,4.9556,4.8827,4.6495,4.4885,4.4023,4.2289,4.1085,4.0419,4.0971,4.1594,4.2199,4.1572,4.1625,4.2121,4.0671,4.0029,3.9918,3.9166,3.8836,3.8781,3.8781,3.8762,3.8707,3.8707,3.8707,3.8707,3.8762,3.8972,3.9279,3.958,3.9935,4.0128,3.9761,3.9645,3.9724,4.0022,4.011,4.0186,4.0449,4.0496,4.0496,4.0496,3.9919,3.9381,3.9381,3.9381,3.915,3.8315,3.8834,3.8815,3.7065,3.6788,3.6481,3.5615,3.4853,3.4661,3.5481,3.5692,3.543,3.4552,3.5872,3.618,3.4667,3.668,3.7707,3.7009,3.7086,3.7509,3.8241,4.1474,4.3717,4.4787,4.5546,4.6042,4.6308,4.6308,4.6308,4.6308,4.6308,4.6308,4.6308,4.6308,4.6308,4.6308,4.6308,4.6308,4.6308,4.6367,4.6387,4.6406,4.6465,4.7031,4.7891,5.5598,5.5869,5.5936,5.5023,5.4397,5.3974,5.3788,5.3619,5.3501,5.3501,5.3501,5.3501,5.3501,5.2959,5.252,5.2317,5.1319,5.0287,4.9323,4.9708,5.0004,5.0004,4.9943,4.9556,4.8827,4.7026,4.5191,4.327,4.2225,4.1626,4.1469,4.2039,4.2068,4.1651,4.2535,4.2359,4.1389,4.1625,4.1387,4.0802,4.06,4.0157,3.9625,3.9625,3.9239,3.8707,3.8707,3.8707,3.8799,3.9405,4.0007,4.047,4.0507,4.0925,4.121,4.0253,4.0129,4.0257,4.0139,4.0241,4.0414,4.0481,4.0496,4.0496,4.0496,4.0342,4.0227,4.0227,4.0227,4.015,3.9958,4.0073,3.9669,3.7969,3.77,3.718,3.5712,3.5846,3.618,3.6385,3.7584,3.8065,3.718,3.7469,3.7796,3.8072,3.8046,3.8509,3.9681,4.0977,4.1474,4.1067,4.3073,4.4683,4.5755,4.5969,4.6142,4.6308,4.6308,4.6308,4.6308,4.6308,4.6308,4.6308,4.6308,4.6308,4.6308,4.6308,4.6308,4.6367,4.7031,4.7285,4.7363,4.8047,4.8848,4.9609,5.5412,5.575,5.5767,5.4346,5.4042,5.389,5.3551,5.3501,5.3501,5.3501,5.3501,5.3501,5.3501,5.3112,5.2706,5.2334,5.1319,5.0495,5.003,5.0326,5.0635,5.0938,5.0885,5.0505,4.9735,4.8109,4.6131,4.3772,4.2978,4.2581,4.2581,4.2921,4.2796,4.2396,4.3155,4.3002,4.2194,4.2268,4.2047,4.1625,4.1242,4.0838,4.0451,4.0451,3.9955,3.9239,3.9239,3.9019,3.8793,3.9342,3.9882,4.0344,4.0446,4.0797,4.108,4.0464,4.0381,4.0569,4.0801,4.0976,4.1085,4.1085,4.1393,4.1585,4.1181,4.1393,4.1681,4.1681,4.1681,4.1566,4.1162,4.1085,4.0412,3.8334,3.8007,3.7411,3.5731,3.6192,3.6846,3.7257,3.8815,3.9669,3.9181,3.9854,4.02,3.9881,4.0489,4.0966,4.1196,4.3228,4.3844,4.2685,4.4266,4.5447,4.6089,4.615,4.6225,4.6308,4.6308,4.6504,4.6894,4.6894,4.7109,4.748,4.748,4.7266,4.6894,4.6894,4.666,4.6387,4.7266,4.7598,4.7715,4.8574,4.9453,5.0195,5.5192,5.5852,5.6021,5.4008,5.4093,5.4211,5.3602,5.3501,5.3501,5.3501,5.3501,5.3501,5.3501,5.3501,5.3247,5.2717,5.1393,5.0786,5.117,5.136,5.1644,5.2089,5.2047,5.1665,5.1004,4.9224,4.7186,4.4892,4.4066,4.3608,4.3515,4.3515,4.3515,4.3515,4.3515,4.3515,4.346,4.2763,4.2488,4.2415,4.1754,4.1389,4.1295,4.1342,4.0845,4.01,4.0144,3.9626,3.9009,3.9505,3.9821,4.0102,4.0374,4.0736,4.1016,4.0766,4.0785,4.1035,4.1643,4.1904,4.2,4.2,4.2547,4.2912,4.2162,4.2566,4.3104,4.3104,4.3104,4.2874,4.2143,4.1885,4.1077,3.8931,3.8257,3.7507,3.6077,3.6577,3.7373,3.8104,3.99,4.1035,4.09,4.222,4.2547,4.1189,4.297,4.3621,4.2479,4.4704,4.5393,4.4047,4.527,4.5992,4.612,4.6247,4.6308,4.6308,4.6426,4.6875,4.7598,4.7734,4.8203,4.8906,4.8906,4.8476,4.7793,4.7793,4.7363,4.6777,4.7656,4.7988,4.8105,4.8965,4.9746,5.0371,5.663,5.6139,5.5581,5.46,5.4008,5.3636,5.3518,5.3501,5.3501,5.3501,5.3501,5.3501,5.3501,5.3501,5.3699,5.4201,5.3452,5.2477,5.1286,5.2314,5.2684,5.2131,5.2047,5.194,5.1811,4.9517,4.7462,4.5718,4.4911,4.4176,4.3515,4.3515,4.3515,4.3515,4.3515,4.3515,4.3496,4.3369,4.3296,4.3313,4.3167,4.2708,4.2136,4.2427,4.1869,4.0958,4.1219,4.0764,4.0267,4.1744,4.2197,4.2129,4.212,4.2852,4.3431,4.2008,4.2124,4.2566,4.197,4.2335,4.2893,4.2893,4.3008,4.3066,4.2931,4.3008,4.3104,4.3104,4.3104,4.3066,4.2912,4.2297,4.1673,4.1269,3.9411,3.7911,3.7642,3.8354,3.8957,3.9092,4.1835,4.3431,4.2758,4.2931,4.3278,4.3682,4.3451,4.384,4.511,4.633,4.6925,4.6779,4.6311,4.6122,4.6268,4.6289,4.6308,4.6308,4.7051,4.7461,4.7617,4.8359,4.8769,4.8906,4.8906,4.8828,4.8691,4.8691,4.8613,4.8574,4.9453,4.9805,4.9902,5.0703,5.1094,5.1211,5.6359,5.5953,5.5344,5.4211,5.3737,5.3501,5.3501,5.3501,5.3501,5.3501,5.3501,5.3501,5.3501,5.3501,5.3651,5.3962,5.4431,5.4016,5.2446,5.2937,5.3127,5.2721,5.2654,5.2234,5.1371,4.893,4.7278,4.6562,4.5296,4.4525,4.414,4.3699,4.3515,4.3515,4.3515,4.3515,4.3515,4.3515,4.3515,4.3515,4.3515,4.3393,4.3233,4.3397,4.2965,4.2286,4.2271,4.1824,4.1385,4.216,4.2501,4.263,4.2785,4.3211,4.3508,4.2739,4.3085,4.3662,4.3258,4.3778,4.4335,4.3855,4.4105,4.4316,4.3855,4.4105,4.4451,4.4451,4.4451,4.4297,4.3835,4.3066,4.2354,4.1885,4.0065,3.8854,3.9284,3.9688,4.0285,4.1239,4.3085,4.4366,4.4542,4.4549,4.4897,4.5681,4.541,4.5731,4.697,4.76,4.7933,4.7999,4.7742,4.7633,4.7695,4.7695,4.7695,4.7715,4.8105,4.8555,4.9004,4.9414,4.9844,5.0254,5.0254,5.0,4.9609,4.9609,4.9316,4.8984,4.9863,5.0195,5.0293,5.1094,5.1406,5.1406,5.5598,5.5446,5.504,5.3737,5.3501,5.3501,5.3501,5.3501,5.3501,5.3501,5.3501,5.3501,5.3501,5.3634,5.3832,5.4011,5.5238,5.5373,5.3938,5.3826,5.364,5.3222,5.3185,5.2454,5.0839,4.8929,4.7681,4.7094,4.5682,4.4892,4.4673,4.3883,4.3515,4.3515,4.3515,4.3515,4.3515,4.3515,4.3515,4.3515,4.3515,4.3693,4.4016,4.4102,4.3919,4.358,4.3396,4.2975,4.2536,4.2721,4.2889,4.3034,4.3304,4.3528,4.3643,4.3431,4.3951,4.4605,4.4605,4.5094,4.5441,4.4759,4.5114,4.5421,4.4739,4.5133,4.5594,4.5594,4.5594,4.5402,4.472,4.3932,4.3239,4.2758,4.1104,4.0162,4.0997,4.1266,4.1805,4.2951,4.4366,4.5472,4.6041,4.6306,4.668,4.7307,4.7327,4.7567,4.8163,4.859,4.8926,4.9172,4.8991,4.8906,4.8906,4.8906,4.8906,4.8906,4.9101,4.9551,5.0215,5.0391,5.082,5.1406,5.1406,5.1055,5.0488,5.0488,5.0078,4.9551,5.0215,5.0488,5.0547,5.1172,5.1406,5.1406,5.482,5.4668,5.4431,5.3653,5.3501,5.3501,5.3501,5.3501,5.3501,5.3501,5.3501,5.3501,5.3501,5.4106,5.4787,5.5495,5.6313,5.6421,5.5491,5.5412,5.4759,5.3259,5.3185,5.2454,5.0839,5.0618,4.9407,4.7094,4.6232,4.5424,4.4673,4.3883,4.3515,4.3515,4.3515,4.3515,4.3515,4.3515,4.3515,4.3515,4.3515,4.3693,4.4028,4.4401,4.4529,4.4537,4.4824,4.4394,4.3795,4.4606,4.4565,4.4184,4.4201,4.4759,4.5267,4.4451,4.4816,4.5498,4.5498,4.5556,4.5575,4.5518,4.5556,4.5575,4.5518,4.5556,4.5594,4.5594,4.5594,4.5575,4.5518,4.4797,4.4451,4.521,4.3239,4.1931,4.2797,4.3547,4.3797,4.3162,4.6012,4.7733,4.7075,4.78,4.8335,4.8394,4.8262,4.8276,4.8453,4.925,5.0163,5.1151,4.9707,4.8906,4.8906,4.8906,4.8906,4.8906,4.9726,5.0137,5.0234,5.0976,5.1348,5.1406,5.1406,5.1367,5.1308,5.1308,5.1269,5.1211,5.1289,5.1308,5.1328,5.1387,5.1406,5.1406,5.6067,5.6032,5.5771,5.4987,5.4848,5.4848,5.4848,5.4848,5.4848,5.4848,5.4848,5.4848,5.4848,5.5102,5.5408,5.5678,5.6438,5.6346,5.5014,5.5354,5.4876,5.328,5.2729,5.194,5.082,5.0306,4.9334,4.7828,4.6544,4.5993,4.614,4.4342,4.3754,4.4213,4.3718,4.3515,4.3515,4.3515,4.3515,4.3515,4.3515,4.3693,4.4043,4.4447,4.4739,4.4919,4.5052,4.5022,4.494,4.5065,4.5093,4.5114,4.5114,4.5325,4.5537,4.521,4.572,4.6413,4.6413,4.6009,4.5594,4.5594,4.6009,4.6413,4.6413,4.6797,4.7144,4.7144,4.7144,4.7144,4.7144,4.6471,4.6182,4.7028,4.547,4.4643,4.6009,4.6028,4.599,4.6182,4.7377,4.8083,4.7874,4.8732,4.9532,5.0067,5.0605,5.0886,5.0855,5.0743,5.0896,5.1387,5.0781,5.0449,5.0449,5.0449,5.0449,5.0449,5.0781,5.0937,5.0957,5.1269,5.1406,5.1406,5.1406,5.1406,5.1406,5.1406,5.1406,5.1406,5.1406,5.1738,5.2207,5.2207,5.2558,5.2949,5.6509,5.6509,5.6332,5.5812,5.5706,5.5706,5.5706,5.5706,5.5706,5.5706,5.5706,5.5706,5.5706,5.592,5.6077,5.6077,5.6799,5.6563,5.4967,5.4834,5.4344,5.324,5.2674,5.1885,5.082,5.0251,4.9426,4.8306,4.6948,4.6562,4.7058,4.5149,4.4544,4.5057,4.4507,4.4103,4.3883,4.3883,4.3718,4.3515,4.3515,4.3693,4.4043,4.4447,4.4812,4.5107,4.5222,4.541,4.5568,4.5332,4.541,4.5594,4.5594,4.5594,4.5652,4.5932,4.6432,4.6962,4.7212,4.6836,4.6394,4.6394,4.6836,4.7278,4.7278,4.7702,4.8105,4.8105,4.8105,4.8105,4.8105,4.7663,4.7471,4.8009,4.7144,4.6778,4.7952,4.7855,4.7798,4.8067,4.8612,4.8908,4.8738,4.9848,5.0845,5.1479,5.2359,5.2811,5.2777,5.233,5.2119,5.2207,5.2226,5.2226,5.2226,5.1933,5.1953,5.2226,5.2226,5.2226,5.2207,5.1933,5.1816,5.1797,5.1523,5.1562,5.1816,5.1816,5.1973,5.2226,5.2226,5.2578,5.3105,5.3105,5.3496,5.3906,5.5706,5.5706,5.5706,5.5706,5.5706,5.5706,5.5706,5.5706,5.5706,5.5706,5.5706,5.5706,5.5706,5.6438,5.6912,5.6912,5.7589,5.7317,5.5724,5.4106,5.3203,5.3185,5.3185,5.2454,5.0839,5.0802,4.9976,4.8306,4.748,4.7094,4.7094,4.6287,4.5902,4.5902,4.5902,4.5461,4.4727,4.4691,4.425,4.3515,4.3515,4.3693,4.4043,4.4447,4.4812,4.514,4.5485,4.5594,4.5594,4.5594,4.5594,4.5594,4.5614,4.5614,4.5787,4.6644,4.6904,4.7077,4.7894,4.8125,4.8125,4.8105,4.8105,4.8105,4.8105,4.8125,4.8125,4.8125,4.8125,4.8125,4.8125,4.8125,4.8125,4.8125,4.8125,4.8125,4.8125,4.8875,4.9106,4.8221,4.9779,5.0579,4.9708,5.1255,5.2366,5.2506,5.321,5.3665,5.3799,5.3939,5.4004,5.4004,5.4004,5.4004,5.4004,5.3144,5.3144,5.4004,5.4004,5.4004,5.3965,5.3105,5.2695,5.2656,5.1797,5.1894,5.2715,5.2715,5.3223,5.4004,5.4004,5.4004,5.4004,5.4004,5.4004,5.4023,5.7297,5.7297,5.7297,5.7297,5.7297,5.7297,5.7297,5.7297,5.7297,5.7297,5.7297,5.7297,5.7297,5.7522,5.7679,5.7679,5.7862,5.7317,5.5724,5.462,5.3794,5.3203,5.3185,5.2454,5.0839,5.0802,4.9976,4.8306,4.748,4.7388,4.7901,4.6544,4.6214,4.6709,4.6159,4.5773,4.5516,4.4947,4.4562,4.4287,4.3718,4.3693,4.4043,4.4447,4.4812,4.514,4.5485,4.5594,4.5594,4.5594,4.5594,4.571,4.6317,4.6509,4.6663,4.7509,4.8182,4.8702,4.8952,4.9452,4.9625,4.8413,4.8567,4.9009,4.9009,4.949,4.9913,4.9913,5.0375,5.0769,5.0769,5.0769,5.0769,5.0769,5.0769,5.0567,4.999,5.1164,5.1529,5.0106,5.1462,5.2174,5.1307,5.2891,5.4038,5.4162,5.4557,5.4811,5.4859,5.4316,5.4004,5.4004,5.4004,5.4297,5.4902,5.4043,5.373,5.4004,5.4004,5.4004,5.3965,5.3105,5.3027,5.3555,5.2695,5.2812,5.3613,5.3613,5.3769,5.4004,5.4004,5.4375,5.4902,5.4902,5.5293,5.5742,5.7932,5.7997,5.7997,5.7997,5.7997,5.7997,5.7997,5.7997,5.7997,5.7997,5.7997,5.7997,5.7997,5.7997,5.7997,5.7997,5.7409,5.6638,5.5669,5.4546,5.372,5.3203,5.3185,5.2454,5.0839,5.0802,4.9976,4.8306,4.781,4.781,4.8288,4.7297,4.7113,4.7553,4.7076,4.6673,4.6324,4.5516,4.5002,4.4635,4.3809,4.3693,4.4043,4.4447,4.4812,4.514,4.5485,4.5594,4.5652,4.599,4.6336,4.6682,4.7221,4.7375,4.7548,4.8375,4.899,4.9548,5.0202,5.0779,5.0991,5.0298,5.001,4.999,5.0317,5.0798,5.126,5.1625,5.2087,5.2404,5.2404,5.2404,5.2404,5.2404,5.2404,5.2241,5.176,5.2568,5.2818,5.1798,5.2587,5.2991,5.2462,5.3754,5.4847,5.5364,5.5654,5.5801,5.5801,5.5312,5.5039,5.5039,5.5039,5.5273,5.5801,5.5293,5.5039,5.5039,5.5039,5.5039,5.5,5.4121,5.4023,5.4473,5.3594,5.3711,5.4512,5.4512,5.4726,5.5039,5.5039,5.5351,5.5801,5.5801,5.6152,5.6523,5.7862,5.7997,5.7997,5.7997,5.7997,5.7997,5.7997,5.7997,5.7997,5.7997,5.7997,5.7997,5.7997,5.7997,5.7997,5.7997,5.6657,5.5776,5.5702,5.4271,5.339,5.3295,5.3243,5.2491,5.0949,5.0839,5.0031,4.8416,4.8343,4.8306,4.8306,4.8306,4.8306,4.8306,4.8306,4.7866,4.7095,4.6269,4.5479,4.478,4.3863,4.3781,4.4199,4.4479,4.4837,4.5191,4.5591,4.5729,4.5845,4.6721,4.749,4.8125,4.8279,4.8336,4.8529,4.9452,4.974,5.0067,5.1596,5.2019,5.2212,5.301,5.2049,5.1125,5.1846,5.2019,5.2231,5.3049,5.326,5.3318,5.3318,5.3318,5.3318,5.3318,5.3318,5.3299,5.3222,5.3337,5.3376,5.3222,5.3337,5.3405,5.3329,5.413,5.5142,5.625,5.6495,5.6601,5.6601,5.6601,5.6601,5.6601,5.6601,5.6601,5.6601,5.6601,5.6601,5.6601,5.6601,5.6601,5.6562,5.5703,5.5332,5.5371,5.4492,5.4609,5.543,5.543,5.5879,5.6601,5.6601,5.6601,5.6601,5.6601,5.6601,5.6601,5.7973,5.7997,5.7997,5.7997,5.7997,5.7997,5.7997,5.7997,5.7997,5.7997,5.7997,5.7997,5.7997,5.7997,5.7997,5.7997,5.7685,5.7207,5.6583,5.5611,5.4803,5.4179,5.3555,5.2747,5.1756,5.1114,5.0306,4.9335,4.8636,4.8306,4.8306,4.8306,4.8306,4.8306,4.8306,4.8016,4.7503,4.6377,4.5951,4.5873,4.4168,4.4273,4.535,4.4817,4.4966,4.56,4.6356,4.6624,4.674,4.7567,4.7971,4.8336,4.9702,5.0144,5.0433,5.1933,5.2375,5.2472,5.2818,5.2933,5.2972,5.3145,5.2933,5.2702,5.2876,5.2933,5.2972,5.3164,5.3741,5.4222,5.4222,5.4222,5.4222,5.4222,5.4222,5.3972,5.3299,5.4337,5.4664,5.3356,5.4357,5.4949,5.4437,5.5357,5.6379,5.7301,5.6883,5.6601,5.6601,5.6601,5.6601,5.6601,5.6601,5.6601,5.6601,5.6601,5.6601,5.6601,5.6601,5.6601,5.6562,5.5703,5.5664,5.6269,5.539,5.5508,5.6328,5.6328,5.6426,5.6601,5.6601,5.6601,5.6601,5.6601,5.6601,5.6601,5.7932,5.7997,5.7997,5.7997,5.7997,5.7997,5.7997,5.7997,5.7997,5.7997,5.7997,5.7997,5.7997,5.7997,5.7997,5.7997,5.7648,5.7262,5.684,5.6051,5.5225,5.4436,5.4014,5.3408,5.2601,5.1775,5.0784,4.961,4.9114,4.8691,4.8306,4.8306,4.8306,4.8306,4.8306,4.8292,4.8211,4.7192,4.6971,4.7185,4.5767,4.5806,4.6575,4.5721,4.6001,4.6797,4.6874,4.7413,4.8163,4.8586,4.926,5.0058,5.0991,5.1568,5.2068,5.2933,5.3203,5.3299,5.3703,5.3818,5.3914,5.4299,5.4395,5.4299,5.3914,5.3818,5.3933,5.4318,5.4761,5.5068,5.5068,5.5068,5.5068,5.5068,5.5068,5.4914,5.4453,5.5145,5.5376,5.4491,5.5164,5.574,5.5877,5.6492,5.7111,5.7657,5.7395,5.7031,5.6621,5.6601,5.6601,5.6601,5.6601,5.6601,5.6601,5.6601,5.6601,5.6601,5.6601,5.6601,5.6582,5.6133,5.6172,5.6562,5.6113,5.6172,5.6601,5.6601,5.6601,5.6601,5.6601,5.6601,5.6601,5.6601,5.6601,5.6601,5.7886,5.7997,5.7997,5.7997,5.7997,5.7997,5.7997,5.7997,5.7997,5.7997,5.7997,5.7997,5.7997,5.7997,5.7997,5.7997,5.7391,5.7024,5.7024,5.6253,5.55,5.484,5.4546,5.4087,5.3427,5.2619,5.1408,4.9812,4.9591,4.9095,4.8306,4.8306,4.8306,4.8306,4.8306,4.8458,4.8654,4.7965,4.7938,4.8211,4.7413,4.7378,4.7713,4.6854,4.718,4.8029,4.7509,4.8317,4.9644,4.9779,5.076,5.1942,5.225,5.2837,5.3453,5.3587,5.3626,5.378,5.4511,5.4703,5.4876,5.553,5.5703,5.553,5.4857,5.4703,5.4895,5.5549,5.5703,5.5703,5.5703,5.5703,5.5703,5.5703,5.5818,5.5915,5.5915,5.6049,5.6145,5.6145,5.6182,5.6598,5.7587,5.7692,5.7783,5.7948,5.8061,5.7676,5.664,5.6738,5.6758,5.6601,5.6601,5.668,5.6816,5.6816,5.6816,5.6816,5.6816,5.6738,5.6601,5.6601,5.6601,5.6601,5.6601,5.6601,5.6601,5.6601,5.6601,5.6601,5.6601,5.6601,5.6601,5.6601,5.6601,5.6601,5.7973,5.7997,5.7997,5.7997,5.7997,5.7997,5.7997,5.7997,5.7997,5.7997,5.7997,5.7997,5.7997,5.7997,5.7997,5.7997,5.7905,5.7831,5.7831,5.7079,5.6602,5.6492,5.5152,5.4344,5.4234,5.3463,5.2252,5.0637,4.9866,4.9095,4.8306,4.8306,4.8306,4.8306,4.8306,4.8144,4.7858,4.776,4.7888,4.815,4.7413,4.7707,4.8555,4.7732,4.7716,4.8182,4.8836,4.9683,5.0625,5.1337,5.1712,5.2154,5.3664,5.4222,5.4453,5.5164,5.5357,5.5395,5.5511,5.553,5.5549,5.5665,5.5703,5.5665,5.5549,5.553,5.5568,5.5684,5.5703,5.5703,5.5703,5.5703,5.5703,5.5703,5.6329,5.683,5.683,5.7473,5.7953,5.7953,5.8139,5.8635,5.954,5.9224,5.8962,5.9003,5.9004,5.8301,5.6699,5.7305,5.7383,5.6621,5.6601,5.6953,5.7715,5.7715,5.7715,5.7715,5.7715,5.7324,5.6601,5.6601,5.6601,5.6601,5.6601,5.6601,5.6601,5.6601,5.6601,5.6601,5.6601,5.6601,5.6601,5.6601,5.6601,5.6601,5.7997,5.7997,5.7997,5.7997,5.7997,5.7997,5.7997,5.7997,5.7997,5.7997,5.7997,5.7997,5.7997,5.7997,5.7997,5.7997,5.7997,5.7997,5.7997,5.7666,5.7281,5.6822,5.5684,5.4858,5.4418,5.361,5.2637,5.1463,5.1077,5.0251,4.9022,4.9022,4.8765,4.8306,4.8306,4.8329,4.8377,4.8375,4.872,4.9219,4.8903,4.9215,4.9769,4.8928,4.8999,4.9606,4.999,5.0366,5.0827,5.1625,5.2212,5.2856,5.4107,5.4799,5.5241,5.5588,5.5703,5.5703,5.5703,5.5703,5.5703,5.5703,5.6069,5.6426,5.6426,5.6799,5.7011,5.6541,5.6799,5.6992,5.6522,5.6819,5.6992,5.6522,5.7165,5.775,5.7834,5.8172,5.8441,5.8521,5.8629,5.9075,6.002,5.9898,5.9797,5.9863,5.9453,5.8867,5.8086,5.7969,5.7949,5.8047,5.8047,5.8242,5.8613,5.8633,5.8379,5.789,5.789,5.7441,5.6601,5.6601,5.6601,5.6601,5.6601,5.6601,5.6601,5.6601,5.6601,5.6601,5.6601,5.6601,5.6601,5.6601,5.6601,5.6601]}]]